GFSSW_925_rhum_000.txt.gz
RH
88 86 86 92 91 88 88 89 90 91 90 88 86 88 90 86 86 99 97 71 49 42 37 39 40 36 31 31 28 27 37 32 28 24 22 19 20 16 15 16 13 14 21 37 44
89 86 87 92 90 87 86 86 86 88 89 89 88 92 94 90 92 97 89 78 52 48 41 37 35 32 38 33 33 37 44 29 19 19 26 24 23 21 18 20 17 17 27 42 47
90 88 76 87 88 92 88 84 86 87 86 87 89 94 91 95 90 75 88 78 63 47 41 34 32 32 41 38 33 34 41 29 20 22 25 25 24 22 20 25 19 19 31 40 48
89 76 74 92 90 85 88 89 89 91 92 96 94 90 78 98 89 49 78 83 67 68 54 40 36 40 44 42 31 38 28 23 21 22 22 25 22 24 22 22 16 17 24 37 48
74 69 69 76 92 88 89 90 89 88 92 92 91 82 95 97 73 48 64 78 70 87 55 42 40 40 45 35 30 32 26 21 20 21 24 22 24 25 24 19 16 16 18 34 39
87 89 90 90 88 86 88 88 92 95 80 74 87 78 95 94 57 50 58 70 76 85 54 45 37 34 36 33 30 25 26 24 22 21 22 23 24 20 20 18 17 19 20 21 29
92 92 91 93 92 90 88 88 94 91 86 88 90 80 86 71 48 56 72 81 74 61 54 42 35 34 31 34 24 24 29 29 25 23 22 20 26 24 20 17 18 18 18 19 21
80 80 85 93 91 90 89 93 94 95 94 96 93 83 80 62 67 59 62 72 55 52 46 39 35 32 32 24 25 29 31 39 25 23 21 23 32 19 17 16 18 18 18 19 19
86 94 79 76 83 75 69 81 95 99 94 84 74 83 76 80 77 59 63 58 45 42 39 41 32 32 26 34 40 32 36 32 26 22 22 25 30 20 17 18 19 18 17 16 16
78 73 80 88 88 76 71 86 95 92 83 77 79 88 85 70 63 63 64 53 51 48 44 46 37 34 33 33 49 34 32 26 26 26 24 27 27 20 16 17 19 16 15 15 16
81 82 90 95 87 93 91 100 96 97 88 82 72 66 61 83 80 80 61 58 53 52 66 45 43 40 31 29 26 28 26 24 18 24 23 26 24 18 15 18 17 16 21 20 19
93 91 88 99 98 97 96 91 94 93 98 90 80 80 89 96 95 94 68 73 73 84 51 46 43 26 23 26 27 27 27 26 22 21 26 26 25 16 15 15 16 22 24 26 24
84 95 86 89 98 99 93 95 99 97 96 96 90 81 87 93 94 96 70 68 73 78 55 39 29 23 30 33 31 30 31 31 31 25 28 27 30 22 17 20 22 23 26 27 29
74 90 91 96 99 98 93 98 95 96 93 97 89 92 91 90 92 90 78 63 76 73 32 28 27 30 32 32 30 34 27 28 31 34 40 27 39 25 23 26 26 30 31 31 30
65 84 100 99 88 94 94 95 93 98 99 92 94 90 90 82 88 80 69 54 46 29 28 33 35 34 34 30 26 37 29 28 29 34 34 28 37 27 26 31 30 30 31 32 31
58 73 86 90 86 81 81 84 92 97 99 96 90 89 81 79 69 73 64 48 22 26 27 30 23 26 27 28 27 27 28 30 30 35 45 26 28 31 28 30 33 30 31 31 32
47 56 62 70 71 67 74 90 97 96 94 96 93 84 74 76 70 57 38 33 36 39 38 31 26 21 21 27 25 29 36 48 53 52 45 23 31 30 21 26 29 33 34 32 33
38 47 58 58 63 73 88 91 90 89 90 86 89 83 82 73 66 44 34 43 32 35 36 48 48 29 23 26 30 31 33 51 57 52 39 25 39 28 20 22 25 29 33 34 34
40 51 60 54 65 76 87 87 93 78 77 84 85 84 91 83 71 60 40 44 44 42 44 44 46 28 28 23 23 32 43 28 40 32 44 35 25 22 20 23 24 29 34 36 34
51 51 46 42 56 78 71 74 76 64 62 64 78 72 88 82 72 58 52 52 58 52 47 40 52 32 31 25 22 23 23 37 40 45 44 36 28 32 26 25 25 31 34 36 34
67 57 34 39 51 67 70 70 68 55 52 61 49 62 71 76 61 50 49 56 49 52 46 44 45 51 37 41 36 32 32 28 30 32 43 42 36 24 26 23 23 33 35 37 38
64 56 33 43 58 62 73 58 55 55 47 50 51 48 49 50 49 47 59 59 49 46 50 53 53 60 51 38 37 31 31 30 42 39 38 41 43 25 28 33 34 35 36 37 39
57 50 36 43 67 69 59 59 57 56 59 51 56 51 45 56 63 57 63 52 50 60 60 51 52 67 64 50 43 47 36 33 39 42 53 46 40 26 28 33 34 36 39 39 40
58 54 55 54 46 51 52 55 62 53 56 50 53 47 47 57 53 64 61 61 56 55 62 52 50 52 53 46 40 49 46 42 45 52 46 43 38 29 29 33 30 26 39 39 41
54 58 53 62 57 49 46 42 51 56 51 46 51 46 44 56 56 57 54 57 49 48 47 52 50 44 43 38 35 38 41 40 50 45 51 35 35 28 25 26 26 36 41 39 40
61 48 49 48 42 34 40 48 46 47 50 50 56 46 43 54 50 56 49 43 49 45 44 50 51 40 40 31 27 33 31 29 34 37 38 37 37 26 25 38 39 38 39 45 43
48 44 51 57 44 38 51 49 51 42 48 50 47 47 58 49 40 38 39 43 44 44 45 46 44 43 44 33 38 49 38 38 36 33 33 39 32 29 31 41 42 42 40 44 48

GFSSW_925_rhum_003.txt.gz
RH
92 90 87 85 90 94 93 91 91 92 91 92 92 89 90 85 85 88 93 80 68 44 43 41 41 38 42 34 30 29 47 40 31 29 26 28 29 23 17 17 15 23 28 38 39
92 89 88 84 91 93 91 88 88 92 93 92 91 90 90 85 92 98 74 82 69 54 53 43 47 41 44 38 37 43 55 40 26 28 27 28 27 26 22 22 20 33 51 47 46
90 90 91 87 90 88 89 88 87 88 90 89 90 91 90 91 86 73 65 87 76 71 55 45 38 40 47 41 42 41 50 39 34 30 26 27 25 24 27 24 23 22 46 58 54
89 82 84 78 78 81 84 92 87 90 90 89 89 91 83 92 85 44 36 76 85 82 64 43 43 47 52 51 42 47 38 34 32 28 25 28 24 26 24 24 20 18 35 59 63
88 68 62 78 86 92 91 92 92 89 91 93 94 93 93 92 75 40 44 43 74 82 71 54 50 50 55 48 44 45 40 33 27 27 26 26 28 25 26 23 22 25 38 50 61
90 90 90 88 88 87 85 90 91 89 90 92 94 89 96 96 58 52 65 82 78 82 75 56 46 46 45 47 46 32 33 30 27 27 27 28 26 24 22 21 20 21 31 42 48
93 89 90 86 91 91 89 86 87 89 93 88 93 93 87 69 52 56 51 77 80 81 70 60 44 44 41 46 35 34 37 34 32 30 28 20 26 26 21 20 20 21 24 25 36
87 90 84 83 81 94 92 90 90 92 94 80 95 89 84 63 54 66 56 65 80 77 61 57 54 44 42 36 32 34 34 45 36 29 28 23 36 26 23 24 22 21 21 23 23
84 90 79 80 75 75 71 72 80 78 98 98 87 85 79 60 69 59 62 76 84 76 71 59 53 45 37 41 48 41 50 43 36 28 27 26 32 25 22 20 21 22 22 20 21
93 90 92 90 95 87 72 79 89 97 99 72 77 84 72 68 62 64 63 72 77 60 64 69 80 51 44 46 64 52 44 38 35 25 27 29 32 28 23 18 21 23 24 26 28
96 95 93 99 90 88 84 100 92 97 81 75 76 75 64 68 50 67 66 80 57 61 86 76 84 73 54 43 38 37 36 35 25 25 26 30 32 28 20 19 27 28 31 31 30
86 91 94 94 96 93 91 93 80 74 85 66 68 66 89 65 79 77 79 81 65 83 68 72 73 49 36 36 37 35 35 34 26 26 27 29 31 20 17 21 29 34 36 35 36
87 91 95 91 98 100 98 94 86 80 87 88 68 78 81 94 84 87 79 71 66 73 73 73 56 38 34 36 38 33 32 36 36 32 29 31 37 21 24 27 32 33 33 35 38
85 93 98 97 100 96 92 100 92 93 94 97 93 92 90 89 96 96 84 72 87 73 69 51 32 37 38 39 34 35 30 30 33 39 47 33 47 28 30 31 35 38 38 37 36
79 82 98 97 99 97 95 100 95 94 98 87 87 80 87 88 90 84 79 72 86 70 57 43 38 37 40 34 30 38 31 30 30 36 38 34 41 36 35 38 39 40 41 38 37
62 64 94 100 95 87 90 95 96 100 99 92 92 94 84 91 79 80 68 75 70 72 37 35 30 31 33 29 30 31 30 32 36 42 54 41 39 37 39 40 39 38 41 38 37
50 56 75 84 85 93 97 99 100 100 95 94 94 77 79 87 75 70 79 81 78 53 44 32 25 20 24 30 25 30 43 58 57 60 59 30 36 36 28 35 34 42 43 42 40
38 46 50 63 72 90 97 100 98 91 92 88 84 80 88 84 77 68 59 61 31 32 49 55 48 27 23 28 34 35 42 64 64 63 50 29 40 31 25 33 38 40 43 42 42
36 52 62 57 75 78 99 95 99 86 81 87 90 87 92 88 65 59 50 52 56 41 46 49 49 30 28 24 26 35 45 37 45 43 52 47 34 23 32 38 42 44 45 43 42
58 63 59 54 72 90 84 91 92 85 77 77 86 81 79 67 61 60 62 57 64 54 50 43 55 35 32 27 24 26 27 41 49 48 48 47 33 39 32 34 36 46 48 46 44
66 72 46 57 68 83 90 87 79 66 62 76 76 77 69 78 64 57 68 59 52 53 48 48 53 55 38 41 42 40 36 30 38 47 52 53 43 30 27 29 35 43 46 46 47
80 58 34 60 74 86 87 67 57 66 59 56 59 63 68 71 55 73 76 66 54 52 57 54 61 70 56 39 38 35 36 36 48 45 49 49 45 28 39 36 43 46 44 45 49
79 64 33 39 87 87 66 67 66 66 65 60 62 55 53 58 70 68 68 59 59 59 57 52 60 77 62 48 45 48 42 38 44 50 53 49 45 30 38 41 40 48 46 48 50
77 61 68 68 66 68 68 66 71 58 59 55 56 51 56 64 61 70 68 62 57 55 60 50 50 52 60 48 49 54 48 44 48 58 52 53 42 34 34 34 34 34 50 52 53
70 63 61 69 57 55 52 55 62 65 54 51 54 50 54 64 60 65 64 60 50 48 47 50 49 45 41 38 34 38 42 44 56 53 51 32 37 31 32 34 35 44 50 52 52
71 64 64 61 48 51 60 55 56 56 56 57 63 60 58 65 59 61 58 54 54 46 49 50 53 39 37 33 33 34 34 36 39 42 49 47 44 32 32 34 43 54 51 53 49
60 56 56 56 51 56 57 53 53 55 50 51 50 60 61 50 42 40 43 48 51 49 51 50 46 47 43 44 44 49 42 41 39 34 34 43 34 31 33 39 44 45 53 54 51

GFSSW_925_rhum_006.txt.gz
RH
96 94 92 90 88 89 94 94 94 94 91 94 89 93 90 84 85 89 97 66 73 53 48 48 44 40 44 40 32 35 50 47 33 29 27 27 31 25 23 21 18 33 30 34 36
92 91 90 89 87 91 92 94 94 93 94 94 86 94 93 83 89 98 77 59 78 76 53 48 52 48 50 41 38 45 58 49 34 28 35 30 31 28 28 30 22 34 50 52 46
86 88 88 91 89 92 93 88 91 92 93 91 93 94 93 86 84 69 60 73 63 88 74 61 48 44 50 44 44 44 52 42 37 36 36 31 30 25 27 28 24 23 44 57 59
88 88 88 87 88 89 91 82 92 91 92 91 92 93 88 90 87 46 57 38 65 86 85 70 50 52 57 55 47 50 43 39 38 36 33 29 26 29 27 26 23 24 29 61 62
88 88 85 87 84 79 88 93 92 93 92 92 92 91 91 85 69 44 67 64 42 91 88 60 51 53 60 54 48 49 46 41 38 38 33 28 31 31 27 24 24 25 46 60 62
91 92 92 88 91 89 89 89 90 96 92 91 89 83 90 96 52 47 60 65 76 90 88 60 51 45 52 51 51 42 38 35 33 31 31 31 31 26 25 23 23 24 40 54 61
88 80 70 77 94 92 91 87 87 92 93 90 90 95 89 69 56 45 51 71 83 86 77 62 50 44 50 50 40 37 44 40 35 32 31 26 31 27 24 23 24 24 27 32 46
91 76 82 92 86 95 93 90 86 88 90 91 91 96 80 62 59 62 64 62 77 86 67 62 57 57 49 40 36 34 37 45 35 33 32 28 44 30 25 28 28 25 26 25 26
89 92 95 84 81 79 93 93 93 88 94 95 90 84 77 63 75 46 57 64 63 84 80 72 60 56 45 52 48 46 51 47 41 32 29 30 36 28 24 22 24 25 23 28 32
91 95 100 96 91 86 76 80 88 78 86 91 90 84 73 77 65 60 45 59 82 82 86 86 90 70 51 48 71 54 51 44 41 27 36 34 34 30 26 19 22 28 32 35 38
84 90 92 97 98 92 88 97 94 93 99 79 82 73 64 60 62 65 65 66 81 88 94 93 93 91 74 44 45 42 40 41 36 30 32 36 33 31 27 28 32 34 37 38 38
84 86 91 97 96 94 83 96 76 71 90 73 70 72 75 61 65 72 75 78 88 88 78 99 93 74 59 52 42 41 43 44 36 29 26 28 30 31 21 28 35 39 40 40 41
82 90 94 96 98 99 96 91 87 66 80 78 74 64 66 67 77 80 80 82 80 77 83 83 74 64 50 44 46 46 46 42 40 35 32 32 40 24 27 32 36 36 39 40 44
85 94 98 97 97 95 99 99 90 88 92 90 84 70 75 83 89 91 93 80 72 74 69 71 51 56 54 46 41 48 37 35 34 39 45 35 53 31 34 36 37 41 42 42 44
82 91 100 97 99 95 98 89 89 97 98 87 85 85 83 81 89 94 97 88 70 68 72 69 51 54 46 42 39 39 34 32 32 40 40 39 45 41 37 41 43 45 43 42 46
88 89 99 100 96 92 98 100 95 100 98 95 94 97 88 89 88 92 94 74 60 58 56 47 36 40 40 34 34 36 33 44 47 48 57 45 45 42 44 37 42 44 44 43 48
82 95 87 98 95 96 100 98 100 100 91 95 95 83 81 89 90 86 91 90 82 76 76 62 32 24 30 33 27 36 46 61 59 62 61 39 43 38 32 38 34 45 48 45 49
73 96 93 91 90 98 100 100 100 94 90 79 79 81 88 77 84 85 87 80 62 51 61 72 49 31 24 33 37 41 45 64 64 70 55 33 42 32 30 35 40 43 47 47 50
65 77 86 66 89 100 99 99 96 86 78 82 74 86 97 80 75 75 78 60 51 52 46 50 49 32 29 24 32 37 48 40 50 49 55 49 40 26 45 51 49 52 48 48 50
83 75 72 81 88 99 99 93 93 79 68 70 88 84 90 72 72 68 80 58 67 50 47 47 53 38 32 28 26 35 34 46 55 54 53 50 41 41 42 53 53 54 51 49 47
74 76 90 87 87 99 96 94 92 66 73 90 77 82 69 72 65 70 71 63 56 55 49 49 52 53 38 42 45 39 39 35 46 53 55 55 47 36 36 45 49 50 50 50 51
85 62 95 81 85 88 92 90 87 89 86 83 53 58 70 72 64 77 77 68 58 52 56 54 63 70 53 40 37 38 40 38 48 45 54 52 46 30 37 34 40 47 48 49 52
81 70 90 77 83 87 67 73 87 90 78 68 79 68 60 68 75 71 71 60 60 56 58 53 68 80 60 52 47 50 42 40 47 52 56 55 49 35 43 37 41 49 48 50 55
79 58 62 72 74 73 70 68 74 77 73 62 62 62 66 67 65 72 71 62 55 54 61 48 54 59 63 54 55 58 55 47 45 59 49 57 40 34 36 38 42 45 49 54 59
72 62 63 57 59 59 56 60 66 65 63 61 58 54 59 65 63 71 66 57 50 50 48 44 49 45 42 39 39 45 49 56 57 50 46 39 44 33 35 34 35 38 49 61 59
67 62 66 65 53 56 62 55 61 62 58 62 65 54 54 62 59 65 62 56 53 47 50 48 51 37 37 35 36 36 35 37 44 48 52 47 43 33 34 35 44 48 59 60 55
72 68 52 65 56 55 59 56 54 58 51 52 54 50 51 46 42 43 49 50 50 49 51 47 43 41 38 48 44 45 44 44 38 36 34 36 31 35 37 48 55 54 58 57 58

GFSSW_925_rhum_009.txt.gz
RH
79 92 95 94 92 90 90 93 95 94 89 91 88 85 93 90 87 89 98 69 67 62 60 57 53 47 45 48 36 39 51 54 41 31 28 29 36 28 25 26 25 29 33 41 40
87 90 90 91 91 90 90 95 95 96 97 87 82 84 92 90 91 96 75 72 70 78 81 53 58 50 56 48 40 46 60 52 39 27 34 37 36 31 29 30 26 25 46 51 52
86 88 90 89 89 92 93 93 95 96 90 96 92 82 84 89 84 71 50 72 65 79 97 64 50 52 56 47 44 48 54 44 39 34 39 39 37 28 28 30 26 26 26 54 61
90 90 90 89 89 91 90 92 93 86 92 93 81 90 90 87 82 59 62 58 36 73 88 83 68 58 60 58 49 50 46 42 40 37 39 40 30 32 30 28 24 26 27 54 63
88 91 90 89 81 69 88 90 85 89 93 90 88 88 93 89 76 52 60 70 60 75 87 82 60 59 64 59 52 53 48 44 43 45 43 38 37 34 32 27 26 26 28 51 64
90 90 83 94 87 92 86 91 94 90 78 83 81 82 92 92 60 55 53 66 74 77 90 79 55 50 54 54 56 48 48 45 38 38 34 34 35 31 29 27 26 24 25 42 63
90 90 79 73 93 95 92 89 86 93 74 79 90 84 90 67 56 54 49 58 72 80 88 76 56 46 50 52 48 41 42 40 39 38 37 31 36 34 28 26 28 28 26 30 39
81 90 90 86 94 89 92 92 88 88 81 84 91 90 86 62 61 59 67 64 70 86 88 70 55 54 53 44 38 36 40 47 37 33 34 32 46 35 30 25 28 29 26 31 34
97 92 89 94 93 81 74 78 88 91 90 88 88 87 79 61 64 53 55 68 66 80 91 72 59 62 54 63 58 45 54 50 42 33 31 33 40 32 26 25 27 27 31 36 39
65 82 90 95 96 97 83 82 89 92 78 83 81 90 76 76 70 61 46 61 81 74 94 92 84 85 66 68 81 58 51 50 48 34 36 35 40 32 28 21 26 33 39 42 45
72 82 88 91 97 100 93 94 91 97 85 82 83 81 67 60 62 59 56 60 77 80 91 93 95 91 82 66 55 50 44 43 42 34 34 41 39 33 31 25 32 39 42 44 46
80 82 90 94 97 99 98 88 76 70 94 78 71 70 71 65 82 70 55 69 83 86 82 99 91 72 67 52 47 44 46 51 40 35 36 35 39 35 27 28 34 41 44 45 47
85 90 97 99 98 100 92 84 84 87 86 76 72 75 72 70 70 82 61 70 81 79 83 81 80 72 65 69 60 50 50 50 43 40 34 38 44 38 28 33 38 38 42 46 51
83 92 98 99 100 94 95 84 79 92 97 89 90 73 64 71 76 65 58 67 79 83 73 84 66 78 79 66 62 74 45 43 44 44 51 38 59 42 34 40 42 45 49 51 56
82 89 100 97 99 98 97 89 98 83 100 78 84 69 67 74 85 87 91 84 74 73 83 82 77 80 86 64 44 55 37 41 42 42 43 42 52 46 37 44 46 48 49 53 57
76 84 99 100 99 94 99 97 78 99 99 93 83 85 81 85 79 94 91 93 53 67 59 57 53 63 60 47 40 36 37 45 51 52 62 50 48 46 46 36 44 46 49 54 60
72 78 92 99 94 98 93 96 100 100 86 97 92 84 79 83 91 86 91 96 77 83 80 59 57 42 35 37 36 39 47 65 64 67 67 45 52 37 31 35 37 47 50 53 59
75 91 94 100 100 97 96 98 100 92 95 85 85 81 90 77 86 80 95 95 64 58 68 66 82 40 30 38 44 47 47 65 64 72 58 46 49 35 35 38 38 43 48 52 58
84 99 99 99 98 97 97 100 95 85 80 87 89 96 95 79 84 87 95 83 59 52 60 65 55 34 29 30 35 41 51 44 53 55 64 54 45 33 48 52 52 52 52 54 56
99 95 87 83 94 99 97 95 90 71 67 70 84 90 86 83 88 87 91 71 54 46 40 48 53 40 32 28 28 37 39 50 60 62 60 54 49 46 42 52 57 58 54 53 54
93 86 99 100 93 99 98 94 83 64 70 77 72 86 68 79 80 88 83 64 59 54 51 47 47 53 38 42 44 38 39 44 50 58 57 60 50 37 33 51 56 54 51 52 55
92 75 100 100 100 96 95 94 65 67 88 87 65 61 68 67 72 79 85 69 59 58 62 52 61 63 50 44 40 39 40 40 53 48 57 58 50 36 44 45 53 53 50 52 53
87 98 97 97 93 94 96 96 88 92 86 73 60 59 64 71 83 78 75 62 60 56 60 57 68 80 63 56 51 50 44 40 50 54 60 57 48 35 45 40 41 50 51 52 57
89 78 98 98 84 78 76 94 95 89 73 70 72 66 64 68 68 79 76 63 55 55 62 51 62 60 57 59 60 60 55 48 47 62 55 58 43 33 43 42 41 46 48 55 63
82 63 67 84 74 64 62 75 90 85 76 73 71 67 64 71 68 78 68 60 51 50 48 42 50 47 46 46 52 54 58 57 52 47 48 40 50 34 33 36 33 36 44 58 65
74 68 69 70 56 57 59 60 67 67 73 80 72 67 64 61 60 71 64 59 55 49 47 46 54 39 38 40 36 35 37 60 57 52 51 50 46 38 34 36 43 49 54 62 62
78 74 56 67 59 57 61 63 60 56 54 62 56 61 64 49 45 50 52 52 53 51 52 44 45 40 38 47 42 41 46 42 38 39 39 36 30 39 50 56 52 52 58 61 61

GFSSW_925_rhum_012.txt.gz
RH
88 91 92 94 94 94 93 93 96 96 94 87 88 81 90 92 92 89 98 72 62 69 90 72 61 56 48 51 38 39 53 58 44 36 29 29 39 32 27 30 28 26 31 35 44
89 88 88 90 91 92 92 92 90 88 87 89 88 85 83 95 95 98 70 70 74 67 89 79 69 53 56 54 44 48 62 54 41 30 30 36 40 36 32 32 28 25 33 44 44
90 88 89 90 89 91 93 93 94 95 95 95 88 79 84 96 85 73 54 55 72 72 86 93 64 53 59 48 46 50 57 47 41 36 34 43 44 35 30 34 29 26 26 35 54
87 87 89 90 90 90 92 93 92 96 96 88 84 81 83 88 92 66 71 68 71 71 78 90 77 62 67 62 51 51 47 43 41 38 40 45 38 38 34 32 27 28 28 32 54
86 89 91 92 92 89 87 89 91 96 96 90 76 76 90 88 78 60 53 61 70 75 76 88 68 64 68 62 55 57 51 46 45 48 48 44 44 39 35 31 28 30 29 30 47
92 92 93 95 96 93 93 89 89 89 94 85 80 78 89 97 59 52 55 54 70 75 76 90 65 54 60 58 58 54 53 52 47 45 41 38 40 34 32 29 29 28 29 29 40
94 95 94 84 83 90 95 92 88 93 90 78 78 84 90 75 56 60 60 50 51 76 73 89 70 50 52 56 52 46 49 45 39 38 41 40 40 40 32 27 29 30 33 29 30
94 88 86 91 80 93 92 94 91 88 88 79 82 85 88 63 54 64 61 65 58 74 76 78 72 56 53 44 39 45 41 52 41 34 34 34 36 33 32 31 30 30 34 39 46
93 86 89 91 95 95 84 77 86 88 90 76 87 81 82 57 67 62 50 64 71 74 81 76 62 64 56 62 61 47 61 53 47 34 36 38 46 30 28 28 28 28 35 42 49
94 81 89 91 93 99 94 75 76 80 84 82 81 85 75 78 66 59 47 55 75 76 85 86 78 86 80 78 83 72 55 50 53 36 37 40 44 33 31 24 27 29 39 48 54
86 79 84 88 92 97 98 91 91 88 81 86 79 81 70 59 67 62 61 58 71 87 92 85 98 92 82 66 60 57 50 56 43 36 36 42 44 36 32 30 29 36 43 50 54
85 91 91 96 96 98 98 91 70 71 89 76 76 70 67 68 86 69 54 70 86 75 77 99 91 72 72 67 58 47 50 52 50 38 38 42 43 37 37 31 30 40 48 50 54
80 80 94 99 99 100 96 75 74 69 87 81 75 75 71 68 81 80 55 65 84 67 82 85 77 66 70 64 62 56 60 58 60 47 41 45 47 41 32 34 41 43 46 50 56
69 83 92 99 100 100 97 92 85 81 100 89 86 76 70 76 86 65 48 60 76 71 67 89 87 74 76 80 67 87 55 48 47 50 59 42 62 48 36 40 45 51 56 59 61
76 78 90 100 90 97 87 92 89 98 96 72 77 60 69 78 74 82 48 53 88 78 75 91 97 89 80 70 67 73 47 50 47 51 48 46 55 49 38 45 48 54 56 60 63
73 72 88 99 99 93 98 98 94 100 96 92 83 88 87 74 76 73 69 71 66 65 66 70 65 78 84 69 56 47 42 45 55 54 68 52 50 52 44 42 45 48 54 59 65
69 76 86 86 95 100 100 95 99 100 93 93 84 79 76 90 77 79 86 88 89 90 85 68 78 59 51 65 44 47 49 64 68 70 72 49 57 49 36 36 39 47 54 61 67
77 90 90 83 98 94 90 96 100 89 97 77 78 77 81 80 79 82 84 90 90 58 72 86 94 61 40 60 70 55 54 68 68 74 61 52 57 39 36 50 42 44 49 61 68
88 100 100 96 100 97 92 100 98 90 83 90 77 78 84 71 79 76 87 89 79 56 68 71 78 42 44 35 58 49 56 46 60 59 70 61 47 39 44 53 53 55 54 63 67
97 98 97 96 100 97 97 99 94 82 75 74 90 80 84 72 93 91 93 78 76 52 48 55 57 43 34 30 30 44 43 53 62 64 68 61 51 50 35 42 54 59 58 61 64
98 94 97 100 100 97 99 96 91 65 63 71 77 86 75 84 77 84 86 79 61 55 45 47 51 53 38 44 44 40 46 51 54 62 61 63 50 41 38 39 55 59 54 60 64
91 89 100 100 98 94 96 90 79 77 82 82 66 64 68 79 78 87 87 76 55 56 56 47 60 65 49 45 40 38 42 44 60 56 63 62 54 35 48 54 56 58 55 56 58
90 95 100 100 100 99 93 89 76 83 87 81 66 58 55 71 87 86 88 66 64 58 61 57 65 81 65 55 54 49 45 43 52 56 64 60 51 39 48 52 53 58 57 55 56
92 98 100 99 96 95 95 91 90 94 89 72 69 60 67 73 76 88 86 64 60 57 62 53 64 59 65 55 60 63 55 49 49 64 62 60 43 35 44 43 45 48 49 55 64
90 74 80 98 96 83 73 89 94 93 80 69 70 62 65 78 78 82 71 67 55 66 52 44 57 51 48 53 55 56 57 56 53 48 53 46 51 38 34 35 35 37 43 56 67
81 76 77 72 60 71 63 85 88 68 77 74 77 71 66 68 65 80 69 63 62 52 50 48 55 42 42 42 38 44 53 60 54 54 44 50 50 40 40 43 53 52 51 56 67
81 79 62 66 60 59 62 72 64 60 80 63 64 68 61 54 49 55 55 56 56 51 52 46 47 47 50 45 41 38 44 67 58 52 55 61 47 40 56 56 50 52 51 53 63

GFSSW_925_rhum_015.txt.gz
RH
89 88 88 90 92 95 96 91 93 97 93 91 88 87 83 92 94 94 99 65 51 60 79 83 74 66 52 53 39 40 49 53 46 39 34 26 37 33 29 29 28 24 29 30 40
91 89 88 88 89 91 94 94 93 87 86 82 81 82 81 92 95 98 76 70 70 66 79 91 74 61 58 57 46 47 58 53 42 34 31 31 40 37 35 32 29 25 25 31 39
89 91 90 90 91 90 91 95 88 93 93 90 85 86 87 95 89 76 64 58 76 75 77 86 94 57 62 53 50 51 56 50 42 37 32 39 43 38 34 38 30 26 24 26 38
87 88 86 90 90 91 92 92 96 89 92 95 90 86 86 92 90 69 71 74 76 80 74 82 90 66 70 63 50 52 47 44 42 39 42 44 41 41 36 31 28 27 28 29 26
90 89 91 92 94 92 89 88 91 93 96 94 88 82 92 95 79 66 56 54 69 78 78 80 86 64 71 62 57 56 50 48 44 46 49 47 47 42 37 31 28 30 31 29 27
94 94 95 89 86 94 94 93 88 94 96 92 90 84 88 97 59 55 59 55 52 73 80 77 78 56 62 60 57 55 51 46 49 46 45 43 41 39 33 31 29 29 28 28 29
94 95 92 78 93 89 94 94 92 90 96 96 79 88 93 77 57 58 60 64 50 61 78 77 81 54 54 62 54 54 56 49 45 40 39 42 42 44 31 33 29 28 28 33 40
94 93 85 80 88 93 96 94 95 93 91 97 86 92 89 63 56 62 57 62 62 55 72 73 82 62 54 45 46 54 47 66 48 37 35 33 45 31 31 34 32 28 32 43 48
94 91 80 66 87 90 95 91 82 93 92 91 89 86 84 58 70 56 52 61 66 74 77 73 80 70 59 56 55 52 76 60 53 41 41 39 42 34 29 29 28 26 36 42 46
89 89 87 74 82 92 98 91 74 86 89 85 85 93 79 76 67 61 55 46 67 85 80 76 94 85 74 70 82 65 66 54 53 41 41 40 42 34 31 33 30 27 40 46 50
84 84 82 82 88 90 100 89 84 88 88 82 80 78 67 60 69 65 61 62 62 86 83 81 97 95 75 71 60 55 58 58 54 38 38 41 42 34 31 33 33 33 44 48 50
81 82 83 87 96 94 100 89 70 62 89 74 73 70 66 70 81 73 58 65 84 84 75 84 96 76 68 69 57 56 56 55 50 41 39 43 41 34 35 35 31 34 46 48 51
78 81 79 87 99 100 99 82 70 70 88 78 70 77 74 66 78 74 60 64 87 69 78 85 77 65 70 74 70 62 63 62 60 50 43 45 44 40 33 33 40 41 47 49 50
70 80 80 91 99 98 99 89 94 75 100 92 85 76 74 71 77 59 56 59 84 68 59 84 86 71 73 76 70 82 56 55 54 62 67 42 56 47 36 36 44 50 52 52 55
82 74 83 87 98 97 92 98 92 92 97 82 82 60 73 69 72 78 55 54 77 65 63 90 96 78 81 74 64 74 61 59 56 57 50 49 51 43 40 39 46 51 56 58 57
77 72 82 92 99 94 98 100 94 100 95 95 84 92 88 79 74 72 65 56 79 60 55 90 90 70 67 67 63 46 47 48 50 49 62 52 47 46 39 35 47 50 55 58 59
82 80 82 82 95 95 100 93 100 99 84 96 91 88 75 88 78 74 76 78 98 84 79 88 95 94 77 65 63 56 66 98 78 65 65 53 55 42 38 35 39 44 50 58 60
88 86 86 86 88 99 94 99 99 76 91 73 78 79 84 82 79 78 80 89 88 91 62 97 97 80 68 77 83 81 69 68 70 71 59 56 56 36 34 45 44 42 47 60 62
96 95 98 89 93 98 95 100 88 82 90 82 79 81 84 78 77 82 82 78 80 80 60 83 78 62 47 54 71 77 85 48 62 62 66 59 48 37 39 47 51 52 53 61 63
94 91 93 90 98 92 99 98 89 89 88 68 68 71 83 81 82 84 88 71 73 73 57 62 64 51 38 37 41 57 49 70 60 65 69 61 53 47 36 38 55 57 55 62 64
96 100 97 98 98 93 100 98 86 72 79 70 80 87 71 76 87 84 89 78 70 74 53 50 55 56 44 48 48 56 67 57 53 61 61 58 45 40 38 39 44 55 55 59 62
94 92 99 99 97 94 97 87 82 84 69 69 66 76 79 63 80 86 89 78 61 62 54 45 59 75 56 47 45 43 49 47 58 60 62 57 49 37 48 48 51 56 54 56 59
94 95 100 97 99 97 87 90 84 83 71 83 75 61 64 73 90 84 79 63 66 65 60 52 66 79 64 52 57 50 44 44 51 53 61 56 48 38 50 55 57 57 54 54 58
95 99 100 98 96 99 94 91 92 88 89 88 68 61 72 80 76 88 84 72 70 59 59 48 61 64 70 61 61 60 52 49 43 58 57 53 41 36 42 48 56 57 55 55 57
97 89 86 97 97 97 97 92 88 95 87 88 72 62 68 93 89 86 82 70 61 70 51 48 55 53 49 50 52 56 57 53 49 43 44 44 49 40 40 44 48 47 54 58 64
91 85 82 76 68 98 96 95 88 92 88 78 74 63 66 80 76 86 75 69 65 57 55 49 57 45 45 51 53 58 59 50 46 52 49 48 49 41 43 51 54 55 52 54 64
83 84 66 61 62 73 70 84 91 89 86 69 62 68 74 59 52 59 55 57 57 54 55 51 50 54 58 45 42 50 50 62 50 56 43 52 39 48 58 58 57 58 57 60 64

GFSSW_925_rhum_021.txt.gz
RH
91 91 90 89 88 83 75 70 80 89 89 90 92 91 89 87 93 88 65 52 51 58 73 54 46 55 50 46 35 30 36 36 30 27 23 19 23 18 20 22 18 16 16 17 19
92 91 91 90 90 92 88 86 87 82 85 89 89 90 89 86 80 74 66 70 73 81 58 45 41 39 53 47 38 39 39 33 23 21 23 21 25 26 27 23 20 18 14 15 15
92 89 91 90 90 88 88 87 84 93 84 84 85 87 83 80 66 56 58 71 78 85 64 48 49 58 57 46 41 39 42 28 24 22 23 24 26 23 28 30 23 20 18 17 17
91 91 89 87 91 92 79 82 83 88 87 82 84 84 79 68 57 55 64 66 75 79 66 50 42 61 65 64 40 43 33 30 26 25 29 31 25 28 26 27 22 22 21 20 20
92 93 93 91 94 94 94 78 70 89 94 93 89 85 82 64 48 65 63 58 50 57 61 49 44 46 54 46 49 44 34 28 27 26 29 28 30 30 29 23 21 20 20 21 21
92 95 96 84 91 93 83 95 86 66 79 88 88 89 74 71 37 39 56 54 50 49 52 50 42 36 42 46 45 43 35 32 28 29 28 32 30 29 26 22 21 20 19 18 18
91 94 87 84 89 89 96 95 95 74 58 80 96 84 68 57 44 44 45 44 45 45 46 54 45 40 43 51 37 45 47 36 33 30 31 29 36 34 24 22 20 15 14 15 19
91 92 88 84 82 78 88 97 95 93 81 80 95 78 82 54 53 50 48 47 46 44 41 42 56 44 56 48 47 47 58 66 36 31 30 33 45 27 19 20 18 16 15 19 24
93 89 85 82 72 76 77 83 94 91 94 90 76 73 70 52 55 49 47 44 42 47 43 39 46 58 70 86 81 60 65 63 51 29 30 34 40 25 20 20 19 17 15 19 24
94 85 77 85 82 79 78 87 94 89 88 84 69 71 52 54 46 49 46 45 41 40 46 44 58 75 84 91 92 66 61 55 53 31 33 36 35 27 23 20 20 18 14 19 23
93 85 73 81 83 89 87 100 93 89 91 72 61 51 44 42 49 52 45 46 45 46 68 55 86 87 73 78 51 46 49 50 36 26 30 32 33 26 21 21 21 19 16 19 24
91 87 77 80 82 88 94 94 70 70 88 68 54 50 43 54 59 51 46 54 54 63 51 69 92 58 47 62 76 52 48 43 30 28 33 33 31 26 23 23 23 20 17 19 28
81 86 79 82 84 94 99 96 80 66 93 84 66 62 54 53 60 51 46 51 47 54 54 76 61 53 46 73 81 61 53 37 35 32 34 35 38 33 27 24 21 18 16 20 28
82 86 79 86 89 78 95 100 94 79 100 86 85 72 65 79 83 46 44 50 51 56 52 75 58 78 56 77 77 71 38 37 35 46 49 36 42 25 22 24 23 20 19 23 27
91 85 76 80 79 93 99 100 97 89 96 69 79 63 59 87 48 48 39 53 64 54 92 84 76 85 70 82 75 50 38 38 39 43 50 52 51 30 22 24 23 21 22 26 28
97 84 80 90 91 88 96 98 87 99 92 91 85 90 83 80 56 51 49 48 46 61 92 61 56 63 60 69 75 49 43 44 44 48 70 45 42 29 26 22 19 22 26 28 29
96 91 88 72 65 95 99 92 100 97 72 96 98 94 76 69 65 58 76 80 96 99 100 77 88 84 77 91 80 55 62 92 83 76 51 30 38 27 22 22 21 25 28 30 31
97 100 90 73 78 100 91 98 99 67 80 91 91 75 78 52 52 62 91 96 73 85 100 100 98 92 75 88 82 73 61 49 64 54 40 34 41 27 21 22 20 23 28 30 33
98 100 99 88 82 98 95 99 88 78 89 95 94 90 75 50 52 65 91 72 55 66 100 90 92 82 90 84 60 69 54 38 39 34 35 37 30 23 23 28 26 24 30 33 34
100 100 96 93 85 98 98 96 93 76 87 91 96 60 62 56 58 62 74 53 48 58 77 81 99 94 92 66 69 56 38 56 41 48 44 34 29 29 26 24 28 26 31 34 34
93 98 70 79 97 98 98 98 93 73 82 95 90 66 44 44 46 61 60 46 37 48 76 84 98 98 89 92 84 71 58 54 39 38 37 37 29 21 23 24 25 27 29 33 35
94 96 99 92 98 96 98 95 84 82 83 89 78 54 39 34 42 52 49 42 36 46 86 75 81 100 93 62 49 57 54 48 47 49 35 33 32 21 23 27 26 26 29 32 35
96 90 100 89 98 97 94 94 90 90 88 91 86 57 32 35 45 54 52 32 46 49 57 58 57 99 99 83 67 63 59 54 42 39 40 36 34 23 28 30 28 29 29 33 36
90 98 100 98 86 89 96 95 96 79 87 82 64 44 37 37 34 48 57 43 45 39 56 46 46 42 54 55 66 67 63 50 46 48 41 35 30 26 28 31 31 30 30 34 37
94 86 68 97 94 93 90 87 95 94 85 76 87 53 42 40 39 44 46 47 46 52 47 52 48 37 31 35 40 47 52 53 54 45 44 33 31 24 23 26 28 29 31 34 38
91 68 75 85 73 84 92 93 95 89 89 94 93 59 40 33 35 51 49 48 57 55 51 50 49 40 42 38 36 37 37 41 43 40 36 32 31 23 21 21 27 29 31 34 38
93 73 57 50 62 85 83 90 87 83 80 74 76 70 45 29 27 41 41 38 44 54 57 56 57 46 48 38 42 50 38 36 36 34 33 39 31 25 28 28 28 30 31 33 34

GFSSW_925_rhum_024.txt.gz
RH
90 90 90 90 90 90 89 87 83 86 91 93 92 95 93 90 90 96 76 58 63 54 41 53 47 41 52 55 46 38 53 52 40 35 31 20 22 18 19 24 22 19 18 21 22
92 91 90 91 91 90 92 89 89 83 80 88 91 90 91 88 87 78 71 67 70 62 61 46 42 35 47 54 53 51 59 50 31 27 27 22 24 25 27 28 26 23 19 15 16
94 92 90 90 89 91 90 93 92 90 87 80 85 87 83 81 75 59 57 69 73 79 74 57 45 43 62 51 53 51 60 41 31 26 24 25 28 24 29 34 29 28 26 24 22
92 92 92 90 88 93 94 89 93 92 93 86 78 78 74 76 67 63 48 56 62 72 73 62 49 51 60 62 46 55 43 38 34 29 28 32 28 31 29 31 26 25 24 25 25
90 94 95 93 92 95 92 91 88 89 95 92 84 84 79 69 53 54 47 50 55 70 68 60 57 47 58 50 53 56 45 35 31 30 29 29 35 34 32 27 25 24 25 27 25
92 93 97 90 94 96 92 82 93 91 90 94 86 85 82 76 41 38 51 52 48 44 49 55 53 42 44 45 47 46 48 43 36 30 29 33 34 34 31 26 27 26 26 23 22
95 90 89 83 84 92 82 90 84 95 93 91 87 88 71 59 40 41 40 43 44 44 41 43 46 52 39 46 39 40 55 47 45 35 34 31 38 38 30 28 28 27 22 19 19
91 89 82 87 84 86 81 74 88 87 92 92 93 79 78 55 55 53 47 44 43 42 39 40 42 50 62 51 59 60 57 74 49 46 33 37 50 36 29 28 28 25 18 20 26
87 88 82 80 86 80 70 72 79 87 91 94 84 72 64 50 58 51 48 44 41 41 41 39 38 62 59 70 87 72 82 68 62 43 38 37 46 34 29 27 28 23 21 23 30
82 91 87 76 84 84 80 76 82 91 89 88 74 70 58 50 45 48 48 45 42 39 45 51 52 74 81 78 86 78 82 61 66 51 43 44 39 35 29 27 26 25 21 25 32
78 80 90 73 82 90 92 94 88 88 95 76 68 57 43 45 41 45 44 44 43 49 65 54 73 86 74 69 65 57 59 62 48 38 45 45 39 35 30 30 30 28 25 25 33
75 73 90 72 79 90 94 95 76 76 91 76 65 58 47 46 53 45 44 53 57 71 57 65 84 58 52 57 63 67 75 71 50 38 42 41 37 34 30 29 26 26 26 26 38
82 73 90 74 86 94 96 90 83 73 96 82 74 68 58 49 64 51 47 51 55 66 65 74 62 56 50 56 62 60 76 72 79 41 35 39 46 40 30 26 26 26 26 28 37
87 80 86 87 90 79 76 80 97 90 100 89 88 74 66 72 92 58 47 53 66 68 58 60 49 52 68 61 56 71 58 63 77 56 67 43 66 42 34 31 29 30 27 34 35
88 89 86 73 81 81 99 98 99 89 97 75 77 57 64 85 66 61 52 57 81 68 57 85 69 64 67 73 61 63 56 76 72 73 70 60 63 50 34 32 31 29 27 35 35
90 94 87 88 86 94 92 97 84 98 94 90 80 85 84 84 76 56 58 51 60 72 63 68 60 74 56 52 61 61 68 85 86 68 86 56 65 51 36 31 30 28 30 35 35
90 97 89 83 75 93 94 88 100 99 67 96 95 85 78 82 80 71 68 75 88 99 97 81 83 68 75 77 60 69 90 99 100 99 89 50 55 46 26 24 25 28 36 36 38
91 98 91 79 89 93 84 97 99 54 79 88 91 85 97 68 67 62 83 95 70 77 96 89 72 89 78 91 78 87 95 92 97 91 59 38 58 41 27 25 25 30 35 38 41
93 100 100 91 93 91 92 99 80 64 86 95 96 100 97 63 53 60 68 70 65 71 98 100 98 78 62 76 74 87 99 76 52 38 51 49 34 26 32 32 29 35 38 41 43
100 100 100 94 99 94 99 94 80 68 86 91 97 90 80 60 64 82 68 56 65 60 67 83 99 86 81 83 85 85 70 71 66 59 63 54 46 42 37 39 32 38 42 42 44
99 99 85 94 100 98 97 96 79 76 84 95 96 86 65 55 53 83 77 52 56 63 71 81 93 95 96 94 95 97 85 64 52 50 61 58 45 32 31 34 35 36 39 42 44
98 98 95 100 98 97 96 84 85 90 82 90 92 82 63 44 49 55 66 49 39 67 93 80 99 100 98 81 79 68 60 57 55 65 56 46 45 28 32 30 34 33 38 40 43
97 97 100 94 98 97 84 92 94 92 89 94 94 83 53 55 45 44 47 36 47 58 76 85 96 100 100 86 92 83 56 53 52 50 57 50 48 34 38 35 31 37 41 41 46
98 96 100 98 93 83 87 97 98 87 90 84 81 72 67 65 34 48 48 46 47 38 58 78 93 99 98 87 72 76 65 59 60 64 50 43 41 40 42 41 38 38 42 43 45
98 93 81 98 96 94 88 94 96 97 91 85 87 84 68 51 40 41 51 50 56 49 60 63 86 79 71 66 62 68 65 65 67 57 54 41 36 36 40 42 41 38 42 45 47
97 92 87 85 71 82 90 94 96 92 91 92 90 72 66 48 36 40 46 50 54 54 52 50 73 53 47 62 65 65 58 60 57 54 52 49 41 26 26 34 39 41 42 45 46
95 82 75 68 76 89 84 90 87 88 84 78 79 78 75 51 28 56 33 39 48 55 65 60 66 58 58 42 42 54 46 54 52 50 50 56 39 29 33 36 37 39 41 46 48

GFSSW_925_rhum_027.txt.gz
RH
92 92 91 92 91 91 92 93 91 77 87 92 96 98 99 92 90 96 89 62 64 64 52 45 47 46 42 63 62 56 74 73 61 49 39 29 23 20 21 24 24 22 21 24 29
94 93 92 92 92 92 89 93 92 88 80 84 90 92 96 93 92 94 68 62 72 73 64 60 63 51 55 64 72 74 84 68 45 40 36 31 27 25 28 30 29 28 25 23 31
94 94 94 91 92 91 93 90 95 91 89 76 75 82 85 85 83 72 58 75 77 76 76 71 67 60 62 56 69 69 79 55 45 38 35 33 30 26 29 33 32 30 29 26 24
92 92 94 94 92 91 96 96 87 93 90 87 78 78 78 80 91 56 48 53 64 72 77 76 71 67 65 76 60 80 62 58 49 44 41 37 30 32 32 33 29 31 30 28 29
93 91 94 94 96 91 95 90 92 85 86 92 88 80 79 87 80 59 48 44 49 59 76 76 81 72 68 60 61 70 57 52 46 43 40 36 38 37 35 32 29 28 29 31 32
96 92 89 89 92 89 90 92 88 90 78 71 83 87 86 98 50 46 43 47 49 62 74 72 68 61 66 57 57 50 52 53 52 48 39 38 39 38 36 31 32 31 32 31 30
88 95 79 79 83 83 94 90 94 95 84 69 82 91 87 72 44 46 50 53 45 48 46 49 59 64 60 62 52 58 60 49 46 52 52 44 45 45 36 33 34 32 33 29 23
79 90 80 70 86 83 86 82 76 90 88 86 87 91 89 57 54 53 51 48 45 42 42 42 41 54 63 61 63 69 73 76 50 52 50 45 59 42 35 37 39 35 36 30 30
81 85 84 68 71 87 79 70 72 74 89 92 87 88 92 48 61 56 52 53 45 44 43 40 41 58 64 78 85 88 90 84 68 51 52 53 58 40 37 36 37 38 35 29 36
86 83 87 85 70 87 82 77 75 80 93 94 82 82 69 56 51 55 54 50 51 46 48 55 61 75 93 87 86 77 89 81 84 55 56 60 60 45 38 37 36 38 32 33 39
80 88 84 90 72 90 90 83 93 90 96 81 78 65 45 50 44 45 49 51 51 56 74 63 88 89 82 86 71 68 76 80 66 51 56 55 55 49 42 37 43 37 34 36 43
78 88 79 92 75 88 93 93 78 78 93 79 74 66 52 47 59 52 47 65 66 80 72 77 88 66 60 63 79 75 84 84 65 57 57 56 58 45 39 38 34 37 36 44 49
80 86 79 92 81 96 95 88 81 74 98 80 78 80 71 58 67 66 52 58 69 81 76 82 65 54 60 67 72 74 83 79 70 62 61 64 64 54 42 35 35 34 31 39 46
80 87 86 90 91 88 97 83 87 87 100 84 88 77 71 69 83 54 53 52 64 78 71 72 58 59 70 72 62 76 54 54 60 72 86 58 92 60 45 40 36 36 38 41 46
81 88 94 74 68 86 85 80 91 91 96 74 79 60 65 83 68 71 57 70 94 87 79 89 72 68 69 65 63 69 52 60 61 76 84 76 83 65 44 46 37 32 45 45 46
85 89 91 77 85 90 87 87 79 93 95 91 82 84 91 83 74 61 69 60 67 93 90 89 66 75 61 52 53 55 65 69 69 77 97 81 90 73 53 40 37 35 45 45 47
90 93 99 90 82 92 86 84 98 96 62 91 90 80 75 78 85 74 84 95 91 98 96 91 85 74 76 87 73 70 84 90 97 96 85 73 82 72 39 33 33 37 45 45 51
98 97 100 90 78 83 76 95 99 64 79 82 83 75 91 77 84 82 85 90 83 83 97 97 94 85 71 72 74 83 81 87 87 73 69 73 99 56 39 32 32 38 42 48 59
100 100 100 93 90 80 89 99 83 68 76 91 94 100 95 76 72 77 86 77 69 75 91 94 91 70 64 60 58 75 92 62 94 97 80 71 52 32 35 40 44 45 47 56 63
99 100 99 93 95 90 97 91 80 73 85 90 100 94 94 83 82 77 76 62 67 64 62 85 97 67 79 84 69 71 59 91 99 96 98 68 51 48 44 42 47 48 51 58 61
100 100 100 93 99 98 98 95 69 65 74 93 97 98 91 93 72 86 80 64 54 58 64 95 100 90 97 96 86 91 91 79 78 72 96 79 58 39 43 38 47 48 49 58 60
99 94 100 99 98 97 100 85 72 79 77 89 92 95 93 77 86 77 85 66 50 63 85 92 99 99 93 79 69 71 75 78 86 100 86 60 51 35 39 39 42 48 48 54 55
97 98 100 93 98 98 86 77 79 82 93 95 95 90 72 72 87 60 54 47 58 69 85 93 99 100 99 96 91 94 82 74 87 82 69 65 52 42 41 41 41 48 49 53 56
98 98 99 98 93 90 91 90 95 86 93 89 90 85 87 84 72 73 51 52 63 59 68 82 98 100 100 91 86 97 94 86 77 81 71 60 56 46 43 45 50 48 48 53 56
97 94 84 98 98 90 86 93 97 99 93 91 95 91 83 89 75 66 54 51 60 56 71 89 99 96 92 81 72 75 74 76 83 77 65 51 50 50 48 46 46 50 52 54 57
98 98 85 89 79 96 95 96 95 94 93 95 96 82 83 84 67 48 55 60 66 60 62 73 98 89 92 65 66 68 65 71 70 66 58 57 50 35 43 47 47 53 52 54 56
95 88 83 87 84 94 95 94 84 86 84 82 86 85 84 76 64 56 54 51 50 62 59 65 79 88 84 68 65 72 69 67 65 57 56 62 48 38 45 44 45 54 50 52 56

GFSSW_925_rhum_030.txt.gz
RH
90 92 92 92 94 94 93 96 89 76 79 90 94 100 99 99 95 98 94 64 66 68 65 53 48 55 47 58 63 61 85 84 66 57 47 35 30 24 20 25 25 24 25 24 27
91 94 92 92 94 94 95 90 96 84 77 75 88 92 98 96 95 95 72 64 62 76 70 60 67 65 60 61 69 87 96 80 56 49 46 37 30 31 30 31 30 27 26 31 36
90 94 94 95 93 93 95 90 82 85 82 80 79 86 87 87 86 80 58 77 82 78 77 70 71 67 62 59 72 83 88 64 54 46 45 45 36 30 31 36 32 31 30 27 30
85 94 94 95 95 91 93 90 82 79 85 88 79 74 76 83 63 55 52 66 77 82 80 78 75 74 68 81 68 82 71 65 61 53 54 53 36 39 34 33 28 30 30 30 32
77 94 93 96 95 88 88 90 89 90 79 87 86 74 78 93 87 55 58 45 64 77 80 84 86 80 78 65 62 74 68 59 58 59 55 50 52 46 41 33 33 32 30 32 33
76 76 90 86 92 84 80 84 86 86 82 72 85 83 87 92 49 44 57 54 48 60 77 80 83 76 80 72 68 58 58 58 56 56 57 56 52 45 40 36 37 33 33 34 33
80 80 86 83 84 79 85 90 92 89 88 80 88 87 94 77 43 48 50 58 52 55 62 73 72 72 69 72 61 62 74 62 56 49 54 54 65 60 40 37 38 36 35 36 34
79 83 83 85 75 85 87 85 73 74 86 88 86 89 90 59 52 52 45 50 49 51 45 44 43 55 62 62 71 75 74 85 54 52 52 58 76 53 40 42 41 40 40 41 37
75 80 81 84 76 82 85 80 64 72 74 96 90 83 83 51 62 51 53 55 50 45 41 42 42 57 65 82 88 85 95 84 75 50 57 64 64 51 42 45 46 44 44 40 37
73 80 86 84 78 76 89 79 73 78 88 99 82 90 74 61 52 55 51 54 55 54 52 57 62 76 94 92 85 78 86 85 81 66 56 63 65 56 49 46 44 38 37 43 39
70 74 87 84 88 80 95 85 87 93 98 86 76 74 52 54 47 53 55 57 54 58 78 67 90 92 81 88 78 75 79 88 73 60 69 66 61 51 49 53 51 46 46 41 42
72 71 83 82 92 87 92 89 77 68 90 83 78 74 58 57 64 54 51 68 72 86 76 82 89 67 66 69 83 91 92 86 66 56 58 71 73 58 48 44 46 41 44 40 50
75 73 81 80 97 96 96 83 78 71 94 79 76 78 74 65 72 66 56 65 74 83 80 88 64 58 68 73 79 80 93 84 82 65 56 53 65 62 51 48 42 38 37 43 47
80 75 84 88 97 95 86 90 84 79 98 87 87 79 73 72 83 56 51 56 68 82 78 81 65 64 68 75 72 87 68 70 68 65 90 63 83 64 55 51 47 40 44 47 48
90 80 90 89 73 93 75 79 89 93 86 68 88 63 68 78 69 71 54 59 92 85 82 87 82 77 74 69 63 74 55 59 60 61 71 69 85 70 58 55 51 44 40 42 49
86 89 92 94 78 73 72 81 89 87 93 91 81 85 92 83 76 65 71 62 76 87 91 92 68 78 66 55 55 60 66 69 70 75 97 66 76 65 64 54 47 42 42 48 51
94 98 99 86 93 78 90 86 95 96 61 92 90 88 84 84 77 79 92 95 99 100 94 95 97 82 74 77 66 61 84 96 98 96 82 53 76 58 60 54 41 36 44 51 53
99 95 98 83 81 88 76 92 98 64 84 73 72 74 85 74 74 86 91 93 87 89 94 99 90 95 81 81 82 80 78 92 93 99 62 74 86 66 50 38 36 38 42 52 62
98 99 100 93 82 80 87 99 84 69 74 76 75 88 87 75 76 87 90 89 84 87 95 96 90 73 68 65 62 84 95 63 88 82 98 82 75 56 52 46 48 52 55 61 66
98 96 98 89 88 81 95 88 76 76 78 76 88 87 87 80 95 97 91 72 70 72 65 79 95 78 69 74 69 62 62 89 95 98 98 88 72 41 48 56 59 58 62 67 72
98 99 99 100 86 95 98 98 78 78 76 87 86 95 95 88 83 89 81 65 61 64 71 70 98 88 90 99 90 97 89 75 65 78 95 98 78 40 38 47 57 58 63 72 77
96 99 100 100 98 97 100 82 67 76 77 83 83 94 95 94 95 85 86 65 53 56 90 87 100 98 89 75 71 72 74 69 76 70 70 98 74 45 41 48 47 53 62 67 70
98 97 100 90 100 98 94 76 75 81 82 89 95 91 83 92 98 79 63 53 56 62 93 93 100 98 99 99 84 81 70 62 53 80 72 89 71 45 50 52 51 58 65 66 73
98 100 99 98 90 92 89 83 89 78 78 86 93 90 92 96 78 86 72 51 56 60 77 88 100 99 96 91 89 99 84 70 61 88 69 95 85 56 50 53 60 61 64 66 72
98 96 85 90 98 90 81 83 88 97 84 87 96 95 95 95 90 90 73 66 68 66 85 92 100 100 97 94 95 78 90 83 78 68 78 61 80 62 48 51 58 58 62 67 73
99 97 85 84 85 87 87 93 91 91 93 97 99 86 94 94 81 62 61 59 65 70 86 88 100 100 99 84 94 93 82 78 82 85 92 69 59 42 51 56 64 62 62 65 69
95 86 82 86 85 92 95 84 87 80 84 79 90 95 87 88 74 69 68 64 60 70 75 86 98 100 100 77 90 99 94 88 96 84 80 74 47 47 46 49 62 63 57 60 65

GFSSW_925_rhum_033.txt.gz
RH
76 89 91 91 93 95 95 90 95 93 86 89 96 99 100 98 99 100 94 70 61 66 70 62 52 54 49 57 66 64 85 87 66 63 49 35 34 28 24 25 26 25 32 26 32
72 78 91 92 93 94 94 94 87 88 87 77 84 90 95 98 99 98 76 68 75 81 80 63 64 64 62 60 69 89 96 77 59 52 48 38 36 36 32 35 31 29 28 40 45
75 76 90 93 95 94 94 96 82 89 86 83 67 79 89 90 87 80 56 81 85 83 77 69 70 67 64 61 76 87 86 66 61 52 49 49 44 38 36 39 35 32 30 31 42
84 73 88 92 96 95 92 96 91 80 91 87 72 70 83 85 68 55 67 72 74 84 80 80 76 75 72 82 72 80 70 73 65 58 61 60 47 44 38 36 32 34 31 30 32
81 80 77 91 91 95 92 96 89 88 78 84 82 80 80 91 90 52 61 47 71 87 87 86 86 80 82 70 66 75 71 65 62 65 65 62 66 61 53 42 37 35 36 37 36
82 80 77 82 84 87 89 90 92 90 82 67 77 86 84 86 45 47 52 56 54 83 86 85 87 80 84 81 75 63 64 63 55 60 59 63 62 60 52 41 42 40 39 36 36
79 83 82 81 82 79 83 91 91 89 88 77 73 88 93 76 47 55 51 57 55 64 78 82 79 76 77 80 66 69 80 69 64 56 56 50 59 61 55 48 46 42 41 37 36
74 76 81 87 86 71 85 94 88 89 89 89 83 92 89 57 56 48 52 48 52 54 58 50 53 63 59 57 74 78 79 88 57 59 55 53 64 54 50 53 52 45 46 43 41
75 71 73 79 83 69 80 86 81 70 75 93 90 79 77 52 60 46 52 51 51 48 46 45 45 57 59 82 88 86 91 90 73 54 56 66 64 48 51 53 53 49 48 44 44
82 76 72 82 82 71 87 86 75 75 83 97 83 83 73 64 54 57 58 54 54 56 51 55 63 76 79 86 88 78 80 83 81 61 62 64 64 59 54 57 57 53 50 47 45
98 78 75 81 86 78 97 85 88 93 99 80 75 76 57 56 51 58 58 57 55 61 79 69 88 89 73 83 83 85 86 87 77 62 71 77 76 66 58 55 53 60 54 49 48
94 92 83 78 89 86 95 87 75 68 90 81 84 72 62 64 70 56 57 67 73 88 80 85 94 76 70 74 85 93 93 91 75 63 63 65 65 58 46 47 54 49 50 50 45
93 95 94 80 88 100 94 80 76 71 88 75 81 81 76 71 74 69 59 69 79 91 88 88 64 59 67 78 82 84 92 80 81 68 65 71 61 43 38 45 50 48 43 42 45
97 83 96 82 98 100 93 82 75 72 97 82 89 82 78 74 82 57 53 59 72 90 86 86 66 70 74 77 79 88 70 71 76 85 94 62 79 53 47 49 51 48 49 46 48
98 84 100 91 97 96 79 85 83 71 97 72 90 68 71 78 69 74 55 59 80 82 84 86 90 88 87 75 66 74 60 72 79 87 86 72 88 63 51 48 49 58 50 51 50
97 89 99 100 84 81 72 88 83 91 95 89 86 88 92 82 75 68 72 61 76 86 80 72 66 80 76 63 59 63 73 78 94 80 95 67 81 57 45 50 56 53 52 51 46
94 89 99 95 84 74 86 88 98 95 66 88 83 78 76 79 75 79 88 96 97 99 96 99 96 86 79 84 67 63 99 97 97 97 85 58 72 58 44 50 52 51 51 49 53
92 78 91 93 72 79 80 90 98 67 88 68 74 83 89 81 80 86 87 95 87 94 93 96 89 88 80 84 86 79 86 92 95 89 77 58 79 56 41 34 29 28 46 51 59
92 85 99 100 72 86 82 94 83 69 76 74 71 83 77 72 70 87 92 84 74 84 94 98 91 78 80 72 69 95 96 68 88 92 96 79 64 46 40 43 53 51 48 60 66
92 99 90 98 93 86 90 82 76 68 73 67 89 78 74 74 86 93 93 74 72 78 70 77 97 76 74 75 70 74 67 94 98 93 93 81 76 48 40 30 21 52 61 66 69
83 98 97 100 93 87 97 98 76 80 74 82 84 81 85 79 85 93 87 70 72 79 74 73 89 89 96 98 85 92 98 80 68 86 96 99 66 55 39 31 33 64 69 74 78
91 99 100 99 100 98 98 84 66 88 77 85 78 77 86 81 86 91 89 66 59 65 91 74 99 97 82 81 68 69 81 78 77 88 74 95 69 46 56 50 58 72 74 80 80
98 96 100 83 99 100 89 80 75 89 87 81 85 76 75 95 99 86 77 57 59 66 82 87 99 97 95 96 97 100 96 95 69 62 72 69 50 53 39 65 57 76 82 85 84
99 100 99 95 95 84 94 87 86 74 77 81 86 82 95 97 84 89 85 60 58 57 66 81 100 99 91 85 98 99 95 97 85 76 68 66 50 37 38 63 70 81 82 86 83
96 97 90 98 98 80 75 81 83 94 79 78 95 95 97 99 93 86 80 75 63 64 81 88 99 98 95 93 95 100 92 84 84 64 69 58 68 59 43 56 67 76 80 84 85
95 98 89 81 86 90 86 88 80 79 92 95 97 86 94 98 75 82 79 73 62 82 85 92 98 100 97 84 95 100 97 77 72 60 63 75 67 47 50 55 67 72 74 80 82
92 88 85 88 85 92 93 85 80 79 86 78 92 96 96 87 70 72 70 75 72 76 91 96 99 100 98 99 97 100 95 78 76 65 59 90 67 52 58 57 64 69 68 74 77

GFSSW_925_rhum_036.txt.gz
RH
78 68 80 88 91 94 96 96 94 94 95 84 86 88 93 95 99 100 90 74 66 64 67 66 53 55 52 58 70 67 86 90 72 66 52 37 36 30 28 26 28 27 32 27 35
88 73 72 86 90 94 96 96 93 94 90 72 82 94 98 97 100 100 72 70 82 84 80 67 63 65 63 61 74 89 97 78 63 57 48 43 42 40 37 42 35 31 28 41 46
90 88 67 80 91 93 95 95 94 83 80 79 70 83 92 89 75 76 62 87 89 86 85 67 68 66 66 62 76 89 89 70 66 59 57 55 51 42 41 48 39 35 35 37 51
90 89 88 71 92 96 89 94 93 81 81 86 84 74 79 83 75 61 77 73 78 85 85 80 75 71 74 78 72 80 78 79 71 62 68 67 58 65 48 46 33 38 35 34 33
79 81 86 79 82 94 93 91 94 92 80 87 90 79 78 84 86 54 58 49 76 80 80 77 85 78 81 72 68 77 77 67 62 61 68 66 72 73 68 50 47 46 41 41 40
86 76 82 80 79 86 90 86 90 91 86 75 82 82 82 67 45 49 49 54 80 88 86 84 87 80 82 85 77 69 71 69 63 58 59 64 63 62 60 55 54 48 46 43 43
98 85 79 79 82 83 93 82 86 90 84 84 87 89 90 70 52 55 54 52 54 80 90 88 77 76 81 85 68 73 85 76 71 64 62 55 65 66 50 56 58 56 50 45 42
95 97 80 76 79 83 87 93 98 88 85 88 94 92 83 55 59 55 50 51 54 58 58 61 70 76 64 59 68 79 82 95 62 64 58 58 70 53 45 47 57 60 55 50 43
96 98 87 80 78 84 81 88 92 70 67 91 97 77 82 54 56 53 54 49 52 51 52 52 47 59 60 76 75 73 94 94 76 57 59 71 70 53 52 55 64 64 60 52 48
87 97 97 82 79 85 75 93 85 72 82 91 87 84 73 62 55 60 59 49 56 55 56 56 64 79 78 77 95 86 98 84 86 64 67 73 74 60 53 54 56 60 64 59 52
82 91 92 89 86 87 93 83 88 89 88 80 80 75 61 58 56 63 61 56 57 63 80 73 88 92 76 74 70 89 94 94 80 66 79 77 72 62 56 66 70 60 57 59 55
88 90 92 99 93 92 92 85 73 64 95 81 82 79 65 67 71 62 58 68 72 89 80 84 95 76 69 72 86 91 90 78 65 68 73 69 67 55 51 52 54 53 54 56 54
92 94 94 87 100 100 90 76 68 64 82 74 82 82 75 70 76 73 63 71 79 92 94 90 67 66 75 82 85 88 93 80 73 68 65 75 64 39 34 36 41 39 40 46 50
88 92 95 94 99 100 92 80 70 56 91 79 96 85 81 73 80 59 58 66 79 90 89 91 70 73 79 83 84 85 70 76 79 87 90 71 75 44 41 40 35 36 47 52 53
94 95 96 99 99 97 88 82 67 55 98 78 90 71 73 74 71 78 57 59 76 82 84 81 90 94 90 77 72 75 66 77 79 91 95 82 92 59 48 44 42 61 60 52 53
92 94 96 92 97 91 84 73 71 86 94 92 85 91 94 83 75 72 72 62 74 78 79 74 67 76 81 70 68 64 74 80 87 96 97 70 84 56 41 36 40 49 53 53 56
98 94 98 98 98 91 84 90 98 96 67 89 86 80 73 84 81 79 88 97 95 99 99 84 92 78 75 85 74 76 97 97 97 95 84 62 76 58 40 37 43 45 55 60 60
99 95 96 88 100 98 83 94 96 72 88 73 75 77 78 67 72 85 87 91 84 91 95 92 87 90 78 79 76 86 80 92 92 93 82 61 82 53 44 36 32 30 38 50 56
98 80 86 89 100 91 92 97 79 74 74 75 79 78 86 81 77 87 89 80 61 86 98 96 91 72 82 78 70 94 96 69 91 74 94 72 75 51 40 35 38 54 42 42 62
88 89 90 86 98 91 95 85 70 66 71 70 85 80 87 83 88 90 88 74 70 76 67 75 95 74 79 80 78 81 67 97 98 95 93 84 79 62 45 40 31 26 33 56 73
87 93 89 88 97 97 99 89 74 76 65 75 80 88 75 73 77 84 83 75 71 78 74 79 88 89 92 98 83 97 98 100 79 87 92 89 54 50 52 57 62 56 29 63 76
92 98 98 100 98 100 100 81 74 87 78 81 73 76 81 77 76 83 94 70 66 79 91 75 96 96 82 58 67 62 90 80 97 93 87 88 57 44 66 63 64 67 70 82 85
97 96 99 89 99 100 90 83 79 90 86 81 84 75 73 80 97 85 77 62 66 79 88 74 98 98 84 92 78 100 96 96 84 92 81 82 55 32 31 35 74 88 94 93 86
98 100 99 97 96 91 94 86 94 74 84 78 78 70 85 96 87 92 86 69 65 65 65 70 92 94 85 70 78 100 98 98 97 96 79 74 52 34 33 48 64 86 94 94 90
97 99 91 97 99 89 76 74 91 95 80 81 92 81 76 98 93 97 93 76 67 63 69 82 99 98 94 85 87 96 100 98 98 86 90 59 55 44 47 46 56 84 95 92 88
97 99 94 80 88 94 81 93 79 91 84 87 93 70 78 97 91 88 75 74 74 83 89 87 100 100 96 83 96 99 98 100 95 92 79 62 59 40 48 60 62 86 94 93 86
90 94 96 91 95 98 92 86 81 72 84 75 78 83 91 87 85 80 73 70 80 81 87 96 100 100 92 91 100 100 99 98 95 75 70 79 56 42 55 56 65 81 86 86 81

GFSSW_925_rhum_039.txt.gz
RH
80 90 91 68 84 91 94 90 96 96 92 80 80 87 90 91 99 100 93 73 70 69 70 66 53 54 53 59 70 64 78 78 64 60 45 39 37 32 30 30 31 27 29 32 44
92 85 87 73 73 90 95 92 89 95 94 85 71 88 98 98 99 100 84 76 76 87 78 66 64 61 61 64 75 80 89 74 62 53 48 44 44 41 37 40 37 32 29 41 52
96 95 88 82 66 74 96 97 92 87 95 91 81 71 90 87 71 70 70 85 88 85 85 68 64 63 64 64 74 87 83 69 64 58 61 62 58 45 44 51 41 36 34 34 49
100 98 95 89 90 66 87 96 94 87 85 91 87 70 75 80 84 71 81 75 82 87 83 76 70 68 71 73 69 82 76 79 70 61 62 65 61 65 55 47 39 35 39 37 35
98 98 96 84 85 92 66 96 92 96 87 82 87 76 76 77 88 60 60 56 76 81 81 80 77 74 75 72 69 80 75 67 63 59 59 64 69 64 64 55 46 46 48 46 41
89 98 98 91 91 80 83 79 85 96 93 78 76 82 76 61 45 51 55 56 79 87 86 72 75 73 78 80 74 68 71 70 65 62 56 60 58 65 54 53 53 54 50 45 41
84 86 96 98 90 87 88 71 78 87 88 87 79 84 88 69 51 53 50 49 74 84 91 81 74 76 78 87 72 71 83 72 69 65 64 55 64 65 46 46 51 51 49 47 44
84 84 95 97 94 92 84 89 79 86 88 90 92 90 79 58 62 52 53 53 55 72 69 82 80 77 72 62 61 72 68 82 63 64 60 54 57 49 40 47 48 46 43 45 40
78 84 87 94 97 94 87 83 89 91 80 85 93 77 86 58 58 53 50 51 54 58 53 71 55 62 62 75 81 73 84 90 74 58 60 64 68 54 54 53 54 53 51 51 47
88 88 88 89 94 96 91 92 97 76 78 84 90 86 75 62 57 62 56 52 57 57 58 59 65 76 73 77 84 84 95 88 84 61 66 68 67 56 48 49 47 46 49 50 51
86 94 93 93 88 100 100 99 89 87 94 84 80 72 64 60 61 65 59 56 58 62 85 73 82 89 78 76 70 82 90 87 66 61 68 67 66 56 49 49 53 48 44 45 50
85 96 93 94 95 96 96 86 74 58 94 79 81 78 69 67 70 69 59 68 72 87 79 88 91 72 69 72 77 79 84 78 65 58 66 68 68 53 48 45 40 39 40 43 40
86 89 91 92 99 93 96 76 58 54 68 76 77 82 79 69 79 75 64 72 79 92 90 88 67 67 73 79 83 87 90 78 75 64 60 66 59 36 31 35 36 38 37 36 39
85 96 93 93 85 85 96 75 54 53 87 75 95 86 80 71 80 62 59 66 79 89 90 91 73 74 84 84 82 85 68 71 79 84 82 64 70 40 33 30 27 28 33 37 37
87 91 92 93 94 94 86 73 63 58 83 73 96 72 77 77 67 78 60 62 80 82 83 82 86 94 85 76 76 75 64 72 77 86 93 75 89 47 45 43 38 34 35 34 36
87 87 92 96 89 88 97 88 70 86 98 95 86 94 95 75 76 74 68 61 71 72 78 73 68 73 76 70 68 66 78 74 85 94 95 65 82 53 39 33 31 28 28 43 43
86 95 99 96 85 71 97 93 99 91 67 95 89 87 78 86 84 78 91 92 95 99 97 86 85 77 70 80 76 73 100 92 92 96 79 60 78 55 38 36 34 33 34 37 43
94 100 98 92 82 98 98 99 96 73 82 66 71 78 83 75 75 84 84 93 86 89 92 88 86 83 76 78 64 80 79 86 93 87 74 65 75 50 40 36 33 32 32 30 47
98 99 99 80 92 98 96 98 82 71 77 77 74 80 84 68 74 76 88 82 75 82 93 96 88 67 82 78 68 84 96 67 88 70 87 58 53 38 31 34 39 35 32 42 39
99 93 89 72 81 98 98 98 68 68 72 74 87 76 83 77 91 91 91 74 71 73 64 77 93 70 78 81 79 82 69 94 96 95 91 68 66 51 44 35 39 55 54 49 39
93 94 76 73 96 98 99 100 78 71 64 71 82 88 79 89 85 89 81 74 71 78 74 75 81 80 85 94 84 89 95 99 95 96 88 69 48 38 34 42 64 63 68 69 45
95 99 84 96 99 100 100 82 78 87 78 80 73 74 76 79 80 76 77 79 66 80 88 77 92 98 82 68 66 64 72 79 96 93 92 81 62 31 54 67 63 66 81 86 78
98 98 100 71 97 100 94 87 85 85 81 76 84 76 75 83 89 75 74 62 74 79 87 78 97 95 80 80 78 94 79 70 94 94 95 93 58 31 32 39 52 64 85 89 87
99 100 99 95 95 83 98 96 95 79 84 77 82 70 80 86 79 83 79 67 70 71 66 65 96 87 85 61 62 98 97 99 98 96 76 88 60 42 38 37 51 53 88 89 84
97 100 94 100 98 82 84 76 93 93 83 78 89 75 77 86 86 90 74 77 74 66 67 85 100 90 78 76 82 96 97 96 98 88 94 59 67 54 43 57 52 52 86 85 87
98 98 92 84 93 87 87 82 79 90 88 95 84 84 76 87 74 90 81 79 76 77 75 88 98 98 96 82 82 99 95 100 97 88 94 80 76 54 44 57 62 67 84 82 85
87 96 98 90 96 99 95 88 80 80 80 72 79 80 78 78 72 71 72 75 77 82 88 89 97 100 95 78 84 94 97 99 96 88 80 94 69 55 54 50 56 70 76 83 82

GFSSW_925_rhum_042.txt.gz
RH
96 95 96 93 83 70 77 92 87 96 95 96 94 92 94 92 97 100 83 67 71 70 65 62 52 47 45 42 52 46 37 32 31 29 26 27 27 20 21 22 23 19 21 26 36
99 97 96 95 87 81 72 83 86 96 86 95 90 83 85 94 99 100 80 74 75 81 65 55 48 43 41 44 48 46 44 33 27 30 31 28 30 26 29 26 24 23 23 29 38
96 100 98 92 93 84 88 86 83 94 86 86 83 74 85 84 71 65 75 90 87 84 76 61 52 44 46 45 49 48 49 33 44 38 44 43 42 34 31 31 26 24 23 27 30
86 95 100 98 94 93 88 96 88 90 90 82 82 74 73 81 54 73 81 79 81 86 76 66 54 53 51 51 44 57 47 44 45 47 51 50 41 44 35 28 25 30 29 30 29
82 88 97 98 97 93 88 96 95 90 95 77 81 75 76 58 53 66 65 59 75 82 78 70 62 55 59 50 52 53 42 44 42 50 45 40 44 42 39 33 31 32 34 33 30
82 80 89 96 98 96 96 84 95 90 91 84 72 78 63 47 46 52 58 65 77 71 72 69 66 53 57 56 54 49 53 50 47 45 43 48 41 37 34 29 28 29 31 31 29
75 82 83 86 96 98 92 89 93 87 89 84 72 81 68 48 52 57 48 55 75 72 64 64 57 59 55 62 56 54 60 45 43 41 45 42 47 43 31 28 29 29 26 26 25
75 81 86 85 95 98 100 98 82 90 90 96 89 79 65 60 62 55 55 53 71 73 71 68 65 57 55 51 50 54 53 53 41 46 41 44 41 27 28 30 33 29 26 25 26
70 84 89 91 91 94 99 100 84 88 90 95 88 73 70 62 60 54 52 45 55 56 62 72 59 52 54 55 55 51 45 52 49 46 46 49 45 34 39 35 35 29 29 30 29
72 87 87 95 95 94 91 100 95 96 94 92 83 84 66 58 54 61 59 50 48 52 57 55 51 56 51 57 49 44 55 49 49 40 44 46 45 36 35 34 34 32 30 31 31
75 89 88 93 93 92 96 100 96 91 76 59 58 59 57 57 61 59 54 52 48 50 62 58 68 71 52 50 47 53 54 58 46 42 45 41 37 33 29 29 29 28 28 27 26
85 89 85 94 94 92 98 98 71 58 81 59 69 56 63 58 62 59 55 54 57 64 61 74 79 53 49 50 57 56 58 54 45 41 45 42 40 32 29 29 28 26 22 20 19
85 89 89 95 91 81 90 96 60 51 55 74 64 66 65 60 60 64 49 53 56 69 67 66 56 52 58 62 66 60 60 54 53 45 44 48 43 29 22 21 22 22 22 21 20
85 87 85 90 81 91 85 87 86 49 94 77 76 60 67 58 65 53 47 50 62 63 64 63 50 59 63 63 57 63 48 56 59 61 65 49 52 31 25 24 22 20 20 20 21
79 93 90 90 87 82 94 93 94 75 95 67 83 62 57 58 61 72 52 52 63 64 67 71 70 73 71 63 55 61 51 54 57 66 70 59 83 32 23 28 23 20 19 18 19
91 85 85 92 89 79 84 87 97 97 86 90 87 88 87 63 64 70 67 53 50 63 67 55 53 58 54 53 55 55 61 61 60 78 85 45 62 33 17 15 18 18 18 18 17
87 96 98 92 84 77 75 97 99 95 62 93 83 87 74 76 84 72 85 88 83 95 90 68 68 58 58 66 62 67 84 77 80 89 64 35 44 39 20 24 24 22 18 18 19
87 94 99 89 92 84 90 100 96 66 67 63 71 77 87 67 77 77 82 90 65 65 70 74 73 67 65 65 67 85 66 64 69 54 33 42 53 27 21 25 24 22 19 24 25
98 98 93 95 94 82 97 98 90 56 62 67 72 80 87 75 71 74 79 73 65 69 82 74 79 58 62 60 55 64 85 56 73 57 65 38 28 21 19 20 20 21 30 31 30
100 94 83 90 91 95 98 84 86 60 56 57 73 62 77 76 70 69 71 55 56 53 49 64 89 57 62 67 63 60 50 80 88 81 65 41 36 33 26 25 24 24 32 31 35
91 88 74 69 84 98 98 100 76 56 54 60 67 71 64 68 65 70 63 60 52 58 54 63 69 72 75 82 68 80 89 77 75 75 68 67 42 23 24 22 22 37 35 37 47
94 100 74 79 99 99 100 96 65 66 64 64 57 58 60 64 69 63 63 56 52 59 71 58 77 84 74 48 45 44 58 62 92 84 87 81 62 27 28 27 40 36 32 37 53
98 99 96 84 96 100 96 91 74 70 68 64 69 60 58 62 74 60 59 52 57 58 61 62 92 86 69 72 60 76 65 59 84 86 92 87 58 29 30 38 34 33 32 36 57
96 100 97 96 86 79 97 96 91 76 71 66 68 59 61 65 63 75 70 60 59 54 58 59 78 85 73 47 52 93 86 92 99 96 71 74 58 38 30 33 30 30 34 47 60
98 100 96 100 92 74 71 74 79 81 72 65 71 61 63 73 71 76 68 66 66 65 65 68 99 79 76 65 61 72 83 94 99 94 95 59 52 41 37 39 36 33 39 58 72
100 100 95 78 72 71 73 71 66 79 66 76 65 64 59 64 57 73 65 68 70 64 74 75 88 81 95 60 64 91 80 94 96 96 97 92 80 46 42 39 39 45 53 71 75
89 90 95 83 82 78 77 67 67 61 68 60 60 68 70 61 54 51 62 65 71 73 76 80 90 95 91 63 67 82 84 96 94 88 80 97 64 47 48 53 50 53 56 57 74

GFSSW_925_rhum_045.txt.gz
RH
95 99 99 97 96 98 88 92 89 96 94 95 96 91 94 93 96 100 84 62 58 62 62 51 45 41 38 36 32 35 38 32 26 19 17 16 20 18 15 17 16 14 15 22 28
91 93 98 99 98 96 94 92 93 96 92 90 95 81 84 89 95 90 72 70 68 78 65 48 41 37 38 38 39 44 38 29 17 15 18 19 21 19 22 21 18 18 16 22 28
81 86 90 98 100 98 98 93 95 96 95 79 93 75 68 84 73 69 83 83 83 78 58 49 41 38 39 34 39 41 40 24 22 30 28 26 23 23 25 28 18 18 17 21 26
73 79 85 89 98 100 98 96 96 96 96 76 81 76 56 79 63 62 80 90 90 85 73 54 45 46 45 45 34 43 33 29 28 32 38 40 30 29 25 26 18 18 21 23 24
64 71 77 85 91 98 99 100 96 96 96 80 73 77 68 64 49 67 73 71 70 71 75 56 54 46 48 38 36 44 39 29 31 34 37 38 38 35 31 26 22 22 24 27 26
67 65 74 78 84 87 98 98 99 96 93 90 65 73 65 53 41 51 54 54 55 61 65 60 62 49 48 46 45 36 38 36 34 35 35 40 36 33 29 24 24 24 25 24 26
66 68 74 84 88 84 95 99 100 95 91 96 70 75 59 46 40 44 51 50 62 52 62 64 54 56 47 55 45 46 52 40 35 35 36 35 42 39 28 25 25 23 21 20 20
64 62 74 81 89 90 94 96 98 98 88 96 82 66 62 54 48 52 45 50 62 60 52 55 54 49 46 45 44 49 43 45 30 33 30 36 42 22 21 23 25 22 21 20 20
70 66 74 80 89 92 95 95 97 100 89 97 85 67 62 60 52 45 41 42 53 58 64 61 54 54 48 50 44 42 43 38 31 29 33 40 40 24 26 28 25 23 22 20 20
79 69 76 85 89 89 94 97 92 100 95 93 73 71 55 53 49 47 45 39 44 44 52 52 49 52 49 46 46 39 42 36 33 30 35 37 36 28 26 27 28 27 25 24 22
79 76 82 91 79 93 92 86 100 100 96 70 66 49 52 48 51 49 46 40 41 46 56 49 56 57 43 37 35 43 42 40 33 29 34 34 32 27 22 22 23 22 22 21 20
79 79 84 87 90 94 92 87 93 96 94 53 51 51 48 47 57 48 45 48 49 61 47 67 76 43 37 39 43 45 47 42 34 30 37 35 33 27 25 23 22 21 21 20 18
79 81 84 74 84 83 76 74 64 100 93 68 55 50 58 53 50 56 45 43 48 52 54 63 49 44 46 50 53 49 48 44 42 35 34 37 37 25 20 21 21 20 19 18 18
78 78 86 93 82 74 67 80 75 100 100 87 75 57 57 51 61 45 43 43 49 53 54 54 42 48 51 54 48 54 37 42 46 51 54 40 56 31 22 19 19 18 17 17 17
74 84 92 96 82 72 64 91 83 97 97 70 68 44 52 54 53 58 42 47 52 48 52 63 59 56 58 50 44 52 45 48 49 57 66 53 63 34 18 16 15 15 15 15 15
77 81 90 90 88 72 74 75 96 99 97 92 85 72 74 52 57 56 54 46 41 48 53 48 43 49 50 46 46 49 53 55 55 63 87 47 46 32 16 12 13 11 14 15 14
84 88 96 96 92 75 78 95 98 96 69 94 85 78 70 65 67 70 75 81 71 91 85 59 56 49 45 56 51 59 68 78 85 89 65 26 31 31 16 16 16 16 15 14 14
90 96 96 98 98 87 88 100 96 96 68 55 73 72 76 65 69 61 69 85 57 52 60 72 78 54 56 59 63 65 66 64 68 49 37 27 41 25 14 17 18 17 17 16 16
88 96 92 87 83 91 87 96 91 78 57 71 74 90 78 64 72 70 65 67 53 51 72 61 68 49 51 52 51 68 89 53 70 53 60 35 21 16 15 16 16 17 18 20 21
99 85 73 84 85 91 92 77 100 56 50 57 73 62 84 70 71 59 77 54 56 45 42 53 83 52 53 52 52 51 43 79 87 81 60 32 29 28 22 20 19 20 20 21 23
99 92 83 87 84 93 93 93 95 46 45 50 55 56 56 66 56 61 63 52 44 47 49 52 61 70 63 75 66 67 73 66 52 61 59 57 37 20 24 22 22 21 19 26 27
96 98 92 80 93 100 88 92 79 58 57 52 45 47 52 51 57 56 55 48 40 42 58 52 68 81 70 45 41 43 56 59 85 65 70 71 58 26 25 24 24 24 26 26 24
97 99 86 81 99 100 82 94 80 64 60 55 57 46 41 51 60 50 48 44 44 47 51 53 78 82 79 63 47 58 52 49 66 79 92 90 58 24 23 27 25 29 28 24 24
97 100 96 92 80 85 94 96 89 65 63 53 54 45 48 55 48 56 56 56 50 46 60 50 65 84 71 59 53 98 71 66 98 96 69 70 56 40 35 36 34 27 26 28 27
98 99 94 99 81 89 68 92 73 71 60 53 57 50 50 60 60 58 52 66 60 60 56 59 92 69 68 58 56 62 68 68 96 96 97 68 70 56 53 48 40 35 32 30 43
99 99 96 67 59 78 68 91 74 71 62 58 54 49 45 52 46 56 55 59 64 62 64 70 86 74 92 62 57 68 54 55 73 95 93 95 93 62 48 38 47 42 36 52 57
89 91 98 77 59 58 56 50 53 57 57 48 48 54 56 53 45 45 45 49 63 65 75 84 97 98 78 55 51 76 69 75 92 90 93 90 58 45 48 61 79 73 74 65 67

GFSSW_925_rhum_048.txt.gz
RH
77 85 92 96 98 99 97 99 90 94 94 96 95 93 84 84 96 98 82 70 71 66 50 62 48 43 39 42 35 33 50 49 40 31 25 16 17 17 16 19 17 14 16 28 34
68 73 78 90 96 99 99 97 98 96 95 96 94 93 72 80 94 85 71 70 69 69 56 50 46 40 47 45 42 49 62 53 32 23 25 23 19 20 21 22 21 20 16 25 28
68 67 68 75 86 96 98 100 99 97 96 93 92 85 65 77 76 63 74 72 80 75 70 54 43 38 49 42 44 47 59 37 27 22 33 35 32 21 26 29 24 22 19 25 27
68 68 66 68 76 86 93 98 98 99 98 96 88 79 60 82 68 68 67 76 80 75 70 59 48 48 52 48 36 49 39 37 36 30 35 40 33 37 28 29 24 23 22 24 27
69 67 66 65 70 76 82 90 98 99 97 97 79 78 66 69 60 67 67 84 88 79 75 71 52 50 54 44 39 42 37 33 31 32 34 37 43 43 39 30 26 25 25 27 27
73 71 70 66 74 82 88 86 94 99 100 92 79 76 73 62 39 54 56 52 61 72 76 71 56 48 60 49 45 36 39 39 36 34 35 38 39 40 34 28 30 28 29 28 29
79 77 72 70 72 76 86 85 94 97 100 91 90 82 62 56 38 40 49 45 52 52 66 67 57 59 53 54 44 46 55 48 44 40 40 36 46 44 34 30 31 28 26 25 26
78 77 76 71 74 76 84 88 91 96 92 96 94 75 68 51 48 47 42 43 52 50 55 60 58 56 64 46 46 56 56 68 37 36 35 39 54 35 29 32 32 30 27 25 25
74 82 83 76 76 82 88 88 91 91 95 99 92 75 68 57 51 46 39 41 48 50 53 58 56 58 50 60 64 53 57 55 43 34 32 39 47 34 27 28 32 29 27 25 23
77 84 84 80 82 89 89 83 84 88 78 100 80 85 55 57 49 46 39 40 47 59 68 68 65 68 60 66 69 50 56 45 40 39 39 44 44 34 29 27 32 34 31 28 27
83 82 82 83 78 86 91 85 79 97 98 85 83 52 51 44 47 44 40 38 42 57 68 63 72 75 58 54 46 43 45 50 36 30 35 38 37 32 28 27 27 26 27 26 27
83 83 85 86 83 85 78 81 72 98 93 83 71 47 45 47 57 50 43 50 53 66 52 62 76 48 38 38 44 43 51 52 40 31 36 40 40 33 29 27 25 24 24 23 23
82 83 83 76 80 79 76 71 78 80 98 83 81 53 52 44 54 58 44 44 55 62 60 66 52 44 48 47 53 52 55 50 47 40 39 43 46 37 27 27 26 25 23 22 23
85 84 80 82 82 71 67 81 97 81 100 97 90 62 54 50 56 45 42 44 47 57 46 54 44 44 53 55 49 58 42 43 47 54 68 49 81 41 30 27 24 25 26 26 23
82 83 84 92 92 77 68 83 88 90 96 94 91 52 55 53 56 57 44 43 54 50 54 66 53 58 58 51 45 51 46 48 51 62 70 58 77 55 26 26 19 20 23 23 22
77 81 88 90 91 79 76 88 88 95 94 100 84 76 74 57 54 54 55 45 43 46 48 52 42 49 50 44 43 49 52 56 58 68 90 66 65 56 28 22 19 17 18 18 18
80 87 96 100 90 84 78 86 99 97 98 100 96 75 65 68 67 64 71 75 79 90 88 60 60 48 46 54 50 55 59 91 98 99 91 35 57 48 26 21 21 19 16 17 15
85 84 94 92 87 88 88 100 97 79 100 78 75 73 69 68 72 70 78 82 60 56 75 79 82 61 50 56 67 69 71 94 85 86 68 45 55 35 22 18 19 18 18 19 20
88 93 89 79 91 89 90 98 76 100 85 94 77 95 76 65 73 75 79 66 57 56 68 73 74 49 51 50 52 68 86 56 76 61 84 52 28 21 17 18 18 19 21 24 24
99 94 87 82 91 89 94 74 90 96 67 67 87 69 86 74 73 68 75 56 54 50 46 56 85 53 56 52 52 58 49 84 94 94 85 53 40 36 26 27 24 23 22 23 23
99 96 88 81 82 92 95 96 94 81 57 58 59 61 56 72 59 62 64 51 44 48 47 48 60 69 64 76 74 72 78 68 67 80 90 86 52 29 32 32 34 32 29 27 27
95 100 93 73 94 100 98 80 92 85 54 45 42 47 55 53 60 53 60 50 42 44 56 50 70 94 79 54 53 55 62 66 89 82 85 97 71 32 33 29 30 34 30 30 29
98 98 82 83 94 96 83 94 92 91 59 52 49 42 41 53 66 52 51 44 44 47 58 57 84 80 71 63 49 62 58 58 64 80 85 90 67 28 30 35 35 35 36 32 30
98 98 96 94 92 76 85 99 96 68 59 49 47 41 48 52 47 55 61 52 48 46 55 51 70 90 95 74 71 91 70 64 80 98 74 75 66 51 45 51 54 53 47 40 38
98 96 95 95 98 76 83 90 85 71 57 51 54 45 48 55 53 54 63 65 56 64 51 61 90 77 76 66 60 67 73 76 88 84 95 67 69 63 70 65 60 57 64 64 43
99 99 96 91 85 75 78 95 78 67 65 53 55 47 43 52 51 54 54 60 68 64 64 64 92 82 92 65 62 77 67 66 66 70 95 94 95 74 58 47 56 67 76 80 66
85 90 99 80 82 79 77 81 65 60 56 46 49 54 57 59 50 49 51 47 54 67 68 84 90 97 86 63 60 76 65 63 83 84 90 97 78 63 67 57 80 84 82 78 70

GFSSW_925_rhum_054.txt.gz
RH
73 70 71 69 70 69 70 68 84 95 99 100 96 97 96 96 91 91 92 83 59 77 56 64 59 55 54 54 45 48 72 82 60 53 41 31 33 23 20 21 18 20 39 46 44
76 73 72 70 72 70 68 65 71 78 89 99 100 97 97 93 97 99 60 80 75 69 84 66 70 61 64 60 54 62 80 69 50 44 40 34 35 34 29 23 22 31 40 50 49
76 78 78 79 72 72 73 65 71 78 81 90 98 99 97 90 90 83 36 68 79 75 80 75 59 56 66 58 60 61 76 54 48 46 39 42 42 40 36 30 26 28 44 42 56
78 83 83 85 81 75 75 72 64 64 82 85 95 100 93 88 77 64 70 73 79 85 79 67 72 78 69 70 56 65 54 47 45 44 44 44 40 45 42 36 39 37 33 29 39
91 92 89 86 83 82 77 76 73 68 66 83 95 100 96 90 77 41 60 77 78 84 82 78 84 80 70 64 57 58 52 46 45 47 42 40 47 48 48 43 40 36 34 33 34
84 85 87 88 89 83 81 76 73 71 71 79 92 99 91 92 41 34 58 75 80 82 85 79 81 72 59 63 62 49 50 47 46 47 46 46 46 43 42 39 40 39 38 36 34
80 86 87 84 86 85 81 78 74 76 77 82 89 100 91 69 44 54 61 66 72 77 81 79 66 60 62 62 50 52 58 56 53 48 50 42 51 55 41 40 43 43 43 38 36
84 88 84 83 86 86 85 83 78 81 81 85 86 97 93 61 45 53 59 55 61 74 71 70 75 68 62 50 51 61 64 73 53 46 45 47 58 46 42 45 46 45 41 40 37
87 89 86 89 88 87 86 84 85 85 82 83 86 91 87 52 63 45 46 49 50 58 66 82 78 86 80 69 70 65 77 73 64 47 47 57 60 44 37 44 46 44 43 41 37
84 85 88 87 87 84 87 89 78 82 82 85 84 94 87 70 53 50 48 45 57 65 73 86 92 87 94 79 94 79 78 67 64 43 51 55 64 50 42 45 46 43 41 44 42
83 85 85 86 85 86 88 90 79 84 73 76 73 78 66 57 52 54 48 44 66 80 92 85 87 92 85 72 59 62 62 63 52 42 43 47 48 47 42 40 37 36 38 36 34
84 85 84 86 88 87 84 92 79 77 96 71 71 73 78 56 66 57 43 57 78 86 86 86 89 72 64 68 69 70 75 75 54 43 43 50 54 44 38 36 34 30 29 31 32
86 89 79 83 92 89 73 84 81 90 93 73 64 82 78 55 65 67 47 59 78 82 82 87 73 60 60 62 74 67 65 61 59 52 47 56 42 39 38 35 33 30 30 29 29
81 82 80 84 84 86 76 80 87 93 97 82 88 84 94 60 72 50 42 55 68 76 70 65 52 54 61 66 58 68 51 53 57 62 74 57 72 60 44 44 33 34 39 33 30
83 84 85 88 96 84 83 78 91 92 99 78 94 75 83 64 66 60 48 47 70 68 64 80 61 64 67 64 53 62 53 56 59 71 74 69 77 56 44 36 26 20 24 28 35
81 86 91 96 95 92 87 86 95 92 91 98 89 95 85 68 64 58 56 46 49 57 60 59 51 52 54 53 52 53 60 68 75 80 93 71 73 57 42 32 21 22 26 25 28
85 94 99 99 90 82 88 92 98 93 92 100 100 96 80 79 75 72 75 71 79 96 97 66 64 51 50 64 55 60 72 93 90 97 80 65 82 65 45 38 33 32 31 24 26
90 81 83 89 98 84 90 97 97 94 93 98 96 85 97 75 75 75 76 83 67 74 90 90 94 65 54 61 73 67 71 89 79 98 88 63 78 48 37 32 27 26 31 32 32
81 75 89 97 93 74 95 99 95 98 100 100 96 100 97 83 84 76 72 80 70 64 79 82 79 58 57 55 59 73 84 65 87 78 94 73 54 32 35 37 35 38 40 42 38
87 87 95 100 86 76 94 93 99 95 100 94 100 89 95 95 93 75 70 65 62 60 56 66 91 62 60 53 56 62 63 86 92 75 84 70 66 48 34 36 36 45 47 46 47
82 92 91 82 75 93 99 99 97 86 95 96 90 78 84 82 79 77 70 64 54 58 54 56 76 97 67 75 79 80 84 81 78 87 91 96 58 43 36 36 44 47 45 53 58
90 98 81 84 90 97 100 100 97 97 87 86 62 67 75 73 72 72 76 66 52 56 68 58 81 94 88 65 60 67 76 71 90 73 95 88 74 43 44 42 45 41 54 55 60
95 95 75 74 99 98 90 99 98 96 86 67 58 53 57 68 72 65 65 50 53 55 66 59 77 92 85 69 68 78 76 71 73 86 94 92 71 41 44 37 39 48 58 64 64
94 95 90 92 94 99 100 100 98 80 88 54 55 51 58 68 65 71 65 67 53 51 62 59 73 79 86 74 80 87 80 79 81 97 87 86 65 46 44 44 47 55 60 62 65
96 98 97 92 92 96 94 97 77 78 59 62 57 60 63 80 70 79 71 66 63 61 61 63 87 86 82 76 74 73 76 80 87 72 87 64 68 53 44 45 55 64 76 76 75
97 98 91 98 89 96 94 96 84 71 70 70 83 63 66 72 67 77 75 74 68 62 68 69 84 76 89 74 81 89 80 79 76 71 70 67 68 45 43 66 71 86 82 80 72
87 87 99 83 88 96 96 89 86 72 68 68 64 73 77 74 67 60 57 61 66 72 79 74 86 92 92 71 72 90 80 77 73 72 64 78 59 51 70 73 88 78 73 71 66

GFSSW_925_rhum_057.txt.gz
RH
76 72 66 76 73 72 74 70 66 64 75 80 91 99 98 91 90 95 90 74 74 62 84 74 75 74 60 60 51 54 76 86 59 58 46 33 34 28 25 25 22 22 45 45 54
77 76 80 77 81 80 74 67 69 64 75 81 88 94 100 94 94 98 64 70 78 74 82 72 72 64 72 66 59 63 83 73 54 47 42 37 38 39 34 35 24 34 48 60 69
85 87 92 90 83 84 81 76 74 64 65 66 80 92 96 98 93 68 31 54 70 80 82 69 66 64 72 64 65 66 77 56 51 46 43 46 45 39 41 38 32 36 38 42 68
74 90 89 89 87 84 86 81 78 75 68 68 69 85 98 90 74 55 79 82 70 82 77 87 70 76 76 76 62 68 59 52 50 44 46 46 41 46 44 42 37 40 37 32 38
80 82 81 85 85 86 85 84 80 76 72 72 72 77 97 91 75 47 42 76 70 81 83 88 84 82 77 72 60 65 58 51 46 48 49 43 47 52 51 43 42 40 37 36 36
90 89 87 87 87 85 87 86 79 77 74 73 75 76 97 98 58 46 33 74 73 83 89 77 81 72 75 65 68 55 55 51 47 46 47 48 49 46 44 45 45 43 40 41 38
88 88 89 92 90 85 84 85 80 81 76 75 74 82 94 82 53 50 44 73 76 85 91 77 68 73 70 68 58 53 60 57 56 52 52 47 54 61 43 41 45 42 45 43 41
73 83 86 87 88 88 88 86 81 82 81 79 78 83 94 70 61 53 74 71 72 70 71 74 71 67 64 53 56 66 64 78 54 55 50 46 58 44 46 45 49 47 44 41 44
79 83 83 86 84 83 87 86 85 83 84 86 83 82 85 66 69 57 55 52 58 79 70 70 70 84 68 68 77 67 88 81 64 50 49 58 63 45 40 47 50 49 47 45 40
82 85 84 82 83 86 89 87 80 88 86 80 81 88 75 75 59 52 46 49 57 72 83 94 90 98 90 76 91 87 76 69 67 44 52 63 71 55 49 46 52 48 46 44 41
83 82 86 87 82 89 84 74 77 74 80 81 74 68 73 64 56 59 51 48 57 85 93 93 94 93 90 78 61 67 68 66 56 44 45 50 54 45 41 44 48 47 43 41 38
84 90 89 84 78 90 85 88 78 89 97 72 76 68 64 79 78 57 50 59 72 91 89 90 96 84 78 85 84 71 75 74 60 49 46 53 57 45 39 38 37 34 33 34 34
80 80 86 85 89 86 86 80 79 98 94 69 71 63 76 86 69 73 51 60 80 92 83 82 74 64 70 78 80 76 77 67 62 53 51 61 51 43 34 35 35 34 32 32 32
76 83 82 85 85 88 86 81 84 96 99 73 84 81 89 89 77 54 46 67 84 90 80 70 57 64 68 69 68 78 53 56 58 62 75 59 69 57 41 42 39 36 35 39 37
79 81 85 87 100 90 76 85 78 95 99 78 84 88 87 88 72 67 46 58 76 69 73 89 65 71 71 66 55 64 54 59 63 75 69 70 77 54 41 34 28 28 27 31 31
80 93 100 99 96 84 88 89 91 92 95 93 82 93 99 74 65 64 61 51 58 67 62 65 52 51 54 58 52 57 60 70 80 76 89 68 66 48 40 31 29 32 33 33 33
98 92 82 91 91 87 87 95 91 95 82 99 94 100 87 76 75 77 85 72 94 99 100 69 67 53 53 66 57 60 69 89 80 94 77 71 76 61 45 42 37 37 37 41 41
86 76 91 99 96 76 84 90 95 92 98 100 96 99 98 76 80 90 77 83 67 76 92 94 93 65 54 62 72 65 66 83 66 94 85 69 84 53 38 34 31 38 41 48 52
66 77 96 100 85 74 87 95 91 99 100 100 99 96 98 87 88 90 78 76 68 62 80 83 83 60 56 58 58 76 83 64 88 80 94 74 57 33 34 39 45 47 47 52 58
72 80 96 94 80 79 91 93 100 99 100 99 99 88 96 100 99 90 74 65 64 59 56 66 94 64 60 56 60 61 64 83 93 77 75 60 66 42 37 40 47 51 50 53 59
74 91 75 76 86 92 98 98 100 97 96 88 85 85 87 85 79 74 70 66 54 63 56 64 76 96 68 71 81 82 89 84 80 85 84 89 42 47 37 41 48 49 49 56 66
90 93 71 84 89 98 99 100 98 96 81 90 61 68 78 70 68 72 70 63 55 58 64 61 80 97 84 65 62 67 74 74 86 78 97 91 73 42 45 47 42 47 51 55 63
93 94 74 77 99 99 98 98 96 96 88 77 60 58 56 65 71 67 66 52 56 57 65 58 78 95 85 68 70 75 75 70 76 84 98 95 63 44 51 45 44 42 49 60 60
94 95 89 92 92 99 100 100 93 90 90 65 59 56 61 75 69 73 72 70 58 52 60 57 74 78 86 68 81 92 85 80 82 95 88 86 69 50 44 47 41 42 78 83 72
95 94 98 98 92 94 88 80 79 79 66 66 60 63 70 77 74 82 72 68 64 68 62 64 85 82 75 74 74 76 76 88 84 79 85 70 72 55 46 46 42 75 78 74 73
96 99 91 97 86 82 84 91 80 81 80 79 81 75 74 70 67 80 73 68 66 62 69 68 88 82 88 73 80 88 80 77 83 77 78 71 72 48 43 42 66 83 74 72 67
88 90 98 84 93 87 94 90 83 76 69 71 69 75 81 82 66 62 61 66 64 71 80 72 88 90 94 74 75 87 83 81 75 74 66 79 58 45 56 69 82 76 71 64 65

GFSSW_925_rhum_060.txt.gz
RH
76 88 82 83 85 78 83 80 71 75 69 70 75 88 96 97 99 98 90 79 64 64 94 80 76 83 70 61 52 57 78 87 66 60 45 34 34 30 28 27 25 23 36 51 68
74 72 80 89 90 94 90 86 82 77 70 67 67 73 85 99 99 98 72 77 75 77 73 88 89 76 78 69 62 65 85 75 54 49 43 39 39 40 36 38 28 28 44 75 99
79 77 80 86 83 84 83 81 84 81 81 71 72 71 78 99 95 79 65 80 77 71 81 78 73 68 79 70 68 68 77 54 53 46 44 48 46 40 42 39 32 35 40 56 96
87 85 91 88 84 82 80 82 82 86 79 79 71 72 77 92 90 49 84 72 77 70 83 84 75 77 81 83 67 71 64 54 47 45 47 48 43 46 44 41 34 40 39 35 67
89 86 86 89 86 87 87 85 83 83 83 80 76 74 75 95 83 60 54 47 78 73 86 89 85 76 76 76 66 71 61 56 50 49 49 45 50 50 52 46 43 42 39 37 36
84 85 81 82 84 87 90 89 84 80 84 84 78 70 72 98 67 58 60 46 79 74 88 86 86 72 72 71 68 61 59 56 51 49 47 51 52 50 47 44 46 46 45 42 40
79 75 82 82 81 82 83 84 84 85 85 80 79 71 75 84 67 59 61 45 76 74 88 86 74 73 72 70 62 58 65 59 58 54 53 52 60 65 48 43 46 46 48 43 42
79 79 84 84 85 82 80 81 82 82 82 81 84 80 87 65 59 69 64 72 77 75 79 82 74 75 66 56 62 71 64 83 59 59 53 47 59 45 48 50 49 48 50 49 43
83 83 85 83 82 83 86 86 83 84 85 85 85 82 78 69 69 63 64 58 76 78 79 68 74 84 74 72 75 74 93 87 69 56 52 60 65 45 42 47 53 52 51 49 48
81 84 89 90 89 90 86 88 77 86 87 84 77 84 72 75 65 64 61 55 62 84 82 87 90 91 84 75 86 81 72 78 76 50 55 65 73 56 51 54 52 53 54 51 47
83 88 83 87 86 82 86 78 78 73 83 81 72 74 51 61 62 64 58 53 71 84 95 93 96 95 84 73 67 74 74 73 60 47 47 54 58 50 41 44 48 50 47 47 43
81 74 78 84 87 90 92 86 78 85 99 73 76 69 60 69 85 71 60 63 72 91 87 96 99 82 70 71 66 64 73 73 60 52 48 56 60 48 41 42 40 38 37 39 38
76 82 78 79 84 86 86 77 80 90 99 75 75 70 59 74 88 82 58 61 78 83 89 84 92 89 91 92 89 79 78 72 66 54 54 62 54 45 34 35 35 36 37 37 38
79 79 84 88 91 86 92 86 84 98 98 78 81 84 72 73 93 65 51 63 78 83 83 81 78 92 90 94 90 100 64 59 59 64 77 59 74 56 42 37 36 39 35 34 35
98 100 98 92 98 97 93 89 88 83 97 66 86 80 77 94 87 75 50 64 86 90 84 92 77 76 83 74 64 70 56 61 65 75 68 66 73 50 38 33 32 40 38 42 43
94 85 78 83 83 89 93 90 95 89 92 88 83 97 98 95 87 75 59 56 68 77 70 71 56 58 59 61 55 61 64 72 77 73 86 65 63 42 39 37 39 37 44 51 53
90 84 92 94 91 95 78 90 88 96 90 98 97 100 100 94 88 75 79 83 94 98 100 83 78 56 55 67 57 58 69 87 74 89 78 72 76 58 46 44 40 39 49 55 60
73 83 95 100 97 87 80 88 95 89 99 100 88 99 100 91 96 95 93 97 86 82 96 94 96 65 55 62 72 69 65 81 61 88 73 71 84 52 41 39 41 42 49 54 62
66 66 80 98 84 79 91 97 96 98 98 100 100 100 99 91 93 97 85 81 77 64 80 83 94 61 57 59 56 72 86 62 87 80 92 75 60 38 38 41 47 47 52 55 61
75 78 76 81 74 90 98 96 100 100 100 99 100 93 99 94 99 99 82 67 70 61 57 66 95 71 62 57 64 62 65 80 90 81 71 54 58 37 41 43 47 49 53 54 59
74 88 68 77 89 90 98 99 100 96 98 93 83 89 91 86 77 78 73 67 58 63 62 64 77 91 67 72 81 79 89 82 78 85 78 78 37 44 44 46 46 51 51 58 67
90 87 68 78 89 99 99 100 97 93 86 68 62 72 77 69 73 72 72 62 54 56 66 63 82 95 86 66 62 66 76 72 85 83 97 92 62 39 46 46 46 47 50 63 73
97 95 66 77 99 98 96 95 92 90 89 62 62 58 56 67 68 66 64 58 56 55 63 62 79 96 89 71 67 77 75 70 75 84 97 84 49 42 52 53 48 46 49 81 82
94 96 90 91 91 97 92 94 85 87 72 62 63 60 68 76 71 73 72 70 56 52 61 56 74 78 86 67 80 92 87 76 78 94 88 90 67 51 44 47 49 47 74 84 71
95 95 97 98 95 96 84 84 87 94 71 70 71 68 68 76 76 83 75 68 66 68 64 63 87 78 71 71 74 78 82 86 83 80 85 69 76 58 51 48 48 46 76 76 69
98 99 88 94 82 92 86 90 89 84 78 82 86 78 70 71 68 81 74 69 69 66 68 68 93 84 87 71 81 89 80 83 84 78 81 73 77 49 45 44 48 78 76 75 68
91 92 98 83 92 88 96 89 86 74 73 79 73 77 83 82 71 65 66 71 67 73 80 75 88 93 91 80 81 88 84 81 82 80 73 88 61 45 49 53 77 78 71 66 58

GFSSW_925_rhum_063.txt.gz
RH
91 77 77 74 82 89 90 94 92 86 82 78 69 69 72 82 95 92 97 79 70 64 91 84 82 91 71 63 54 57 70 69 57 56 42 36 34 31 28 26 26 24 31 48 70
92 93 90 85 89 86 82 81 80 82 83 83 81 70 69 80 92 91 89 88 82 74 72 79 85 87 87 70 62 62 73 66 52 48 42 39 37 38 35 37 31 29 41 89 97
88 86 87 86 85 86 86 82 80 80 86 86 84 83 72 80 86 77 56 83 85 81 78 71 84 76 86 71 67 67 68 55 52 44 42 47 45 41 41 41 35 33 39 77 92
85 90 85 87 85 84 86 83 84 88 84 83 83 82 77 78 92 55 68 81 85 84 76 85 86 84 80 82 68 73 63 53 46 48 49 52 45 46 45 39 34 41 39 42 82
84 84 83 82 78 78 82 82 84 87 84 86 87 83 80 78 81 68 71 64 60 82 77 85 84 78 74 72 69 71 62 56 49 48 49 47 50 47 48 42 41 41 41 38 40
83 87 85 81 82 83 80 79 80 79 81 85 84 83 78 91 64 66 66 61 56 82 77 83 73 68 72 74 69 62 59 55 53 50 48 52 52 52 46 43 42 44 41 41 39
80 84 84 83 85 82 82 75 76 77 79 83 84 84 80 75 52 68 68 68 70 78 78 82 75 63 69 69 63 60 70 64 54 54 52 52 56 62 44 43 42 41 39 41 38
82 84 86 87 85 84 83 82 83 83 82 83 85 83 83 64 47 49 56 64 68 71 74 80 83 74 66 60 66 71 68 81 60 53 52 46 52 45 44 47 45 44 42 44 40
83 86 88 88 88 87 88 86 84 86 83 83 81 76 90 55 70 56 75 70 69 78 79 72 87 82 74 73 75 80 89 84 66 57 54 48 58 47 45 48 46 45 44 44 43
77 87 87 80 82 86 89 86 82 74 82 88 80 85 77 63 67 60 65 67 80 84 87 82 81 85 85 79 80 86 82 83 68 55 61 66 67 57 44 46 48 47 44 43 44
70 77 79 81 78 86 90 81 74 68 79 78 76 75 62 67 56 65 68 65 70 86 95 86 95 94 80 74 61 68 68 76 69 50 49 57 59 49 42 42 41 40 39 38 38
79 81 81 79 77 78 93 89 73 73 89 75 76 72 63 65 86 74 74 69 80 94 86 98 98 80 69 73 65 64 71 74 60 51 50 56 54 45 40 42 38 36 36 37 36
90 97 96 95 94 93 92 79 82 85 97 74 75 72 60 64 90 92 67 62 71 89 86 96 94 87 88 80 81 72 70 74 65 55 54 58 52 43 34 35 35 35 34 34 34
97 95 88 77 84 93 95 92 88 97 94 71 78 81 73 78 95 78 68 63 73 86 84 95 89 89 95 95 86 94 66 63 60 66 75 58 62 51 39 38 42 44 45 44 45
99 94 96 74 82 88 83 89 90 90 92 91 92 74 71 92 91 90 62 65 88 91 84 97 94 93 97 94 88 94 81 60 64 72 66 63 63 45 36 38 42 43 47 50 52
97 95 89 87 91 97 87 94 95 89 95 92 84 97 99 99 92 92 69 68 75 80 74 86 71 84 78 83 76 65 63 66 71 70 78 64 60 39 39 39 41 41 48 53 58
95 80 90 91 98 82 87 90 94 95 94 90 91 97 100 99 95 77 78 87 95 99 100 99 92 70 62 70 56 60 70 82 75 84 66 72 74 47 41 43 40 45 48 52 61
65 66 84 88 91 84 89 88 93 95 99 97 94 100 100 94 94 82 89 97 86 86 96 94 97 78 61 69 78 67 68 78 58 71 62 70 76 45 42 40 40 42 47 54 60
63 64 66 76 72 79 97 96 98 100 99 98 94 99 100 97 95 92 91 99 92 65 85 88 97 62 62 59 59 68 77 59 86 80 82 66 57 39 42 45 44 46 50 54 59
76 77 68 74 77 94 97 95 100 98 100 100 99 95 97 100 98 88 88 84 79 64 57 71 96 72 65 58 62 61 63 77 86 75 65 49 51 42 50 45 44 47 49 53 64
74 86 64 78 86 90 98 99 100 94 95 92 87 95 86 98 85 78 80 71 61 63 59 67 76 90 67 74 78 76 84 78 73 75 61 56 33 41 46 46 47 48 49 60 76
87 84 58 68 95 99 99 98 95 92 88 85 62 71 76 70 72 75 73 65 55 54 71 64 82 95 88 66 62 63 74 68 82 82 90 86 48 36 43 50 51 47 48 74 77
98 95 62 75 99 99 87 85 89 90 80 60 63 59 61 69 70 69 68 63 54 54 62 58 80 92 85 74 68 76 73 68 73 82 94 69 43 42 50 50 46 48 48 78 76
94 94 92 92 91 97 100 94 87 76 73 65 63 61 68 77 73 71 79 70 57 63 60 56 73 76 82 65 80 92 86 74 77 87 81 84 57 45 44 46 45 47 68 72 66
95 96 95 98 95 92 88 90 90 95 72 74 70 73 66 75 75 85 74 70 70 67 64 61 86 78 67 73 74 77 85 80 81 78 79 64 72 54 49 51 50 50 71 71 66
98 97 92 93 89 90 89 91 92 88 82 84 85 83 69 76 73 82 74 71 69 68 66 69 97 82 85 72 80 88 78 83 74 74 74 72 72 48 45 44 47 73 73 71 64
92 90 99 84 93 90 96 91 91 77 79 83 77 80 85 83 74 64 66 70 67 73 79 74 86 87 89 79 83 92 84 81 82 80 70 86 64 49 48 51 78 77 71 64 58

GFSSW_925_rhum_066.txt.gz
RH
78 92 88 90 89 87 86 86 84 83 83 85 84 80 76 72 75 79 83 86 80 71 88 67 70 81 71 50 45 37 37 33 35 36 28 24 27 21 18 17 18 17 19 33 53
85 86 84 87 88 88 88 90 91 86 82 82 86 88 87 75 65 64 69 85 87 81 70 65 61 77 72 58 48 39 37 28 22 26 29 30 23 22 23 20 20 19 26 53 56
85 84 83 82 87 86 79 76 84 84 85 87 87 87 85 80 63 40 54 76 86 86 66 62 54 75 77 61 51 42 40 28 39 34 30 33 28 26 24 28 19 20 25 52 70
89 89 85 87 83 77 74 76 80 80 85 86 91 88 85 78 59 74 65 62 80 82 73 63 62 85 77 77 51 56 40 36 35 42 40 40 30 30 27 21 22 27 29 34 59
83 81 82 86 85 80 83 82 75 75 81 81 87 86 82 77 66 53 72 72 68 84 75 60 63 67 74 66 59 61 46 40 33 40 40 41 38 29 31 26 29 29 32 29 37
80 81 82 85 84 82 80 77 77 74 78 77 85 88 75 95 60 50 60 70 62 60 88 58 58 53 54 57 66 51 49 46 38 38 41 44 40 40 31 26 29 29 29 28 29
81 82 84 90 87 84 83 81 78 79 79 78 76 82 75 59 52 46 65 74 68 67 78 55 61 54 47 59 49 51 60 49 45 42 42 38 44 42 29 27 26 26 25 26 28
85 86 85 89 93 90 89 84 84 86 82 86 86 80 75 54 53 51 51 53 64 65 73 53 72 57 49 44 54 60 56 67 44 42 45 38 32 29 28 26 25 22 21 21 23
84 73 74 81 79 78 81 90 88 82 82 82 86 73 69 57 57 52 49 57 62 67 68 60 78 74 64 55 67 60 55 52 48 42 38 44 33 25 26 30 29 27 26 25 24
74 82 84 86 85 84 80 92 86 79 84 82 74 76 58 49 46 54 52 57 63 68 79 71 88 96 83 67 63 58 54 49 46 51 44 43 39 40 37 38 33 27 26 26 26
79 91 96 97 97 89 82 80 63 67 74 57 59 51 54 50 52 55 55 64 69 79 85 68 94 97 88 56 37 34 49 51 46 40 52 48 45 39 33 33 31 27 24 23 23
92 93 93 90 92 95 82 83 62 72 69 54 58 58 56 58 66 65 62 86 81 95 58 82 97 70 64 60 50 47 50 48 54 45 43 45 45 38 35 33 30 28 26 24 25
93 96 94 71 82 95 94 92 77 77 84 67 61 63 56 52 68 88 58 82 66 87 67 78 85 71 79 76 68 53 44 45 49 48 43 44 43 39 31 28 27 26 27 28 29
97 95 94 64 75 94 92 91 87 84 92 66 72 67 64 65 78 71 68 71 69 94 83 82 84 80 79 88 72 87 52 50 51 52 55 45 37 38 31 37 34 34 35 35 34
99 94 83 69 80 87 88 90 92 93 87 89 82 72 64 71 95 82 84 63 66 96 89 98 95 96 99 89 78 94 50 51 53 56 54 51 47 36 31 39 40 39 41 42 40
97 94 76 87 89 100 95 88 94 91 90 85 75 98 95 97 92 87 86 62 58 83 85 94 85 84 84 87 77 78 61 52 51 54 75 48 49 33 29 31 39 40 42 44 44
99 91 80 80 81 83 91 93 93 84 85 85 82 95 100 100 96 92 84 74 75 97 100 96 98 92 83 97 93 84 83 94 84 79 57 54 56 33 33 32 36 42 45 47 47
95 70 71 74 76 84 95 89 76 81 97 86 94 100 99 84 95 90 90 86 70 64 83 96 98 97 91 73 73 68 60 59 60 59 43 58 50 34 33 30 34 38 41 48 50
80 70 86 74 79 89 96 88 98 99 97 99 89 99 100 92 95 86 96 92 82 65 82 88 99 86 82 65 52 60 72 46 68 62 52 37 42 33 36 36 36 38 41 50 54
94 82 71 75 81 86 88 95 97 85 96 98 100 66 96 71 84 65 74 82 64 56 49 64 94 72 61 54 51 54 47 63 76 67 51 37 35 36 45 41 40 40 39 45 55
84 63 62 71 85 86 100 100 100 84 89 87 74 70 64 66 59 62 72 66 57 53 47 52 60 85 63 68 64 61 64 61 50 54 40 30 23 25 36 37 36 37 39 48 56
81 92 57 70 91 98 98 94 86 78 78 79 58 57 60 54 56 57 64 56 50 47 52 56 61 84 79 59 54 52 54 47 66 73 66 60 32 27 32 33 37 34 38 50 59
82 80 58 85 99 90 74 74 74 68 63 56 55 50 50 54 58 57 59 53 49 50 48 48 64 85 82 64 60 66 59 53 57 71 79 49 34 33 32 34 33 35 38 54 56
81 94 76 77 78 86 94 93 74 67 61 58 55 49 52 56 52 62 62 59 55 54 58 45 58 72 60 56 64 93 71 60 89 81 58 52 39 35 34 34 34 39 46 56 54
84 93 87 94 79 80 75 75 71 79 60 58 56 61 53 58 60 67 64 59 56 57 51 47 74 68 61 62 63 69 75 69 82 67 77 45 43 33 33 36 40 40 55 61 58
86 97 84 80 72 73 78 80 78 76 72 68 68 65 56 58 59 61 57 56 53 54 52 54 84 71 79 65 68 78 67 68 65 57 56 53 53 34 33 35 40 58 66 64 59
92 92 90 72 75 73 94 89 86 75 72 69 65 62 65 68 63 51 51 51 52 55 60 58 69 73 80 68 70 76 69 66 66 59 55 66 46 37 40 41 50 66 67 63 56

GFSSW_925_rhum_069.txt.gz
RH
83 88 87 84 85 88 92 92 90 89 78 85 85 89 91 85 79 64 54 68 78 74 72 54 58 75 68 55 39 28 38 38 33 28 24 17 22 19 16 16 14 13 12 30 49
89 87 87 87 86 84 85 84 76 80 86 86 88 85 85 89 72 58 46 56 75 81 67 60 45 64 76 55 47 45 41 30 23 22 22 22 22 21 20 18 15 14 15 32 43
91 89 82 82 85 87 83 75 74 76 79 84 84 87 89 85 65 47 43 47 77 84 70 48 39 52 79 58 48 45 39 27 19 27 23 26 24 18 19 19 14 15 14 27 34
90 82 81 82 78 81 83 79 79 80 80 83 84 78 89 73 67 72 68 45 63 80 69 47 40 59 68 72 49 47 36 28 24 32 34 30 23 18 20 16 14 14 19 26 40
84 82 82 82 87 85 84 80 78 77 74 75 83 81 77 64 59 49 49 56 66 70 74 64 43 46 58 50 53 50 34 32 31 36 33 29 30 21 21 20 20 24 27 23 29
84 89 87 88 90 90 87 85 81 80 74 77 77 84 68 70 38 40 48 59 66 65 70 67 40 36 44 49 56 51 42 39 34 33 36 41 31 28 23 20 22 23 24 24 23
86 87 85 77 79 89 89 87 87 86 86 86 86 77 63 53 39 40 53 63 67 73 63 69 42 36 43 50 45 49 57 47 40 34 37 36 42 39 26 23 23 23 20 20 21
76 78 81 83 85 84 85 80 84 90 90 88 87 80 71 46 45 43 40 50 58 55 68 64 56 46 41 43 45 61 54 60 48 39 36 38 38 25 26 26 24 20 18 19 19
82 80 84 92 95 94 89 84 81 90 87 79 85 73 57 48 47 43 41 42 61 58 68 65 80 70 46 70 68 61 76 51 40 35 39 43 34 20 23 24 23 19 17 16 16
86 89 95 94 94 95 96 91 81 81 74 66 75 73 48 41 40 42 41 42 76 71 74 90 83 96 70 80 94 61 55 38 39 40 38 42 40 27 26 26 24 20 18 18 18
88 95 94 92 90 94 89 84 68 66 61 52 55 45 43 42 43 43 44 47 73 91 98 89 83 92 80 59 47 32 36 35 31 39 41 38 33 32 26 31 29 23 20 19 18
93 94 92 94 77 83 85 69 63 72 63 43 46 44 40 43 51 37 49 65 77 99 76 73 84 68 70 54 53 40 33 33 32 33 44 36 36 29 30 29 28 25 20 18 17
98 94 92 95 73 71 81 97 86 78 92 56 48 52 47 46 49 51 60 63 85 97 60 62 65 55 82 76 71 68 40 34 38 42 42 37 39 35 30 28 26 26 24 22 23
96 93 93 69 77 75 78 94 89 84 90 58 62 62 52 47 58 56 70 78 70 86 55 51 72 56 74 94 86 64 33 30 37 49 46 39 29 29 28 30 28 26 26 26 27
97 96 94 80 75 78 88 94 92 87 76 83 90 69 58 73 93 72 70 80 76 89 81 97 80 81 79 91 87 78 46 38 43 44 46 50 49 33 29 35 31 30 33 33 32
94 98 82 86 74 87 88 91 88 92 82 90 74 85 86 88 96 88 84 81 70 91 73 90 75 80 82 86 88 51 50 51 50 53 78 41 41 38 33 31 33 33 34 36 36
94 98 83 86 71 88 87 92 94 82 68 83 80 96 100 99 100 97 96 96 94 100 99 97 96 90 85 97 89 76 83 98 98 92 58 40 49 30 27 26 31 34 36 40 39
88 86 80 77 88 92 96 97 79 77 93 75 82 99 100 99 100 84 64 77 69 69 96 99 99 100 92 94 96 96 97 98 72 62 46 45 53 33 26 25 32 35 38 42 42
84 71 75 77 91 93 95 96 94 93 96 100 89 95 85 76 82 65 75 74 62 53 72 95 99 95 91 78 78 95 89 47 51 42 41 36 32 31 31 30 35 35 38 45 47
80 70 61 80 89 90 86 85 86 74 91 100 97 54 76 56 55 51 54 62 54 47 44 58 96 95 92 74 54 66 53 66 78 61 47 33 30 31 35 37 34 37 38 42 47
74 60 67 79 93 74 98 100 99 74 78 88 55 53 49 48 44 49 54 56 47 46 41 47 58 87 66 88 78 59 60 55 50 51 42 32 24 25 32 33 37 36 36 41 48
74 90 70 78 85 93 80 75 78 64 69 71 53 43 45 42 46 49 53 49 44 40 45 47 57 80 71 52 49 46 48 42 66 65 58 61 36 25 29 32 31 35 37 42 51
65 65 64 73 96 80 65 61 61 56 53 49 47 43 39 44 52 48 51 45 43 44 42 43 60 83 74 58 53 60 50 43 49 76 77 47 38 25 30 31 30 32 36 44 51
69 95 61 56 62 76 84 83 60 55 49 47 44 39 40 44 40 53 55 52 50 46 56 40 50 70 61 58 58 91 59 53 86 80 49 46 33 34 33 32 29 34 37 45 51
71 86 77 83 72 68 60 57 55 61 48 45 45 46 44 47 48 57 54 52 49 51 43 40 67 61 52 52 54 64 68 61 88 65 76 38 34 30 30 29 30 37 45 52 53
90 96 81 72 60 59 67 70 65 61 61 54 52 48 42 46 53 52 48 46 45 44 44 44 75 62 80 54 56 70 58 59 60 53 47 42 43 28 26 32 36 41 54 59 55
77 86 89 65 60 62 81 81 76 64 59 58 57 50 54 60 49 41 41 41 42 46 47 47 58 66 72 60 60 72 60 57 57 50 46 58 41 35 37 37 40 48 59 59 55

GFSSW_925_rhum_072.txt.gz
RH
91 89 89 85 82 84 85 85 83 81 78 83 88 88 92 84 84 79 66 54 68 72 72 62 49 69 72 71 56 41 59 62 53 41 32 20 22 20 19 21 16 16 20 49 64
88 88 86 82 82 80 79 83 87 82 78 76 81 88 86 83 81 67 58 53 50 71 75 64 46 59 76 72 68 55 57 51 35 30 29 24 22 23 23 22 21 16 34 46 70
89 84 81 82 80 80 79 80 82 77 78 80 79 82 88 86 74 57 54 54 53 65 76 62 45 51 70 66 65 56 63 40 32 28 33 27 26 22 24 27 21 19 24 35 59
81 82 88 88 85 86 85 84 83 81 84 81 81 84 76 76 82 62 55 62 54 57 76 71 45 53 70 75 59 57 48 44 30 33 33 30 25 25 22 22 19 17 18 39 38
86 85 84 85 85 86 85 84 83 82 81 77 78 73 74 84 71 55 51 48 60 61 77 73 57 47 60 62 62 65 46 37 34 33 35 29 30 26 23 19 20 28 29 25 38
90 82 81 82 81 80 82 86 85 85 86 85 82 82 74 85 46 39 40 48 56 69 62 68 65 38 46 49 54 55 51 41 32 35 36 39 35 30 25 21 24 28 26 25 23
87 84 82 83 87 90 90 84 86 87 87 88 88 85 67 61 42 43 45 51 49 60 67 62 66 42 38 52 41 51 67 58 40 38 40 38 46 41 28 27 26 27 26 25 26
85 85 88 93 93 92 94 94 89 82 87 88 89 83 74 50 48 46 42 52 53 55 54 64 68 77 40 41 45 64 64 81 50 42 39 41 55 39 30 31 31 27 26 26 23
83 86 90 92 89 89 92 94 95 88 85 85 82 78 63 47 48 43 42 37 60 59 56 57 81 83 60 60 75 78 87 77 57 45 41 46 50 31 27 32 32 29 26 22 22
86 92 94 92 92 91 90 82 88 82 79 66 68 77 58 42 36 38 38 44 69 71 71 82 95 93 77 72 95 75 78 61 56 50 44 52 51 30 26 26 30 27 25 22 20
87 97 93 92 91 72 88 81 79 79 64 57 54 53 41 38 40 38 39 64 66 91 96 87 98 96 78 59 63 64 57 50 44 34 50 49 52 42 31 33 34 32 27 23 22
88 96 95 93 91 80 76 76 81 79 91 54 45 44 41 38 47 37 34 61 81 100 95 90 96 81 54 55 65 61 54 50 38 40 46 45 46 36 33 32 35 32 29 25 21
90 94 95 90 74 79 82 93 91 78 74 54 46 47 44 40 49 46 50 54 74 94 99 86 75 65 68 63 65 61 69 64 41 44 42 40 46 40 31 30 30 30 29 28 27
92 95 95 69 81 66 79 85 85 83 95 78 91 62 52 45 53 42 62 64 87 93 84 87 56 67 72 76 65 76 53 58 40 53 71 48 60 40 35 37 35 31 28 28 28
93 97 96 86 89 72 82 86 75 89 91 77 76 67 61 64 93 72 66 84 91 97 95 94 74 79 93 91 79 85 78 51 59 55 54 58 64 40 36 37 36 32 33 35 33
95 99 79 80 81 84 82 82 89 99 96 93 94 87 93 82 94 85 80 87 90 87 81 93 73 78 78 76 78 88 91 80 63 61 92 57 60 48 40 35 34 37 40 40 39
91 96 79 79 75 83 82 89 100 94 71 92 97 95 99 98 94 78 93 99 95 98 97 89 97 90 80 98 92 94 100 99 98 98 86 48 61 46 32 31 34 42 45 46 44
70 72 76 72 86 78 90 99 89 81 95 92 97 99 99 92 95 94 90 97 87 78 88 86 95 99 94 88 94 97 97 98 89 90 69 47 67 43 31 32 34 39 48 48 51
72 71 73 80 82 87 99 87 93 98 97 100 93 100 100 98 96 99 96 93 89 79 86 96 98 95 92 87 84 99 100 85 74 50 74 59 42 36 30 42 44 45 47 54 56
84 66 65 80 82 89 95 88 94 71 87 100 98 68 78 60 83 68 65 56 57 47 45 67 98 96 94 86 83 94 68 89 97 82 71 51 49 49 45 45 44 45 49 56 55
81 68 72 81 88 88 99 99 98 69 72 87 66 50 44 45 45 52 61 52 42 44 45 53 72 99 96 98 98 96 100 62 59 64 80 65 43 33 39 39 42 44 45 53 58
80 93 67 78 93 98 80 69 76 61 66 69 57 46 45 43 51 50 62 54 43 44 50 53 68 93 76 54 49 52 60 56 91 76 81 83 53 30 36 40 43 43 42 52 58
73 72 58 67 94 95 71 72 57 57 51 50 47 43 38 44 54 52 57 45 45 52 53 47 74 89 74 66 55 63 54 48 68 87 86 85 54 35 42 41 36 41 43 55 58
72 96 75 60 70 77 82 73 57 53 51 44 43 40 38 45 44 53 57 55 49 45 60 50 59 83 88 72 74 84 63 61 87 91 72 70 43 43 41 41 35 41 44 57 58
76 84 81 82 80 67 69 64 55 63 53 43 44 45 44 47 46 57 54 55 47 47 42 53 72 67 54 53 55 76 72 73 87 74 80 55 42 37 38 39 35 45 48 58 58
92 96 82 81 56 58 62 64 72 62 62 54 54 46 47 57 58 52 47 46 48 44 44 46 78 69 87 52 55 69 62 64 71 65 58 48 48 29 30 30 40 45 58 63 61
78 82 94 74 59 61 76 66 75 63 57 55 61 59 58 60 49 45 42 45 46 47 50 52 69 78 85 58 62 81 67 64 64 57 55 66 50 36 41 40 42 51 63 66 61

GFSSW_925_rhum_075.txt.gz
RH
88 89 86 80 81 81 79 76 78 86 87 84 78 81 88 94 90 85 84 74 56 61 80 72 58 63 74 83 72 73 82 80 72 64 53 38 42 28 20 19 18 20 62 68 64
88 81 82 84 91 87 84 83 81 80 81 77 77 78 80 90 90 78 69 66 65 57 75 77 69 70 89 88 78 79 83 64 48 47 45 36 42 44 45 24 23 58 79 68 64
82 86 84 84 85 84 84 83 84 82 82 84 84 83 85 86 80 60 56 64 64 60 57 74 73 67 93 79 84 73 69 49 41 38 35 42 58 31 39 30 23 51 86 81 75
84 90 86 82 83 83 84 85 81 81 82 82 83 83 82 77 85 59 74 58 65 62 57 77 77 76 90 88 75 74 57 50 40 36 38 36 31 32 37 24 30 26 47 78 84
88 89 86 84 83 84 85 82 82 84 86 86 86 80 74 83 72 56 65 54 62 61 60 76 90 70 84 70 70 82 60 49 43 45 44 39 34 29 26 21 32 30 39 52 70
82 86 86 87 88 93 93 93 91 83 89 89 81 77 72 93 56 46 51 51 68 65 58 72 86 69 61 66 74 63 63 58 47 54 42 42 36 32 27 23 30 31 28 28 38
81 84 84 86 89 88 89 91 93 90 89 87 85 80 81 72 49 52 47 48 54 67 64 66 79 80 46 60 54 61 80 73 63 46 46 40 46 44 32 31 34 34 31 27 26
84 86 93 93 93 91 87 86 90 90 89 84 90 85 79 53 50 48 50 55 54 57 55 54 71 84 85 48 55 64 68 90 67 46 42 45 60 43 34 33 35 34 32 30 26
83 87 93 91 95 82 90 93 92 90 84 83 82 82 77 47 55 47 45 51 59 59 59 54 74 88 72 69 77 77 94 82 67 52 46 47 52 37 35 35 40 37 32 29 28
84 85 93 94 94 85 82 85 91 79 73 77 73 76 62 47 42 41 42 55 68 66 75 77 90 97 87 77 90 77 86 82 80 57 56 56 54 41 29 34 39 38 33 30 29
86 92 93 95 93 90 58 78 79 87 85 66 63 63 45 44 38 41 57 63 70 80 100 90 96 95 81 63 63 67 77 76 67 51 58 61 57 48 40 33 38 37 32 30 28
88 94 95 95 90 83 59 86 93 92 95 59 58 56 47 43 49 44 52 69 74 93 97 96 96 83 69 58 67 71 73 70 51 48 57 62 59 50 42 41 36 36 35 32 27
92 95 95 96 73 78 74 91 81 79 88 60 51 49 50 43 52 53 48 72 76 97 100 100 89 84 68 67 74 79 84 74 58 50 47 56 60 56 44 38 37 34 33 30 28
94 96 96 89 81 69 85 81 74 73 96 86 83 71 61 46 64 55 53 65 83 90 92 98 67 76 74 74 68 87 61 62 64 63 93 50 79 53 45 41 36 36 36 31 28
92 97 92 86 82 80 82 83 67 81 94 99 82 63 65 65 80 78 68 80 79 92 95 82 80 95 90 74 68 82 80 78 71 84 60 62 65 55 42 44 36 41 35 32 36
98 97 66 78 82 84 78 81 83 93 94 100 96 94 91 79 92 80 81 81 80 95 95 91 75 81 79 82 82 79 85 85 81 90 99 74 69 58 55 41 39 34 42 45 48
98 70 65 76 79 82 79 91 91 94 71 95 99 94 100 100 97 82 94 100 99 99 99 97 98 88 78 95 85 84 94 99 99 99 92 67 70 50 39 36 35 45 50 48 48
74 69 77 75 77 74 88 91 93 81 89 78 83 94 100 86 97 89 100 98 100 97 100 98 98 98 89 84 86 95 96 97 92 96 80 57 80 56 39 36 42 44 52 53 60
70 70 76 83 78 86 94 95 98 93 89 99 88 100 100 86 82 99 100 97 85 79 87 94 100 93 86 82 79 95 99 94 89 62 78 66 47 37 43 55 54 56 54 64 67
79 72 72 76 83 88 93 93 98 74 86 98 99 75 96 98 96 96 88 68 63 58 60 86 95 93 88 83 85 94 74 98 99 95 84 68 60 58 45 62 60 61 60 66 66
81 85 69 78 87 93 98 92 93 77 82 92 84 74 58 70 67 72 68 55 48 46 50 69 81 99 94 95 92 99 100 92 81 98 86 78 55 40 40 53 56 55 60 64 66
85 93 64 81 92 97 94 79 66 69 70 75 81 63 55 53 63 69 72 59 49 50 59 58 79 99 94 77 72 75 90 73 91 93 84 90 60 33 42 51 48 51 56 65 65
92 89 61 68 95 79 74 71 68 61 62 55 54 48 44 51 67 62 61 53 53 55 57 53 78 93 87 70 60 69 71 67 67 82 85 84 61 44 47 51 50 53 62 66 65
90 95 87 84 75 76 84 80 68 60 62 50 50 49 48 53 54 62 64 57 51 46 59 51 70 76 85 70 76 84 69 66 74 84 80 76 55 50 45 45 43 48 56 68 64
92 93 85 98 87 75 69 67 71 68 59 57 51 57 55 53 55 63 58 60 49 44 43 56 74 65 59 59 70 78 74 78 78 68 74 55 48 49 44 43 41 43 53 69 65
94 96 90 94 86 63 70 71 69 66 66 72 78 72 66 73 68 67 51 53 53 47 47 57 79 70 86 56 59 70 70 76 68 62 64 60 53 35 36 38 40 54 62 69 66
80 83 95 83 81 66 72 72 72 74 65 60 66 75 68 64 64 60 46 52 49 51 57 61 74 85 88 62 65 81 74 74 75 67 61 67 51 38 38 39 52 62 69 70 68

GFSSW_925_rhum_078.txt.gz
RH
70 88 84 84 84 88 89 86 82 81 82 85 81 81 81 87 91 90 85 71 59 42 61 70 73 60 72 81 77 71 93 77 73 61 53 39 40 33 41 41 24 38 70 68 68
82 84 91 86 83 83 84 86 84 83 82 82 82 80 80 83 92 92 77 72 72 69 63 67 80 71 86 80 79 86 93 78 57 51 50 55 58 67 52 47 43 83 82 78 77
85 89 90 87 84 82 83 84 86 85 82 84 84 86 86 84 85 68 58 70 72 69 68 62 77 76 90 86 84 81 81 55 48 46 41 72 74 56 54 58 41 76 85 86 87
80 85 87 85 84 86 92 92 90 87 83 88 86 84 86 78 86 62 83 74 76 79 69 64 78 89 92 89 82 88 66 55 48 47 61 69 51 72 58 51 35 39 80 87 90
79 80 86 83 85 89 92 92 92 91 85 91 77 83 76 88 84 57 63 61 58 69 69 69 86 81 92 82 75 87 72 58 51 48 47 53 54 46 52 37 31 34 82 85 88
84 86 86 91 91 92 90 85 85 92 80 80 74 76 72 88 54 54 50 62 61 84 67 66 82 69 70 74 81 67 70 65 51 53 45 44 43 36 40 44 30 35 58 85 84
83 82 83 90 90 92 87 87 86 84 84 90 73 78 81 74 51 53 53 61 63 75 66 61 66 76 66 72 59 67 76 71 67 56 52 44 51 47 32 33 31 32 40 37 58
86 84 82 88 93 90 88 88 93 84 78 76 75 79 85 50 50 53 52 65 71 73 76 60 80 83 87 59 65 74 76 85 62 56 48 44 56 45 37 34 33 33 34 33 32
87 86 93 89 95 89 88 87 91 80 78 76 78 80 81 54 59 49 52 59 71 85 77 55 81 81 86 77 78 82 94 87 72 58 49 51 57 40 37 39 36 35 36 33 29
88 87 95 95 95 85 81 75 80 76 79 76 74 78 55 52 44 52 50 59 67 71 77 74 89 91 87 88 88 85 74 83 84 63 57 55 54 41 34 40 41 39 39 37 34
91 93 95 95 96 88 67 76 74 76 78 79 72 69 52 46 40 52 62 63 64 76 100 86 96 99 90 72 62 73 77 76 73 58 63 65 56 48 41 38 38 40 41 38 31
93 96 94 94 94 67 68 87 88 81 84 61 64 64 55 44 51 50 53 64 71 95 100 94 96 86 72 66 67 65 78 82 62 57 66 65 61 53 46 43 39 37 37 35 28
95 96 94 95 79 72 79 82 75 84 83 64 57 56 59 46 52 51 53 66 79 96 96 98 73 67 87 73 75 80 79 77 62 55 60 64 70 61 53 47 42 37 35 34 34
96 97 96 94 78 76 80 83 76 66 90 93 75 70 60 48 65 62 56 66 82 91 89 96 68 84 94 79 66 90 76 69 74 70 90 57 90 64 53 52 47 43 40 39 33
97 97 90 89 77 78 79 82 78 75 90 99 88 71 68 66 76 84 76 66 80 87 85 75 82 94 99 76 65 81 73 70 79 89 64 64 74 63 44 56 49 41 37 40 36
98 71 68 85 80 79 80 83 83 81 90 99 97 94 82 80 87 84 86 82 80 84 80 79 74 84 84 88 74 82 82 83 87 96 99 79 79 75 50 41 41 40 38 39 48
79 67 71 79 79 77 83 85 85 96 69 95 100 100 100 100 99 88 87 98 94 99 98 96 94 93 88 95 83 83 95 97 99 99 94 75 74 60 44 40 40 41 44 52 57
64 67 74 77 82 80 86 87 95 80 87 72 100 100 100 95 100 94 97 99 96 98 98 98 98 98 92 86 94 92 80 92 90 96 83 69 85 60 39 41 39 42 49 53 59
66 68 74 76 85 85 91 97 92 91 81 100 96 99 92 96 96 100 100 97 85 95 100 97 100 93 84 83 74 96 100 88 87 69 88 78 63 43 52 58 62 62 61 63 65
69 71 73 77 86 88 90 95 96 77 83 96 95 87 97 98 100 100 100 76 76 87 74 80 98 88 94 79 88 85 82 99 99 96 89 74 65 61 60 71 66 68 75 75 70
75 86 68 80 87 88 95 91 93 77 82 94 88 82 61 72 85 81 74 62 55 52 60 75 78 97 87 94 96 99 98 91 83 95 93 87 65 44 50 61 69 74 76 77 71
82 90 70 83 85 94 93 75 71 70 80 82 84 87 58 55 70 72 79 64 54 51 63 62 77 93 83 76 63 78 82 82 93 98 92 87 68 41 42 59 62 68 73 74 69
91 90 64 83 92 90 67 72 69 66 61 60 62 51 50 55 67 66 61 51 52 52 55 57 83 98 99 94 84 99 87 73 75 83 86 85 64 45 54 56 53 59 72 75 75
90 87 86 88 82 75 79 73 67 59 66 63 58 55 54 56 61 66 64 57 54 45 54 55 74 74 85 67 82 87 89 90 78 87 76 81 51 50 54 55 57 63 70 75 76
94 92 87 97 88 84 70 67 64 69 58 64 59 74 73 59 60 64 60 60 50 47 46 52 73 67 62 72 71 74 78 81 77 64 76 55 58 50 48 52 52 57 70 74 72
92 97 88 98 90 93 74 70 68 67 72 75 77 76 67 71 68 68 61 58 56 48 51 65 84 67 84 58 62 71 75 78 70 60 62 63 60 40 41 38 43 49 62 73 70
85 84 92 85 90 87 81 72 74 68 70 67 69 78 74 64 63 66 66 58 51 53 61 65 79 83 88 65 68 81 75 82 76 67 60 67 51 40 43 41 42 50 56 66 71

GFSSW_925_rhum_081.txt.gz
RH
75 89 92 92 90 85 82 84 86 84 84 82 82 86 83 82 86 90 94 76 71 56 63 61 68 65 72 84 76 75 96 80 75 64 53 41 40 34 47 47 46 38 76 76 80
70 89 89 89 88 84 81 84 89 89 88 84 82 84 84 86 87 92 83 74 77 71 75 66 72 74 90 86 83 88 87 84 60 54 53 62 50 42 54 60 50 47 84 97 100
79 76 80 85 83 83 85 90 94 90 90 88 89 88 79 84 81 73 64 69 73 65 73 72 66 79 94 82 84 85 78 59 54 61 62 67 62 61 59 65 51 48 57 95 100
84 83 86 86 87 85 88 90 92 88 79 82 88 82 87 78 83 67 79 78 78 79 84 74 68 91 93 91 79 86 74 59 50 66 66 66 55 73 65 61 51 49 43 66 97
89 82 85 84 89 91 91 87 83 86 89 83 80 75 77 88 85 53 71 66 61 78 85 78 79 82 93 84 76 79 72 66 56 62 65 56 60 57 65 53 55 50 39 75 96
85 84 83 84 87 92 87 83 83 86 91 81 83 78 74 94 51 58 58 66 64 71 83 74 74 68 80 75 75 67 65 66 60 54 52 55 53 54 49 73 63 62 42 84 94
80 87 85 92 88 94 86 84 86 91 84 80 82 79 78 72 50 57 66 69 68 72 92 72 67 73 76 76 62 72 82 76 70 62 55 46 52 55 46 80 70 63 41 56 89
84 87 86 95 95 93 88 86 92 81 80 71 86 77 80 51 53 50 62 82 70 59 89 81 64 74 82 64 68 70 73 90 70 68 57 49 62 48 58 76 81 68 51 38 52
83 89 90 96 96 94 86 86 90 77 86 91 83 76 68 53 57 53 55 78 93 71 79 76 74 80 81 87 90 84 95 90 70 67 53 56 58 44 42 56 57 51 42 34 33
89 92 88 96 96 95 72 71 74 78 79 72 77 70 54 56 48 54 57 68 73 79 86 80 86 95 93 88 88 82 92 87 80 73 58 63 55 44 44 43 40 36 35 37 36
90 93 95 85 96 82 68 70 69 72 71 80 80 69 57 47 47 60 60 59 65 75 100 88 92 97 97 76 63 78 73 84 76 60 65 67 57 51 42 41 42 41 44 38 37
91 91 85 90 94 62 68 83 86 76 71 59 68 66 59 47 53 57 60 61 69 93 99 99 95 86 80 71 68 68 80 82 67 63 66 71 72 54 47 45 40 36 39 39 38
96 94 87 97 88 69 72 82 84 85 80 63 60 64 66 52 53 53 57 64 78 94 95 81 77 82 93 79 78 78 71 84 67 64 64 63 73 63 51 51 46 41 36 38 40
98 98 96 88 83 77 78 76 76 82 89 89 77 70 63 50 68 71 65 66 78 92 85 82 68 95 98 82 75 86 66 67 70 73 87 65 94 67 52 52 52 46 47 43 40
100 99 77 80 81 76 81 85 78 71 90 98 90 72 72 63 75 75 74 62 79 87 82 74 77 88 100 88 70 82 71 73 81 82 71 70 81 74 49 60 50 46 43 44 40
100 98 73 78 80 82 77 81 80 82 89 99 96 91 82 81 82 85 83 76 85 83 82 87 77 78 86 87 74 80 81 88 86 92 95 79 84 84 62 47 45 47 48 45 40
91 75 78 79 79 80 82 78 84 95 75 96 100 100 99 93 94 90 87 94 85 98 96 99 87 90 85 98 84 81 89 98 98 99 92 77 86 67 54 41 39 37 45 46 48
62 70 77 78 80 78 88 84 91 79 89 92 99 100 100 98 99 91 88 98 90 94 97 98 99 97 91 92 92 85 82 92 90 92 91 77 92 68 51 46 42 42 43 54 64
66 70 76 82 85 85 89 97 91 88 82 100 97 100 100 100 97 99 98 89 85 88 99 97 99 94 93 87 77 98 94 80 86 75 90 82 72 50 45 52 50 56 63 67 69
68 73 76 80 88 88 89 93 96 78 82 90 92 87 92 100 100 100 100 84 89 83 82 77 100 89 95 80 83 81 84 91 98 98 91 75 73 66 50 56 65 69 68 72 76
77 84 79 85 90 89 91 89 88 78 80 92 89 91 69 73 98 97 95 83 79 87 77 72 79 98 87 98 95 94 97 91 85 95 93 91 64 53 48 55 69 74 80 82 82
81 84 80 90 86 96 90 71 71 74 84 86 87 90 72 59 71 79 87 83 62 69 86 69 83 98 96 82 71 73 81 86 94 97 89 89 70 43 47 54 72 80 81 83 78
90 91 68 70 88 92 71 69 74 73 71 75 73 75 56 58 67 67 68 61 56 52 65 68 85 98 92 83 85 89 78 69 77 87 97 86 69 45 54 64 72 82 83 80 80
89 88 83 88 87 84 85 80 69 66 69 65 69 62 66 54 60 67 66 68 55 46 54 56 76 75 84 66 87 100 95 84 83 92 82 87 65 45 53 63 65 71 76 80 79
95 97 88 92 90 94 90 79 75 72 61 64 71 76 75 72 64 65 61 59 51 47 55 54 78 73 66 73 73 79 84 94 91 79 81 62 63 44 52 60 62 65 76 78 84
91 94 92 96 94 93 84 80 76 73 75 75 79 77 74 72 68 68 64 59 57 49 54 64 85 68 82 63 68 73 76 88 88 81 75 65 65 46 44 52 58 68 81 77 74
90 83 86 83 92 86 86 72 72 65 85 74 82 81 82 71 62 62 65 69 62 56 64 67 82 78 78 68 68 74 75 83 76 69 66 70 53 42 47 46 54 60 73 74 74

GFSSW_925_rhum_084.txt.gz
RH
76 73 81 83 86 85 84 83 85 93 91 87 85 83 86 84 85 83 87 77 73 71 76 72 67 68 73 77 80 80 93 76 77 72 60 40 41 40 47 48 45 43 58 71 80
78 77 83 86 83 83 83 85 90 93 93 91 86 90 87 83 79 85 61 76 76 77 82 81 68 75 87 86 78 86 88 82 60 57 53 48 45 40 45 52 50 44 45 76 99
83 82 84 85 86 88 90 90 89 90 90 83 80 82 74 84 74 68 83 71 73 74 79 82 80 78 92 87 84 84 92 66 57 54 57 60 59 56 60 57 52 47 56 50 69
82 85 81 84 81 86 91 87 80 79 81 90 86 76 87 73 75 59 79 77 72 79 74 76 80 88 93 91 82 92 74 60 55 61 68 62 64 67 60 40 56 55 51 47 52
84 86 85 84 84 86 90 84 78 81 86 87 75 73 76 86 80 51 67 75 68 64 93 82 84 86 90 85 80 81 74 68 59 63 65 58 62 58 64 51 60 57 59 56 51
80 89 86 88 93 91 89 82 82 83 93 82 71 84 75 86 52 62 60 51 68 70 92 86 75 77 85 81 82 76 73 68 65 58 60 59 60 54 50 58 59 59 59 62 53
85 87 87 92 95 94 88 85 89 91 90 83 79 82 75 70 53 68 65 64 61 56 78 85 80 72 84 78 67 71 76 69 72 64 58 49 58 69 56 72 58 59 60 65 53
87 88 92 94 96 94 87 93 94 83 79 78 91 75 79 53 58 61 65 70 62 66 71 88 88 81 89 67 68 82 77 84 72 71 59 52 72 56 77 75 72 48 58 64 57
89 91 94 95 96 95 74 89 91 88 90 89 78 76 64 53 57 59 59 72 72 79 89 85 83 83 84 89 86 77 94 86 75 71 61 60 65 50 78 76 80 52 63 64 44
90 93 96 79 96 92 61 76 78 75 72 73 77 66 55 59 54 60 62 68 75 69 78 93 90 87 95 97 86 89 95 71 74 79 64 69 60 50 80 74 82 73 75 65 38
87 93 87 82 95 69 66 66 68 67 67 80 81 68 56 49 49 64 65 61 72 74 100 100 90 90 90 91 64 72 86 82 73 64 67 73 64 58 60 75 74 82 85 71 41
96 90 86 84 90 59 66 81 84 75 68 58 70 68 60 54 52 54 62 64 68 93 96 99 88 69 72 85 78 63 75 82 74 66 66 78 73 62 53 56 49 62 64 51 38
96 90 93 90 83 66 71 81 82 82 74 62 62 68 69 59 54 56 62 63 78 92 94 97 75 72 94 95 95 69 68 84 75 74 65 71 77 73 59 52 48 44 41 40 37
93 94 98 87 80 77 76 75 76 75 88 89 78 68 66 56 71 74 74 66 76 91 91 98 80 81 100 100 87 86 57 63 74 78 91 66 88 74 68 62 59 52 46 38 38
99 98 86 85 75 76 77 80 79 65 86 86 94 72 73 63 70 72 75 68 76 84 84 92 82 98 100 98 79 83 61 70 72 85 76 75 84 76 56 68 54 49 49 47 42
100 99 82 82 81 81 81 84 79 81 87 96 93 89 86 82 81 84 78 71 80 85 82 91 80 73 88 97 80 82 80 85 88 85 97 80 85 81 71 53 46 49 45 45 43
98 74 81 78 78 77 84 78 84 91 78 96 100 100 98 87 88 90 86 91 92 95 94 99 91 86 82 100 90 88 88 99 99 99 87 78 89 72 59 47 43 43 46 50 46
64 70 82 79 80 80 86 85 85 75 89 86 98 99 97 87 93 84 76 96 86 85 96 96 98 92 88 97 99 92 81 90 90 92 91 86 95 69 54 51 50 41 40 40 50
62 73 78 82 84 86 88 95 83 85 79 100 93 99 100 100 98 95 94 95 82 86 94 98 99 91 87 86 94 97 98 68 86 79 90 82 69 53 49 51 50 52 51 55 62
63 74 80 84 87 87 92 88 95 76 86 88 92 87 97 99 100 100 96 76 83 84 77 80 98 91 94 89 90 88 83 91 88 94 92 74 69 63 45 46 49 58 66 70 77
75 86 87 91 91 91 91 90 85 74 80 93 88 94 88 89 100 93 93 94 75 85 78 87 80 100 96 100 99 88 98 87 84 91 91 91 64 55 48 43 49 61 70 80 85
78 84 91 96 89 96 92 70 66 78 83 88 90 90 87 66 94 100 100 94 85 75 91 82 85 97 97 90 79 77 83 83 92 94 89 91 77 41 50 52 57 70 80 82 84
88 89 78 87 88 92 81 73 73 74 74 84 88 85 64 63 71 72 84 62 67 82 78 70 86 98 98 84 85 91 82 81 81 89 95 92 73 44 53 57 67 79 83 86 88
84 79 80 88 90 91 98 90 79 62 77 68 78 72 70 61 62 72 98 76 64 60 63 57 76 77 84 66 82 99 94 82 81 98 85 89 72 58 50 51 65 78 82 86 88
92 95 83 88 87 98 97 90 86 76 68 65 79 92 85 79 72 69 65 81 64 51 58 60 82 72 68 69 84 86 91 91 88 75 81 70 72 56 47 47 64 78 86 86 89
79 84 92 96 89 96 88 90 78 76 83 94 86 96 81 84 71 71 64 62 61 53 56 66 83 69 82 73 72 78 84 91 85 75 85 75 74 52 47 52 64 78 86 82 82
87 86 92 77 78 78 84 67 68 70 63 74 73 98 98 80 63 60 65 72 64 59 65 69 80 76 74 70 66 69 73 86 84 82 80 88 62 51 46 50 58 68 83 76 78

GFSSW_925_rhum_087.txt.gz
RH
77 80 81 94 85 85 90 90 91 93 92 89 92 88 88 78 82 79 85 69 72 75 81 73 69 72 70 72 82 77 91 76 66 66 53 42 42 42 43 45 43 48 66 69 94
74 91 81 85 86 82 82 91 90 86 87 87 90 82 77 73 74 78 54 71 76 64 86 79 76 77 80 74 76 86 79 69 59 55 52 43 42 48 45 48 49 46 50 51 90
79 82 90 84 86 83 85 87 84 80 77 82 89 80 72 74 68 60 80 82 72 74 77 81 84 80 84 86 76 79 78 61 57 53 47 51 56 47 47 51 43 42 50 50 54
87 84 88 83 90 85 90 83 78 76 81 90 78 75 78 69 61 60 78 74 75 72 80 85 83 84 81 86 81 85 70 62 58 59 61 60 56 55 51 43 44 48 48 48 51
87 83 87 86 94 92 89 84 82 81 80 85 82 77 71 78 71 54 65 60 61 63 83 81 81 83 83 81 83 88 70 63 56 65 62 60 61 53 56 55 54 55 56 53 52
91 86 89 91 94 95 91 86 88 90 91 82 81 80 69 67 55 62 60 60 59 63 72 87 75 67 80 77 76 74 68 67 64 59 62 59 59 54 48 48 54 51 53 57 52
91 89 90 92 95 95 89 92 94 87 96 92 82 71 70 58 58 67 61 59 58 70 64 87 85 87 83 83 59 71 73 76 74 65 59 52 66 65 49 64 56 56 51 54 54
92 82 93 86 95 96 87 94 94 80 86 83 88 73 66 53 61 65 60 59 56 64 77 69 91 86 93 82 64 79 72 89 67 67 58 54 70 53 50 62 53 56 52 52 53
92 93 82 79 87 96 71 87 91 90 92 84 74 74 60 58 62 62 64 64 67 73 86 88 79 84 83 96 84 79 88 81 78 69 63 59 68 50 55 68 53 59 48 51 53
91 91 84 79 80 87 59 73 75 74 71 71 74 63 53 56 57 64 67 68 75 73 83 83 93 88 91 100 89 79 80 78 75 79 64 68 62 53 63 68 54 66 56 53 53
91 86 85 81 83 71 63 63 68 62 65 70 77 71 58 54 56 67 67 66 72 74 93 100 99 97 96 92 77 63 80 77 69 70 66 64 66 57 68 75 69 71 68 62 53
91 87 86 84 87 65 62 76 79 77 70 60 67 68 60 60 55 62 64 69 71 91 94 97 97 78 74 82 90 64 79 79 73 67 70 70 67 60 57 74 70 67 68 58 52
88 92 94 90 84 69 70 80 82 83 74 62 62 67 67 64 56 58 64 64 79 90 96 93 91 59 86 80 100 74 78 84 74 72 66 74 76 68 60 53 57 58 62 52 43
93 96 99 86 76 75 75 75 74 72 88 78 82 68 69 61 67 73 74 67 74 89 92 98 92 70 98 96 96 84 61 65 78 76 78 69 78 70 65 62 55 50 50 55 48
98 100 93 86 77 75 81 82 76 61 90 79 83 71 72 64 70 71 74 70 76 84 83 96 92 87 91 95 96 97 54 61 72 79 76 79 79 66 63 65 59 54 51 44 42
99 98 93 83 80 82 82 83 74 83 81 90 88 88 88 83 80 81 78 67 80 85 83 81 83 76 83 88 91 93 73 74 82 79 93 76 79 68 64 54 52 47 48 45 41
98 78 83 77 77 78 79 75 86 88 70 97 99 100 97 87 83 90 87 92 90 96 96 98 85 87 81 94 89 100 75 94 93 94 86 77 86 62 58 53 45 43 44 46 45
66 75 81 80 78 80 78 85 78 69 88 76 94 100 98 96 89 86 69 94 81 89 94 96 98 83 89 97 100 81 74 85 91 90 87 84 92 59 51 50 44 45 40 42 52
71 78 84 86 83 85 84 92 78 85 76 100 95 100 99 100 99 90 87 90 80 81 95 98 100 80 81 88 98 98 92 64 84 80 82 77 66 47 49 49 49 47 48 48 45
67 78 86 87 83 82 91 84 92 73 87 86 94 92 97 100 100 98 94 79 87 73 69 86 98 87 93 82 92 97 78 88 89 91 84 71 66 48 41 40 43 46 52 53 61
76 86 95 88 90 88 93 89 85 72 80 93 94 99 95 99 100 97 97 80 73 79 68 92 89 98 92 96 98 98 100 88 80 82 78 75 53 48 44 41 42 45 54 60 73
77 77 99 90 95 96 94 76 68 78 85 82 92 88 98 88 94 100 100 100 74 70 91 83 88 96 93 88 83 86 84 76 86 94 87 83 58 40 44 50 53 52 66 73 79
82 88 91 97 95 97 86 84 76 74 75 88 90 88 78 71 96 92 99 74 79 75 84 76 87 96 96 84 89 100 84 77 81 86 92 84 65 45 51 48 59 68 74 82 85
75 74 74 88 90 90 93 87 92 69 79 86 84 85 81 71 66 89 100 82 81 80 72 66 78 76 83 66 81 99 91 79 79 94 90 85 65 51 50 50 47 66 78 82 84
87 94 89 83 78 93 87 85 70 72 68 69 89 97 99 94 71 79 100 98 85 73 70 68 94 71 73 69 83 84 89 91 88 77 80 66 69 49 50 50 47 59 82 84 86
73 80 90 89 86 84 78 77 71 64 72 72 90 81 95 99 100 100 84 100 98 75 75 66 81 69 82 78 75 80 84 88 86 80 79 79 78 54 48 49 57 68 85 85 83
86 91 83 69 70 65 75 66 72 72 65 66 70 82 91 99 97 96 76 71 68 77 75 70 78 77 79 73 68 66 70 87 86 83 73 83 59 52 50 50 49 62 83 79 77

GFSSW_925_rhum_090.txt.gz
RH
75 77 91 88 89 82 82 84 91 87 85 84 86 90 80 72 71 73 57 54 66 69 78 77 67 65 65 61 66 61 73 60 39 37 32 29 34 32 29 30 32 49 45 62 72
86 82 89 90 81 88 87 85 86 85 75 77 82 89 80 72 67 55 56 76 70 72 71 71 70 68 61 56 67 61 66 47 32 31 33 30 33 32 34 33 35 40 43 72 78
86 86 87 87 83 94 86 88 84 75 78 74 90 85 77 72 54 42 79 77 79 70 79 73 86 76 60 58 57 58 47 39 37 39 36 34 35 30 33 34 29 32 42 56 62
86 88 88 88 88 93 91 87 79 82 80 86 75 80 78 69 57 54 80 78 73 67 82 71 66 79 71 62 49 61 44 40 42 45 43 38 30 35 31 27 26 25 35 42 47
89 88 91 91 91 94 93 86 85 86 90 76 83 88 70 56 46 55 58 70 59 70 80 84 74 73 82 57 56 58 42 46 40 47 46 38 40 35 35 31 31 34 39 36 36
90 90 90 88 92 94 94 88 89 94 79 78 81 77 57 51 53 70 62 60 57 57 62 90 75 65 71 63 59 42 43 46 44 45 50 45 39 41 35 37 37 38 39 37 35
91 92 84 87 89 95 92 94 95 95 93 93 87 70 53 48 58 70 67 65 67 61 51 73 80 80 73 80 53 45 52 56 52 40 47 47 48 50 32 40 38 35 34 38 36
91 93 94 77 89 84 89 96 85 84 90 88 80 69 53 54 62 66 64 60 64 65 69 81 84 77 81 68 60 58 51 62 49 49 41 44 49 39 34 38 39 36 33 34 34
92 91 87 80 78 80 66 79 93 91 92 80 73 63 55 68 58 59 68 58 63 72 78 78 82 86 79 95 86 63 58 48 51 50 49 49 41 36 35 39 36 32 33 34 31
93 92 83 79 80 79 57 69 72 72 72 72 72 62 47 48 53 62 66 69 62 62 79 82 90 96 88 100 92 64 50 42 48 56 54 52 42 40 37 39 36 31 30 33 32
92 89 89 84 84 75 62 67 56 55 60 52 54 57 49 50 58 60 65 62 58 60 84 96 100 98 83 83 83 36 41 42 38 49 54 46 43 40 36 40 35 31 35 35 30
91 91 89 87 86 73 59 57 66 75 56 54 57 57 55 59 50 54 62 60 58 72 79 100 93 66 52 70 91 74 41 50 37 57 54 45 48 41 38 39 34 32 28 31 36
94 93 95 89 80 71 73 77 77 80 60 56 54 53 52 56 49 50 57 55 58 69 81 94 61 54 67 96 100 69 43 42 52 59 56 50 56 45 38 39 35 36 33 30 36
94 93 99 82 76 76 72 73 73 68 82 68 71 62 60 57 55 60 63 56 60 78 95 83 83 65 82 85 97 78 37 47 49 55 64 54 48 40 39 42 40 36 37 37 38
94 96 98 82 79 72 82 78 73 64 83 83 76 66 60 60 62 66 71 62 63 56 96 83 90 81 98 77 94 95 55 47 52 50 56 65 63 34 43 43 41 36 34 34 34
96 99 99 84 80 80 80 81 75 86 80 93 83 85 74 67 66 64 65 59 65 82 76 75 82 76 66 83 88 95 67 59 55 61 81 42 54 33 37 36 35 33 32 33 31
99 99 98 76 72 75 80 73 95 83 70 88 97 100 98 90 74 70 67 77 72 87 91 75 81 77 67 97 90 100 80 96 92 84 57 45 59 36 32 36 30 28 28 31 31
80 94 88 80 75 78 78 81 78 68 88 63 83 99 97 96 85 71 71 75 67 69 87 76 85 78 75 77 99 100 95 60 58 55 43 63 61 35 28 26 28 30 28 30 31
80 91 97 87 83 87 83 97 77 92 73 100 89 100 95 100 98 85 83 65 49 60 88 83 94 73 68 85 86 97 98 53 64 60 51 46 44 35 31 35 35 35 32 32 30
79 81 90 89 88 82 89 81 81 64 76 84 99 86 94 100 100 98 88 56 62 44 60 95 98 71 93 83 94 98 86 75 83 76 54 56 45 22 34 32 30 28 30 30 31
83 68 98 90 91 81 98 85 74 54 68 92 87 91 97 97 94 95 96 72 53 51 53 88 91 100 97 95 88 98 99 69 59 69 47 53 38 32 32 32 33 30 32 33 36
75 75 97 92 86 88 68 59 68 61 65 76 86 98 99 90 88 100 100 96 48 53 67 62 93 93 97 76 61 90 69 56 68 81 69 60 39 30 32 36 37 35 44 46 48
58 75 91 95 82 67 55 62 68 53 64 64 89 91 96 100 81 84 100 87 57 59 68 67 88 94 98 92 88 94 80 61 63 73 79 49 38 32 36 38 34 38 43 53 56
47 76 52 62 61 63 77 64 54 43 61 48 92 72 76 96 64 78 100 93 72 63 73 72 70 73 64 57 69 99 78 63 87 84 63 56 42 35 35 35 33 33 45 52 57
58 76 72 52 52 60 70 58 55 60 51 52 56 58 98 91 94 96 99 97 89 82 82 69 86 67 67 64 66 72 75 74 86 67 77 47 53 34 29 33 33 38 49 54 60
55 68 71 59 62 53 54 52 60 62 62 60 67 66 88 95 100 100 100 100 100 90 95 76 81 64 75 64 66 71 69 69 67 62 58 56 53 39 34 32 35 34 50 56 58
92 87 57 59 52 50 59 60 62 63 53 54 61 75 81 93 73 75 81 93 77 91 74 68 71 70 77 64 58 58 52 67 68 66 58 71 48 40 40 40 38 36 46 54 52

GFSSW_925_rhum_093.txt.gz
RH
80 82 84 91 88 81 92 81 86 90 81 73 77 82 90 91 78 68 51 49 61 66 74 57 58 53 53 51 49 57 94 62 37 28 22 21 22 20 19 25 26 38 38 47 55
82 84 83 88 87 85 92 87 88 79 75 80 78 88 86 78 66 51 56 63 75 71 68 56 49 50 64 51 58 64 78 54 30 22 22 23 25 26 28 27 32 36 52 53 62
82 86 86 85 87 89 94 91 86 79 83 82 87 85 82 71 52 40 58 81 71 79 61 63 63 62 66 47 52 52 56 41 30 25 42 32 29 26 29 28 25 31 49 62 75
89 88 88 87 88 90 93 91 85 84 88 89 75 78 76 64 61 43 60 72 70 70 66 62 58 69 70 68 38 54 39 33 33 62 44 40 38 28 28 26 21 22 33 51 61
91 92 89 90 92 90 93 89 86 89 92 76 81 81 73 51 40 48 61 62 54 56 69 66 63 64 71 57 42 43 36 30 32 49 54 42 38 32 27 24 22 22 31 37 46
94 93 92 90 92 93 94 90 93 96 80 78 78 74 55 51 45 55 56 51 46 48 62 78 67 56 66 68 59 34 38 36 32 53 48 44 36 29 29 23 27 27 32 29 36
93 95 92 83 87 90 93 91 94 91 91 92 87 62 48 41 45 53 56 54 51 52 51 60 84 78 58 74 52 49 49 41 40 34 50 37 40 35 27 28 32 29 28 30 31
90 91 90 81 83 81 80 76 92 77 79 92 83 57 46 50 50 53 54 49 52 53 52 62 78 91 67 63 56 60 56 51 40 36 32 41 45 29 26 27 34 28 26 31 31
89 92 88 82 83 79 78 62 86 92 91 72 67 54 44 58 50 47 51 47 50 53 63 59 72 87 85 94 92 75 93 46 39 42 34 44 41 22 25 29 32 29 26 26 28
86 84 84 84 85 81 63 58 77 69 66 60 58 58 43 42 44 48 53 55 48 48 63 69 75 93 97 100 92 85 70 39 36 44 40 42 39 25 27 29 29 27 25 26 26
91 86 87 85 85 82 63 64 54 54 51 44 43 41 40 40 47 48 50 51 46 50 74 88 100 99 94 86 55 73 46 34 27 33 40 43 37 29 31 32 31 26 24 24 25
88 88 90 90 88 79 65 48 55 73 52 42 46 48 45 48 44 42 51 52 49 58 70 97 97 58 61 64 90 95 68 40 25 36 41 42 40 30 31 32 30 26 23 23 24
91 90 92 95 81 72 62 61 79 76 56 47 44 46 44 49 44 42 47 43 45 49 63 82 62 49 60 94 100 91 63 44 32 45 44 45 44 36 30 28 28 26 23 22 21
91 90 95 89 84 71 64 76 81 74 87 62 62 56 52 48 51 39 45 47 46 59 86 76 61 62 77 96 84 86 42 44 36 53 54 42 53 35 32 32 29 29 26 26 23
97 92 96 82 75 66 77 81 78 65 87 72 68 56 56 58 53 56 53 51 55 57 68 93 75 62 73 74 72 94 74 41 47 48 44 49 48 29 27 34 32 29 26 25 25
99 97 97 83 78 80 84 84 72 92 90 88 71 83 92 87 53 51 54 51 49 55 70 93 86 72 69 60 63 86 71 75 52 56 84 43 41 26 33 29 27 25 24 24 25
98 99 99 78 70 70 81 67 93 85 63 83 77 98 100 100 79 55 54 64 69 86 88 83 98 84 80 99 96 98 86 96 94 93 54 31 45 29 25 25 23 25 24 23 24
85 96 86 83 76 73 76 86 92 55 92 51 61 93 99 100 97 60 58 69 56 52 68 71 92 94 78 84 100 100 98 84 73 70 47 42 43 31 21 21 25 24 23 21 24
84 94 85 98 79 90 70 89 75 92 50 96 68 99 99 99 98 79 82 60 39 46 85 68 89 84 68 72 78 100 95 58 58 34 42 40 30 28 27 28 29 28 27 28 27
70 70 86 85 81 78 77 67 51 50 64 66 92 66 85 100 99 99 78 49 41 34 50 97 90 62 80 70 81 97 95 75 79 64 54 39 27 30 32 30 28 28 29 27 25
68 57 97 85 94 65 84 60 53 51 54 61 57 72 87 100 92 97 81 58 39 35 43 75 88 100 84 77 92 99 100 81 57 64 43 51 33 27 30 29 28 26 26 25 26
55 67 92 91 76 65 56 47 56 42 43 60 84 96 99 100 91 100 95 75 39 36 57 79 92 93 98 72 52 66 74 54 68 64 60 62 41 27 31 32 31 29 36 35 35
33 62 85 88 66 60 40 47 39 42 53 45 75 75 56 99 96 97 100 80 52 45 76 79 87 95 99 91 86 86 76 72 52 76 74 59 42 26 32 32 29 30 34 40 43
33 79 45 39 40 47 55 53 46 39 46 48 52 54 59 64 82 94 100 86 55 54 78 75 95 97 76 66 64 95 76 55 85 77 46 46 38 33 31 32 28 30 32 39 45
41 64 45 40 41 42 46 47 50 54 44 41 47 52 98 77 59 80 100 98 82 78 81 85 99 61 56 55 56 70 68 61 91 61 71 44 43 29 26 29 28 28 36 41 46
37 55 42 38 44 41 41 44 53 56 53 50 57 59 73 81 92 95 94 100 100 90 96 69 81 59 70 57 57 65 58 60 59 55 51 49 49 34 31 30 30 28 35 42 46
62 60 42 46 41 41 46 50 55 54 47 48 56 60 72 71 58 61 66 75 91 95 82 61 60 64 74 56 52 66 58 59 58 54 53 65 48 37 37 33 35 32 34 39 42

GFSSW_925_rhum_096.txt.gz
RH
78 84 86 83 88 86 88 94 89 90 80 76 78 80 86 90 92 78 64 57 65 72 83 65 54 50 52 59 58 63 98 84 63 41 30 21 24 21 20 28 30 42 56 73 82
78 84 85 85 84 87 89 95 91 87 81 81 84 80 87 85 78 60 62 67 66 67 64 59 62 47 62 61 66 76 91 72 48 35 28 34 23 24 27 32 41 58 53 72 81
83 91 90 87 87 86 90 92 90 84 85 88 87 88 76 78 68 50 72 72 73 67 66 55 70 63 62 70 66 65 75 56 47 36 54 52 39 22 30 37 39 58 63 66 82
88 91 91 87 87 93 88 91 84 82 90 91 89 73 72 77 67 48 44 61 64 59 64 52 72 74 78 78 57 68 51 46 46 64 72 59 61 50 32 29 28 45 60 73 81
90 94 90 89 88 88 91 91 84 91 92 85 84 72 79 64 46 48 51 53 53 47 63 65 72 68 76 55 59 57 44 37 39 56 63 54 52 51 56 34 25 40 54 62 78
89 93 94 87 79 90 94 90 88 94 92 87 75 75 77 61 41 49 51 46 45 44 50 69 72 83 57 61 68 55 48 39 37 52 63 60 55 52 49 37 30 34 42 51 56
90 85 80 84 78 82 82 89 92 89 88 89 86 77 55 46 40 48 50 49 46 47 53 57 68 89 82 65 59 68 65 46 52 59 72 62 60 72 53 35 31 31 36 36 48
89 92 87 80 81 79 78 86 88 90 84 92 77 71 59 47 47 47 47 44 48 49 51 60 77 76 92 65 61 88 64 80 58 50 57 67 79 49 42 39 36 32 34 37 39
87 86 82 82 80 80 79 76 75 86 90 76 71 62 60 46 46 43 44 42 44 47 57 52 71 83 89 93 95 97 90 77 52 40 39 59 60 37 30 30 39 37 33 37 38
92 93 83 84 84 83 74 53 77 75 66 59 54 58 51 43 41 43 46 49 44 43 54 61 76 96 98 100 96 90 96 60 49 39 46 42 43 32 26 31 35 35 33 31 36
94 84 87 86 84 84 63 71 70 69 53 50 45 43 39 38 44 44 43 43 44 47 72 89 95 97 89 90 84 75 62 56 40 35 42 50 46 37 29 29 34 35 34 31 30
92 88 87 87 87 71 66 54 64 70 64 41 40 42 41 44 44 38 44 50 50 72 83 87 93 58 68 80 96 99 94 56 45 38 44 50 51 36 31 35 35 32 31 29 28
90 92 92 92 78 79 64 64 74 69 70 46 42 43 47 45 46 40 44 43 50 56 59 85 63 56 65 84 100 92 91 67 75 45 50 44 55 44 31 34 34 33 30 26 28
96 92 93 90 91 70 65 74 76 70 81 67 60 55 58 48 53 36 40 48 48 61 66 79 54 70 67 93 92 85 63 65 52 63 100 65 88 76 54 37 37 36 34 30 27
96 97 94 81 78 66 74 77 74 67 94 68 65 52 63 75 53 54 46 53 64 59 64 90 81 66 97 97 75 80 81 72 79 62 55 65 66 63 46 39 35 34 34 32 30
98 98 94 87 77 73 79 80 75 97 89 84 63 75 96 97 77 52 55 51 50 58 63 90 81 85 69 72 71 82 77 74 82 85 98 74 55 40 36 35 35 31 31 32 31
98 98 92 74 72 71 78 75 98 91 63 72 63 88 100 100 88 55 56 66 79 85 97 99 95 83 79 98 91 98 99 99 98 98 88 58 56 40 28 27 28 29 31 30 30
95 98 83 80 76 73 78 93 84 62 80 47 54 86 100 100 97 64 56 79 63 59 89 86 98 89 88 90 99 99 100 98 86 90 62 46 89 44 27 28 26 27 28 30 31
90 88 85 84 81 82 80 95 74 78 60 82 69 98 96 100 98 92 82 74 43 51 97 81 97 76 83 84 82 100 100 90 99 52 74 49 30 27 33 35 29 29 29 29 30
89 76 90 75 77 88 83 64 63 56 53 54 82 56 91 99 96 99 90 55 37 37 54 88 92 71 77 66 82 97 94 97 99 96 91 50 42 40 38 35 35 33 34 31 28
90 72 90 79 92 78 94 62 53 42 46 80 72 83 79 99 96 93 85 55 35 34 43 68 85 99 75 77 87 98 93 95 79 77 83 70 50 33 40 36 34 31 31 33 32
62 92 90 90 93 83 79 46 44 39 42 50 80 89 74 88 98 100 90 70 37 34 55 85 98 96 86 62 55 65 71 73 96 73 93 88 57 38 39 36 36 39 37 37 37
54 75 84 85 87 81 44 44 37 43 49 48 63 54 56 88 99 94 99 72 60 42 95 85 96 99 99 94 81 83 72 71 72 85 82 94 57 37 35 34 33 38 44 47 44
50 91 65 70 43 47 61 51 46 44 42 42 45 52 71 64 68 94 100 81 66 68 76 78 95 99 98 75 79 94 75 68 90 93 61 95 48 37 38 36 39 37 41 53 53
51 80 54 65 52 40 41 44 48 54 42 40 48 59 91 80 71 84 93 96 73 76 76 81 100 97 58 55 63 75 82 72 83 72 79 55 46 40 37 34 32 35 39 49 56
56 67 50 41 42 44 46 50 52 55 50 48 57 59 72 81 85 92 85 90 98 78 86 80 96 63 82 55 58 70 66 64 66 62 58 55 56 38 39 36 38 36 41 44 54
55 52 52 48 42 44 52 50 52 51 46 45 54 62 67 66 60 58 62 68 80 90 88 70 93 78 91 56 54 78 64 65 60 54 56 70 53 49 48 42 37 42 39 40 46

GFSSW_925_rhum_099.txt.gz
RH
86 83 86 84 85 85 88 90 96 92 89 84 82 85 81 87 91 91 84 63 66 69 70 66 66 59 53 68 62 67 96 93 66 58 47 33 27 22 25 35 53 60 80 76 74
87 84 92 90 87 81 88 90 94 92 84 82 88 87 89 89 86 81 69 66 66 69 65 75 70 68 68 70 74 84 94 83 66 54 55 61 38 30 38 53 72 79 88 83 78
87 88 92 92 89 86 95 89 93 82 80 89 90 91 84 79 77 66 72 70 69 64 58 66 60 72 75 69 75 73 86 64 67 60 68 63 49 53 46 53 68 83 92 87 87
85 89 92 91 87 89 88 90 90 84 93 94 91 78 70 79 79 52 56 55 60 54 52 66 67 86 79 79 70 89 64 63 52 74 72 65 59 60 58 46 60 69 84 85 92
87 88 94 92 84 85 83 83 89 86 94 91 85 75 79 81 63 51 52 48 46 46 55 75 76 73 87 71 70 82 68 54 47 80 83 67 68 72 69 56 51 70 83 90 86
84 89 90 79 83 78 80 82 88 91 95 93 79 70 80 87 42 49 49 47 47 49 55 68 75 81 82 65 70 73 67 58 48 81 79 76 72 74 61 53 54 74 89 92 90
89 90 93 83 80 86 80 79 89 92 89 92 86 76 75 70 40 47 50 48 48 48 53 61 70 79 88 68 55 73 82 58 69 79 85 67 82 77 70 67 62 65 76 82 89
86 89 92 80 81 81 79 83 94 91 92 88 80 75 77 46 40 47 47 44 48 50 57 68 68 81 86 83 70 83 85 82 65 65 71 65 84 68 72 83 71 58 57 70 73
86 89 88 83 82 81 80 77 83 86 86 87 75 72 68 47 49 45 45 45 46 52 56 67 66 84 87 99 96 96 100 90 65 54 84 72 78 69 63 87 80 66 41 56 56
89 94 87 88 83 84 78 64 68 86 68 76 66 63 57 48 43 44 46 48 50 49 64 71 82 88 98 100 94 96 97 76 71 56 77 84 66 49 74 76 76 58 46 50 47
91 93 86 89 84 84 68 64 76 80 66 65 54 55 41 44 42 43 45 46 50 54 81 90 96 97 96 90 100 78 90 89 51 43 67 79 66 57 52 74 79 62 53 41 48
94 92 93 89 86 68 71 74 75 70 75 52 55 42 42 45 52 45 43 56 54 79 92 89 94 65 76 76 92 100 94 74 55 39 44 54 57 45 37 36 42 46 41 40 36
93 93 92 91 82 76 67 71 70 71 87 54 45 47 54 54 55 50 49 52 63 71 68 86 66 53 70 86 94 96 99 74 61 50 51 54 62 57 41 35 38 36 35 33 33
92 92 92 91 89 72 74 73 72 72 78 68 60 57 66 66 64 44 45 51 63 74 71 84 74 60 74 91 95 99 93 74 65 78 82 75 88 65 52 43 41 41 41 35 32
95 96 95 82 77 73 75 76 73 72 92 62 70 52 69 83 79 56 52 56 71 68 75 86 95 77 100 92 82 98 86 77 80 84 76 93 97 69 58 50 48 42 43 39 35
95 96 88 84 77 74 77 80 78 85 90 87 66 78 97 96 86 60 64 56 60 61 72 88 84 89 76 78 85 84 90 90 88 97 96 90 98 50 58 52 45 38 41 37 35
98 97 91 77 81 72 76 83 90 90 59 70 72 91 92 98 87 65 64 80 85 94 98 98 100 86 77 97 91 98 99 98 98 98 92 73 79 53 41 39 39 37 40 38 36
98 86 82 79 72 73 83 89 89 63 80 59 64 89 99 100 95 87 68 87 66 83 97 94 97 91 84 90 98 100 100 97 93 95 76 65 76 58 35 32 32 33 36 36 37
90 88 86 78 72 86 90 91 79 86 61 78 73 93 98 100 99 91 88 85 60 70 99 95 98 88 81 78 86 100 99 97 90 69 81 75 48 31 38 37 36 38 40 41 38
98 88 89 76 76 93 88 72 69 54 53 64 88 64 86 99 98 94 93 65 55 42 61 86 96 74 83 73 86 92 88 97 96 92 86 61 42 44 44 40 37 38 38 35 36
97 93 84 78 87 90 86 71 55 43 54 78 89 86 88 98 100 97 89 61 39 38 43 73 80 96 78 84 90 92 97 95 94 89 86 82 59 45 43 39 39 37 35 35 34
91 95 87 85 86 94 80 49 42 47 48 61 77 84 78 80 100 90 85 83 72 37 86 93 91 85 85 89 65 74 72 82 95 90 97 89 65 42 43 42 44 44 44 44 43
84 95 90 86 81 88 47 48 43 49 52 53 60 63 60 88 100 81 99 79 72 75 94 83 96 95 91 86 78 82 78 75 83 86 95 97 66 41 41 40 40 46 47 52 49
70 88 83 92 58 61 65 57 57 45 46 47 54 68 76 83 78 89 99 85 78 77 81 86 86 98 91 72 82 95 80 77 86 93 98 94 57 46 40 40 40 44 51 53 55
72 88 68 81 64 54 58 48 58 59 46 46 57 79 74 89 76 89 92 93 72 73 78 86 98 93 83 68 72 80 82 81 85 68 82 73 55 47 39 39 36 41 55 59 59
62 67 59 53 46 48 53 53 61 59 54 56 66 63 70 84 86 90 83 98 95 78 85 86 94 75 87 57 66 80 79 78 72 65 64 59 57 48 40 41 41 43 47 58 61
60 57 56 57 50 59 59 56 60 56 50 49 58 66 65 73 70 67 67 68 76 92 84 81 93 90 96 60 60 79 67 72 66 57 58 72 60 51 50 47 47 46 43 46 59

GFSSW_925_rhum_102.txt.gz
RH
86 87 86 92 86 84 85 90 90 96 91 83 84 83 89 89 91 83 88 56 70 69 71 65 52 59 68 66 70 72 97 88 79 72 61 38 36 28 29 39 56 66 82 80 88
84 87 88 92 85 87 88 96 89 94 83 79 84 88 90 91 85 88 57 76 73 70 70 68 65 67 85 77 75 84 86 73 62 66 61 63 39 31 56 71 81 95 82 86 88
82 88 88 93 92 89 88 90 90 85 85 84 89 92 92 81 84 68 72 70 67 67 64 60 63 77 82 72 72 82 80 60 68 63 67 70 62 51 58 72 82 89 91 90 92
85 85 89 92 92 92 91 93 92 77 87 93 94 93 83 80 79 52 57 56 56 58 58 58 72 85 86 82 70 78 71 60 75 78 83 80 72 67 56 60 66 80 75 85 93
87 83 88 90 90 93 88 92 86 86 92 94 90 90 78 86 81 52 52 48 49 48 54 70 81 78 88 86 67 86 72 60 60 88 83 76 75 66 57 60 62 81 81 86 88
83 89 91 86 82 89 91 92 87 88 93 93 92 72 79 90 46 50 47 45 47 48 53 70 79 73 78 85 80 71 74 67 57 87 88 91 79 80 67 70 70 76 93 90 84
86 90 86 84 89 86 82 92 92 90 94 90 92 78 78 73 43 48 49 49 48 49 54 62 76 79 82 93 77 65 82 68 61 80 87 86 91 80 76 74 76 72 76 92 93
90 90 86 81 87 82 84 88 94 94 95 93 89 76 85 50 42 48 45 48 49 50 58 69 66 79 85 87 81 85 82 86 74 79 85 91 92 74 84 79 78 78 77 84 92
84 88 84 90 86 83 83 82 91 82 90 93 81 75 80 51 48 45 46 48 46 53 56 64 70 84 86 98 100 92 98 94 78 72 86 80 88 80 77 85 80 81 79 66 92
90 88 84 83 87 83 83 64 74 76 75 77 76 72 54 51 44 43 44 48 51 54 62 74 83 85 96 99 98 96 99 96 84 72 82 83 75 84 83 82 85 90 88 78 74
88 87 86 87 86 87 74 65 68 77 70 68 60 59 49 47 44 44 44 50 53 58 78 88 90 93 86 92 99 100 94 86 65 61 79 79 65 86 87 86 86 88 81 73 59
89 89 87 86 89 77 75 74 72 66 57 54 56 56 43 46 57 48 45 55 59 81 88 84 94 73 61 92 97 100 88 98 76 54 68 76 74 73 88 85 84 84 84 71 52
90 90 88 89 91 78 69 69 71 73 78 56 51 51 63 58 64 58 48 54 64 77 79 88 69 58 64 96 98 100 88 87 85 70 72 70 80 77 71 71 77 86 86 59 41
93 88 88 96 91 77 76 74 72 71 89 73 62 63 66 68 77 52 48 52 63 74 73 82 76 77 68 91 98 95 87 80 78 94 99 82 96 85 85 60 53 66 78 54 40
92 90 95 93 85 75 75 76 73 66 67 48 72 60 70 83 85 61 53 56 75 69 72 75 91 90 89 75 84 100 89 82 75 86 78 93 81 70 63 60 46 39 45 40 39
93 93 92 85 82 75 78 79 73 77 69 85 74 81 95 87 78 73 62 56 61 71 72 92 82 98 90 77 79 88 95 84 86 88 96 91 79 61 63 53 43 40 43 40 39
91 95 90 84 80 78 77 81 81 81 53 62 74 91 99 91 81 75 65 83 84 95 97 95 100 88 77 95 91 99 99 98 98 98 95 95 96 72 49 44 38 40 41 40 38
90 90 86 85 77 75 78 81 83 70 76 58 69 86 100 92 92 88 76 87 86 93 97 97 98 98 80 88 95 100 100 97 95 96 96 74 90 58 39 37 40 38 38 40 42
90 94 88 80 79 82 82 88 82 86 64 74 72 87 88 92 84 77 92 89 76 82 99 95 99 82 82 82 89 100 99 95 90 72 90 91 61 39 39 41 41 41 40 41 41
96 94 91 82 81 88 82 70 78 54 56 70 85 77 95 95 96 86 95 67 60 68 81 86 95 82 86 79 79 95 90 95 94 85 92 74 50 47 40 41 43 43 43 43 43
91 96 88 83 91 80 85 77 57 41 54 73 87 87 84 96 91 100 84 67 70 39 64 90 76 91 77 84 91 92 95 94 86 90 87 83 60 47 55 38 42 40 37 37 41
92 97 93 89 86 92 83 56 44 46 49 75 75 76 85 88 89 85 97 85 77 61 96 86 81 98 85 78 70 70 73 88 90 89 98 88 70 42 52 48 50 51 50 51 42
87 95 95 88 86 88 51 49 45 53 51 54 57 67 63 85 96 68 88 72 83 78 85 83 92 90 84 79 74 85 79 77 84 86 98 90 72 44 47 47 49 54 53 56 55
74 89 87 88 65 69 70 54 59 45 49 49 61 69 74 84 80 90 98 81 79 82 80 84 91 91 81 67 79 95 85 81 82 92 97 96 81 45 43 45 45 49 55 57 58
78 80 71 81 67 64 60 55 61 60 48 51 69 70 78 85 76 88 92 92 67 72 78 85 93 94 82 78 78 79 82 84 84 86 96 82 75 51 44 39 39 41 54 57 58
77 73 63 60 56 58 59 57 65 61 55 60 71 64 74 86 89 89 82 93 86 83 85 87 94 83 87 62 76 84 79 81 78 68 83 80 72 53 46 46 50 46 55 58 60
70 60 56 60 58 63 66 66 63 62 52 54 62 65 77 77 71 65 68 74 75 90 87 82 92 92 90 66 62 82 78 81 72 61 62 76 60 50 48 48 50 48 44 49 61

GFSSW_925_rhum_105.txt.gz
RH
80 85 87 88 92 85 86 90 96 90 94 85 79 80 82 90 92 88 92 58 76 74 74 66 61 57 63 80 68 66 90 86 74 67 75 53 46 35 28 41 47 68 79 79 100
81 84 85 88 91 88 89 88 91 92 80 85 81 84 89 93 91 91 58 75 79 74 70 64 71 67 77 83 78 80 89 75 60 54 67 77 62 39 41 59 75 91 93 94 98
83 84 85 91 91 91 92 91 94 88 80 88 92 92 93 94 90 76 72 71 65 60 66 64 68 69 82 82 82 77 82 76 59 59 76 89 85 58 51 48 74 87 96 93 97
84 84 85 85 86 93 91 92 91 85 80 92 92 96 93 82 80 52 59 55 54 56 60 61 78 86 79 86 77 88 69 70 67 68 64 86 90 76 61 63 61 71 89 91 92
86 83 86 89 80 91 89 92 94 86 92 95 93 89 81 89 84 51 53 49 49 49 58 67 84 86 87 81 75 96 64 60 62 60 86 81 91 80 61 67 76 77 89 91 88
87 87 80 79 82 83 91 84 80 88 92 93 94 78 81 93 48 51 48 46 46 48 53 69 77 78 80 85 84 88 70 58 57 72 76 90 89 89 78 68 76 84 81 85 88
88 85 86 79 83 86 83 95 85 95 92 92 92 82 81 74 46 49 50 49 49 50 55 62 75 86 86 86 79 86 94 76 63 70 86 85 89 96 84 68 82 82 81 86 90
87 85 84 80 81 86 85 85 97 90 90 96 90 81 83 52 49 42 47 47 49 51 59 64 67 78 88 83 90 98 83 83 63 66 80 87 99 87 85 72 84 88 88 79 81
88 88 85 81 82 82 84 92 96 85 85 94 82 76 84 52 50 46 46 49 49 52 58 66 70 84 88 98 95 100 96 96 73 70 91 84 97 86 89 77 83 90 89 79 76
91 85 86 84 81 83 86 74 68 76 78 82 79 78 54 54 46 44 45 48 50 54 63 69 82 87 92 100 96 98 92 93 79 82 82 89 84 86 88 87 86 88 88 80 74
90 89 85 84 85 90 76 68 68 76 70 68 64 60 50 46 45 45 44 51 54 63 74 84 88 92 75 98 95 100 98 91 76 74 85 90 77 83 83 81 90 87 84 81 76
93 88 87 84 87 92 78 74 68 63 57 58 62 60 51 50 58 52 47 54 62 83 86 83 89 72 66 85 94 100 98 95 81 68 77 84 81 75 84 79 94 88 85 83 81
94 86 88 85 92 83 72 71 71 71 72 57 53 53 64 61 70 62 50 55 66 76 82 89 68 62 63 100 98 99 90 98 82 86 83 80 92 91 93 85 84 85 80 82 80
91 89 86 90 87 83 74 72 68 69 87 67 65 66 70 68 74 58 52 54 62 78 78 84 73 82 71 100 89 96 78 79 85 89 99 91 99 95 90 89 86 87 85 84 81
83 88 88 93 88 82 76 73 71 60 50 40 74 65 72 79 85 62 54 56 73 72 74 74 91 89 86 80 92 100 79 80 92 99 96 98 86 73 84 86 87 78 83 81 76
84 87 94 98 86 77 77 77 69 76 45 81 77 88 89 77 74 78 64 57 60 71 78 91 82 94 92 80 94 96 93 83 96 100 95 90 80 69 84 63 62 58 73 75 78
84 94 95 86 80 79 78 76 80 66 51 61 79 91 97 91 72 83 71 81 87 92 96 93 99 97 79 93 96 100 84 97 98 97 93 86 77 58 57 48 46 48 44 59 51
87 97 97 86 79 75 75 76 52 63 79 57 77 87 95 93 88 79 81 87 84 98 97 97 99 97 82 89 96 100 100 92 95 97 97 90 82 56 43 40 41 38 36 37 38
96 100 92 84 78 79 70 83 68 81 64 72 69 86 74 96 83 78 96 89 72 84 99 96 97 83 87 89 88 100 98 96 85 78 91 89 71 42 40 43 39 46 43 42 43
98 93 97 87 85 79 81 69 81 71 58 69 83 81 99 95 85 82 92 63 68 70 82 90 93 77 80 78 80 97 93 96 93 82 94 83 60 53 54 48 47 48 47 43 40
84 92 100 88 87 80 83 77 65 45 59 74 87 86 86 89 88 82 87 70 85 63 69 89 76 83 75 84 88 90 95 93 84 89 87 85 60 45 58 53 45 49 44 42 42
91 98 100 96 91 93 87 61 48 49 55 74 74 68 79 85 84 78 98 87 76 77 85 84 82 98 82 70 75 69 74 87 90 90 94 89 75 48 54 55 51 56 56 56 52
89 98 100 91 88 88 54 53 47 55 52 58 60 65 65 83 84 60 88 70 83 77 86 83 87 92 79 78 72 87 79 79 84 86 94 88 77 45 48 51 55 58 60 63 58
79 94 94 91 70 68 68 59 59 46 51 53 67 70 75 84 82 95 98 74 78 82 78 83 96 88 84 67 75 94 87 83 82 93 92 94 75 50 47 46 47 56 62 64 65
78 78 73 84 72 68 59 61 66 60 49 54 71 73 84 88 83 88 93 78 70 74 77 86 99 100 84 74 80 78 81 84 86 86 90 89 74 55 52 48 46 45 58 64 65
77 79 64 66 65 67 58 63 65 62 58 61 75 65 68 84 88 88 80 88 92 79 79 83 92 90 85 68 78 86 80 81 78 87 85 82 75 54 49 51 58 58 56 60 62
69 55 56 64 63 63 70 67 65 62 55 57 67 75 78 74 69 67 70 75 78 86 86 82 89 92 83 68 67 81 69 81 75 64 80 80 66 51 52 54 62 66 58 56 57

GFSSW_925_rhum_111.txt.gz
RH
97 90 84 83 89 91 94 86 87 85 87 83 85 86 81 77 80 78 85 49 66 89 76 76 67 60 66 72 74 69 84 76 68 77 64 44 44 46 47 48 41 40 67 65 82
95 91 87 85 88 90 91 88 92 88 84 80 85 88 85 81 79 90 48 78 80 79 80 72 65 64 70 82 80 83 84 67 48 48 56 51 49 49 51 57 61 56 55 73 92
94 93 90 84 86 91 89 94 88 86 86 74 80 92 98 79 76 63 79 63 65 64 63 66 68 67 80 78 84 82 82 53 52 47 58 64 57 45 68 71 66 59 68 64 92
97 92 90 88 88 87 89 91 89 87 89 75 88 94 92 78 54 54 63 54 60 52 64 71 77 78 68 79 76 93 75 67 53 52 56 62 62 64 56 59 50 61 64 63 87
98 94 91 91 90 88 90 89 85 85 84 74 92 89 80 86 82 54 62 46 46 50 58 65 88 88 87 71 78 84 72 66 63 66 60 56 66 65 66 62 48 51 61 66 65
99 96 94 89 82 86 86 87 86 88 86 80 91 82 79 83 51 54 51 49 49 48 52 69 74 76 84 85 84 75 79 71 70 69 67 62 57 70 69 62 68 62 63 68 67
100 95 96 87 80 82 87 91 82 83 81 84 94 80 82 75 51 49 52 50 50 51 58 58 70 84 74 76 78 86 100 92 74 74 70 62 69 66 62 67 76 71 64 66 67
98 92 96 89 87 82 84 82 83 81 82 88 96 78 73 48 55 54 46 49 49 51 56 60 72 82 86 77 74 94 89 86 60 70 66 67 74 59 59 71 76 69 70 76 78
100 96 95 89 84 79 80 84 85 88 87 95 79 76 73 52 52 48 48 50 50 52 60 67 69 84 88 78 80 85 89 74 62 66 64 72 68 69 75 84 75 75 79 82 80
100 98 99 91 83 82 83 83 83 86 90 88 82 78 53 56 49 47 47 50 51 56 60 66 76 87 89 88 92 93 96 84 79 70 64 79 66 85 85 78 78 88 81 79 82
100 99 92 90 82 84 91 87 75 77 76 64 64 61 55 51 49 49 48 54 56 65 80 85 90 91 73 78 83 91 95 94 73 62 75 83 64 67 87 87 87 87 85 77 82
100 95 94 87 82 92 89 75 59 52 64 67 67 66 58 61 63 53 51 62 64 81 84 83 95 70 66 72 82 90 97 87 71 64 73 68 68 69 89 84 87 89 84 78 79
100 93 95 81 81 98 84 70 66 58 68 61 57 58 63 64 74 67 54 59 72 82 84 92 71 68 75 87 92 91 97 93 85 77 74 76 98 96 87 84 86 86 84 82 84
100 96 94 70 92 87 75 70 66 63 82 66 68 70 69 71 73 59 57 60 67 79 80 89 73 79 83 95 91 97 94 100 79 99 99 96 99 95 91 88 90 87 88 89 80
94 94 76 68 91 85 75 72 65 54 71 41 80 70 72 74 76 68 60 57 78 74 77 76 77 84 85 94 98 100 100 98 88 100 100 97 84 100 85 92 87 85 88 90 73
98 88 82 90 92 79 75 69 57 77 62 88 81 92 77 74 74 74 67 58 61 81 83 84 69 85 94 97 98 97 96 95 84 91 97 98 75 87 93 83 77 78 91 88 72
100 91 86 86 84 75 73 61 84 79 58 72 92 77 87 85 74 80 89 82 95 94 94 92 98 98 97 99 88 100 85 91 89 94 96 95 74 64 69 69 66 74 93 80 70
99 99 91 86 81 76 64 78 76 52 75 64 90 78 99 90 82 77 84 90 88 97 98 97 97 94 88 99 100 100 86 92 87 92 92 71 86 62 48 46 54 59 81 82 67
100 100 98 90 81 79 68 88 63 75 68 82 75 90 86 91 74 79 96 92 76 90 99 98 89 77 82 97 99 99 92 96 85 76 81 84 56 45 44 47 49 51 80 84 70
95 97 99 86 84 67 84 73 77 62 64 66 88 81 94 85 76 84 88 74 96 70 80 93 87 65 76 89 86 90 88 91 90 85 91 73 71 72 61 62 58 54 62 84 72
84 94 100 89 80 80 94 78 73 57 68 74 86 87 76 89 77 96 88 75 86 89 76 91 75 71 72 91 98 91 93 85 83 84 82 78 93 52 63 65 68 66 56 71 78
85 98 100 89 96 93 90 66 56 60 69 72 72 75 67 84 77 94 91 87 76 87 91 86 82 96 85 73 84 75 86 90 86 88 90 84 88 52 58 67 66 69 64 62 77
97 98 100 85 98 94 65 59 51 58 60 65 71 67 66 71 79 76 97 68 82 90 88 88 89 87 70 60 65 84 83 87 81 84 96 88 77 50 52 53 64 72 70 68 69
92 99 100 99 72 68 69 62 64 50 55 64 74 70 71 75 87 85 97 70 76 77 72 74 90 88 95 88 84 90 83 88 83 87 89 87 68 64 63 62 61 71 71 70 68
83 97 87 96 96 73 60 62 66 63 54 67 75 75 87 96 88 86 93 73 62 66 74 80 88 96 80 79 81 87 88 87 95 87 83 77 73 69 66 66 66 65 62 63 70
90 93 68 77 85 74 66 69 64 62 63 65 75 78 78 86 78 86 72 79 93 78 81 82 91 84 81 82 79 81 83 82 83 80 83 76 77 60 59 63 67 73 64 67 73
70 54 61 71 73 68 74 72 62 64 59 58 72 80 76 75 70 72 76 80 78 83 86 87 87 84 82 69 74 80 70 80 75 78 71 82 69 61 69 74 80 76 75 77 76

GFSSW_925_rhum_114.txt.gz
RH
96 96 91 87 88 89 92 92 89 90 91 88 79 79 87 86 80 76 59 50 64 79 73 71 61 56 55 48 51 45 66 62 46 38 35 28 30 26 24 33 34 33 36 31 36
98 95 93 91 86 87 91 88 90 85 86 82 77 82 94 78 77 66 54 71 78 79 76 76 63 55 51 51 53 56 58 48 33 29 31 28 40 36 37 28 35 42 34 40 52
96 95 96 93 90 88 92 91 88 87 84 80 71 88 93 83 64 52 77 66 71 72 67 66 61 55 55 50 52 51 60 36 33 31 33 36 39 36 44 49 35 37 38 44 50
99 98 96 94 88 90 89 90 90 94 84 79 68 92 78 79 39 53 64 57 66 58 58 56 52 55 55 57 44 59 43 40 40 36 38 42 37 40 41 40 32 33 34 44 47
100 100 97 97 93 90 86 88 90 95 85 78 68 89 82 63 45 55 64 46 48 54 49 51 54 52 56 45 47 54 44 39 39 46 47 44 44 43 41 36 39 36 42 44 45
96 100 95 89 92 77 80 79 86 88 86 83 72 83 69 56 52 56 52 49 47 46 47 52 47 49 55 53 54 41 49 51 48 50 51 54 48 42 41 38 48 50 49 47 43
96 100 95 93 91 88 79 83 93 86 84 78 91 82 68 47 53 51 52 51 50 48 46 50 52 56 47 50 41 50 64 55 48 51 58 51 62 54 33 35 49 55 50 42 41
97 100 97 92 87 83 82 80 86 86 82 78 97 79 52 44 57 55 53 45 50 52 53 56 63 56 60 48 53 57 57 70 31 38 47 59 70 41 32 32 45 53 51 44 39
96 89 98 91 94 82 77 80 87 87 86 94 83 66 50 53 50 50 49 43 46 51 58 59 60 56 56 71 73 68 76 45 36 30 42 60 62 41 40 37 40 49 49 55 42
89 88 99 92 94 80 78 85 88 86 90 86 75 72 48 50 48 48 49 50 45 48 53 56 58 65 67 79 74 58 71 56 51 41 56 56 55 48 58 61 64 57 56 57 52
89 96 98 88 91 78 85 90 70 75 77 52 51 54 48 49 51 47 47 48 48 53 66 67 76 70 49 48 63 69 78 75 50 42 51 80 55 48 67 70 65 66 63 64 57
76 98 95 92 91 90 88 66 59 55 61 63 60 58 55 58 56 49 50 50 54 62 65 73 73 43 49 53 59 67 72 72 52 43 51 60 64 43 52 64 64 67 64 64 57
98 100 96 92 98 91 85 72 66 54 57 60 51 52 56 58 62 57 48 50 56 60 61 74 47 46 57 64 75 70 84 73 75 74 56 61 69 56 75 71 66 61 57 69 62
100 96 92 96 87 90 79 73 67 59 81 65 63 63 62 62 60 52 53 53 59 64 58 62 50 61 61 71 84 91 85 99 98 98 97 56 85 83 79 85 75 68 68 71 62
93 95 84 93 88 76 76 70 61 53 69 58 72 67 62 61 62 57 58 55 63 56 64 63 56 62 76 72 100 97 99 100 99 99 100 87 86 100 93 91 76 65 64 60 67
88 97 94 89 82 80 75 64 54 76 67 83 72 78 69 62 63 58 58 54 54 68 66 72 55 68 73 72 94 97 100 100 100 100 96 85 71 99 95 71 65 59 63 68 77
81 100 96 91 81 78 65 58 88 74 50 79 85 71 82 78 62 63 67 67 81 92 90 72 87 82 95 97 78 92 93 82 93 93 95 94 62 74 54 64 66 64 69 83 89
86 100 96 90 77 70 61 73 64 46 68 64 75 70 96 77 72 61 66 71 73 86 90 87 80 82 92 99 100 99 93 89 90 91 93 73 86 82 45 42 41 63 79 86 90
100 100 97 93 79 63 64 82 54 64 55 78 79 93 84 76 68 65 82 73 62 66 91 81 80 80 96 98 98 92 89 95 80 63 70 92 65 47 45 49 46 73 84 90 90
100 95 100 90 79 67 72 68 57 53 60 60 84 65 83 82 77 80 78 64 80 70 61 77 86 56 68 87 74 88 95 90 77 75 88 85 89 90 62 63 56 82 88 94 86
95 96 100 90 74 74 89 73 65 58 61 62 65 70 60 72 65 86 79 60 76 76 65 74 67 68 62 84 99 85 83 76 66 66 66 76 93 58 64 65 61 72 91 96 90
93 100 100 90 92 84 82 52 54 55 62 62 62 61 59 63 63 88 81 70 66 80 73 72 69 83 84 61 74 67 77 75 78 71 72 62 91 44 51 61 59 63 86 93 89
98 98 100 96 87 90 57 57 49 56 61 60 64 60 58 63 68 62 96 58 66 79 73 70 73 75 67 67 61 67 65 72 66 70 86 70 86 44 46 53 55 60 62 85 85
93 99 99 95 67 57 60 58 57 51 53 54 61 60 62 61 66 62 92 60 67 66 70 66 69 88 81 79 77 88 69 67 81 73 64 68 62 54 54 53 54 55 59 60 70
85 91 82 96 94 63 55 51 57 56 52 59 64 66 78 72 68 66 77 62 54 63 65 62 88 74 68 67 68 73 71 64 88 65 77 62 64 59 56 54 52 48 53 62 68
81 92 76 73 71 74 57 54 51 55 54 59 62 64 70 73 66 70 62 72 80 57 66 61 80 70 74 56 53 63 63 57 62 58 58 55 64 51 51 47 50 53 54 58 60
71 64 48 73 74 72 52 50 48 51 55 52 57 66 69 63 60 58 59 62 64 70 65 67 66 66 75 59 60 65 72 68 63 62 57 65 62 51 55 60 64 60 57 60 60

GFSSW_925_rhum_117.txt.gz
RH
99 99 96 93 89 89 90 90 90 85 78 84 82 77 76 89 81 72 55 49 51 64 69 51 48 45 43 39 36 35 53 57 45 36 28 19 21 18 16 20 18 17 20 21 30
99 99 98 96 93 87 87 93 90 89 82 82 82 83 76 83 66 52 49 44 70 81 63 52 51 48 49 45 45 49 50 41 28 26 26 22 21 19 21 23 21 20 23 28 32
99 100 99 94 95 90 89 91 90 87 87 79 76 72 76 78 52 38 63 84 82 77 64 58 53 50 53 44 48 48 58 37 31 26 25 28 27 22 26 32 31 23 20 30 34
98 99 99 95 90 88 91 90 90 93 88 78 72 72 73 69 48 52 63 62 72 58 54 46 44 50 47 46 37 49 37 34 32 30 32 36 30 29 27 28 23 27 25 22 33
99 96 100 98 86 85 87 91 89 93 92 79 76 72 73 58 42 57 60 48 43 46 43 43 44 43 47 36 33 37 34 31 29 29 31 31 37 36 32 24 21 24 31 36 36
93 95 99 99 87 79 89 81 85 92 88 84 78 71 63 59 47 50 49 44 38 39 39 40 39 36 43 42 41 34 34 33 29 34 35 38 38 36 33 27 25 26 30 32 38
90 97 99 99 91 86 94 84 89 85 87 88 90 72 60 45 44 47 50 45 42 39 37 39 40 44 36 41 31 34 42 35 33 30 34 34 47 44 33 27 27 27 29 32 38
90 89 99 100 93 84 90 81 82 85 86 86 89 73 56 46 44 52 46 42 42 43 44 42 45 47 47 42 43 48 46 58 31 24 23 33 69 39 30 33 31 27 32 34 36
91 95 96 100 92 87 88 82 81 88 90 91 79 68 47 49 49 44 45 38 39 41 44 44 47 48 43 63 70 47 65 42 31 19 21 31 67 40 32 31 32 28 25 31 38
93 91 87 98 94 95 90 88 92 86 79 78 66 71 46 44 42 43 43 42 40 39 45 49 48 51 52 73 80 54 58 45 39 28 36 60 58 41 32 32 31 28 26 31 39
93 79 78 99 96 94 94 82 70 75 67 60 51 48 40 42 46 43 41 42 41 44 57 52 70 71 59 41 46 49 55 60 40 30 34 36 46 62 37 40 40 35 39 37 44
91 82 88 100 94 94 87 58 49 51 75 59 52 48 48 48 51 44 44 46 45 59 49 62 82 44 34 32 42 46 52 50 39 34 40 44 44 35 37 49 55 51 47 52 46
88 94 99 95 92 99 83 61 60 50 56 62 49 44 48 51 52 48 41 40 47 51 50 62 46 35 39 45 55 54 63 61 60 53 59 66 54 41 39 42 44 50 48 45 45
88 100 92 92 95 84 74 75 62 50 91 67 57 55 56 53 58 43 43 46 49 58 50 52 39 44 46 54 58 93 55 89 89 94 88 48 74 56 42 48 54 48 50 50 47
85 89 98 85 78 73 73 80 61 55 65 57 63 60 52 59 52 49 45 50 63 53 54 60 52 50 58 58 93 89 83 100 100 100 98 72 95 71 43 68 65 59 59 52 50
80 86 93 98 85 82 80 65 57 91 72 74 62 67 66 52 50 48 53 50 48 64 56 62 47 55 63 60 79 92 100 100 100 100 91 68 90 99 99 89 66 66 61 63 66
84 92 98 84 70 83 64 58 97 81 48 80 74 66 70 65 55 53 55 61 73 91 95 67 74 64 84 99 70 86 98 97 97 97 81 94 92 100 88 72 76 77 82 82 73
77 90 100 90 85 67 59 82 84 48 64 54 62 58 90 61 64 50 57 63 59 76 83 86 92 85 95 99 100 98 94 97 95 92 80 52 87 99 72 55 68 70 83 82 76
91 100 92 89 76 67 59 97 51 70 46 67 64 96 70 61 63 54 76 60 52 60 90 82 83 62 75 96 97 86 88 83 96 94 77 94 97 85 62 69 79 83 89 89 81
98 98 100 92 78 58 70 70 48 42 51 55 84 58 73 74 71 79 62 52 61 64 59 74 88 52 58 78 83 94 86 89 87 93 91 91 89 96 90 89 87 87 96 92 88
91 96 100 82 72 60 90 61 56 46 46 51 49 55 49 62 58 74 61 51 63 66 60 69 76 87 74 97 100 92 81 70 65 60 93 83 94 94 77 76 89 88 96 97 93
92 100 99 80 86 71 74 42 49 48 54 52 52 52 50 48 52 82 80 58 58 68 71 59 70 93 75 51 56 68 70 66 93 67 69 61 96 59 59 71 80 87 92 94 92
97 98 99 100 85 83 50 51 44 50 53 53 55 52 47 52 62 57 90 48 52 66 80 64 70 94 75 52 50 68 54 57 57 66 70 71 94 45 48 60 69 89 90 93 92
97 100 99 96 64 53 50 49 53 47 50 46 51 50 50 51 49 58 91 49 55 57 67 67 64 84 80 74 73 87 54 59 87 77 75 85 78 55 52 54 56 60 65 72 82
87 86 77 97 74 49 43 42 48 52 46 48 55 56 66 60 52 54 73 56 47 51 54 55 77 58 54 58 53 56 56 51 69 54 79 65 66 59 52 51 51 49 51 57 62
70 77 70 65 57 56 47 43 43 47 47 51 58 52 58 62 62 58 54 66 70 49 53 49 67 60 62 48 49 65 58 55 54 50 53 55 64 49 47 47 51 51 53 57 58
62 61 47 64 63 59 43 39 40 42 49 46 45 57 60 54 49 45 46 48 55 59 57 56 56 60 66 51 50 57 71 62 58 55 52 68 57 44 54 59 59 54 52 57 57

GFSSW_925_rhum_120.txt.gz
RH
99 99 98 97 96 90 90 91 92 83 84 83 84 81 82 84 79 83 68 53 51 62 55 54 46 43 40 42 38 37 62 67 52 42 36 25 25 19 16 19 18 18 18 16 19
97 98 99 98 99 95 89 87 95 86 85 81 86 82 82 73 77 57 48 46 45 66 57 50 47 42 54 47 45 53 63 56 37 31 31 27 26 24 23 21 20 21 17 17 19
93 99 94 100 97 92 91 90 93 90 87 82 81 75 68 69 62 46 57 49 65 73 71 63 54 52 59 52 49 50 66 49 41 35 33 34 33 26 29 33 26 24 28 28 23
92 94 99 99 98 96 89 91 90 89 82 83 76 68 70 70 56 63 65 69 78 74 70 57 49 58 56 54 43 56 44 42 41 35 35 37 32 36 34 31 24 23 24 27 31
88 88 97 89 99 92 94 94 90 92 88 90 77 69 75 60 45 65 58 54 54 48 46 45 47 48 55 44 37 39 35 30 28 32 34 32 36 37 35 29 26 25 25 28 32
80 93 95 90 99 93 86 80 90 90 91 82 78 68 70 58 46 56 52 43 38 39 37 38 39 38 45 46 47 40 38 35 32 35 33 36 39 38 35 29 29 29 29 27 27
78 90 93 93 100 96 82 90 90 80 90 94 90 72 60 48 40 46 47 43 40 38 36 37 38 44 43 49 36 37 46 40 36 32 34 32 41 42 33 31 32 31 28 27 28
80 90 95 91 98 96 95 92 92 86 89 91 87 78 65 44 44 47 44 42 42 40 41 42 42 47 51 45 46 55 54 68 41 32 29 35 57 37 31 32 35 31 30 27 26
83 90 95 95 94 96 88 86 92 93 90 82 85 72 53 44 45 45 45 42 37 40 41 40 39 52 53 67 78 65 82 62 46 29 26 28 41 33 28 32 37 34 32 29 26
90 85 94 88 91 93 90 94 91 91 83 76 61 69 57 49 42 42 42 40 39 38 45 50 52 64 64 80 92 77 75 57 52 35 33 37 36 41 44 40 44 41 34 30 28
94 85 84 80 78 99 92 94 78 82 67 64 60 52 42 41 44 43 40 41 41 42 67 56 80 93 68 56 58 63 69 71 46 33 35 38 38 34 34 42 51 46 35 32 29
94 79 76 79 84 96 85 73 51 58 79 60 49 45 44 44 50 42 42 48 50 70 58 80 93 58 43 44 46 49 57 59 45 38 42 54 67 42 39 39 51 50 48 35 29
94 72 95 99 97 99 98 80 63 46 64 66 55 50 47 47 51 48 42 42 48 58 60 72 53 39 41 48 55 56 63 62 60 47 54 66 74 62 51 46 44 51 54 56 53
92 84 99 88 92 88 89 82 58 56 97 77 60 51 52 51 58 40 40 43 49 60 54 58 42 42 46 55 52 87 56 63 78 94 94 57 89 69 53 44 46 50 61 63 54
88 79 95 86 92 91 75 71 62 53 97 63 59 57 49 58 51 51 41 49 66 59 60 69 57 56 65 61 67 91 79 91 99 99 99 79 98 83 48 50 49 53 52 59 46
83 74 82 97 88 82 76 63 54 94 96 74 64 68 63 54 48 48 53 50 50 62 60 66 49 54 63 57 66 72 92 97 99 96 97 71 96 98 99 97 85 54 60 71 76
83 82 99 94 79 79 61 61 95 98 59 74 71 62 78 63 53 52 56 69 74 92 91 71 79 59 83 99 71 86 99 97 98 99 93 99 95 99 98 93 93 77 88 83 74
77 74 96 96 78 62 59 89 96 56 73 50 61 56 88 59 65 50 61 77 63 76 94 94 95 86 89 97 99 97 100 98 96 97 93 100 97 98 96 86 87 87 88 79 78
84 100 96 92 74 62 67 87 77 78 48 67 66 85 71 60 65 57 85 62 53 62 92 90 82 59 68 81 95 91 99 98 99 90 85 98 94 90 93 95 88 92 89 91 86
86 96 99 90 74 65 77 84 54 43 50 55 82 64 77 76 70 80 62 54 57 59 58 80 97 87 66 79 83 98 86 99 99 96 95 96 97 98 100 100 92 95 96 93 89
84 93 100 84 75 70 92 70 54 43 46 53 48 54 59 62 62 78 68 58 56 58 63 71 96 76 80 98 99 94 96 83 94 84 96 95 98 98 100 98 96 96 96 96 94
93 99 98 82 91 79 83 44 52 47 52 49 49 55 49 47 51 86 86 60 57 62 84 79 78 97 86 51 60 65 98 65 95 96 99 95 98 84 93 93 88 95 94 94 92
98 98 94 95 94 81 52 48 44 48 51 49 54 50 46 50 64 59 93 47 55 61 73 72 84 94 84 64 58 76 59 55 66 76 94 96 98 58 65 76 86 91 93 94 95
97 100 98 96 77 61 51 50 53 47 50 46 52 48 49 49 47 56 96 51 50 56 63 71 67 84 98 100 89 90 56 64 84 88 91 94 88 65 63 63 62 70 86 91 92
90 93 83 100 82 58 43 42 51 54 47 46 55 56 80 59 50 55 79 66 49 46 56 60 78 59 57 57 64 70 65 66 72 68 93 77 78 69 65 62 62 60 65 75 81
77 82 71 76 68 57 48 43 43 48 47 54 58 52 56 64 66 57 56 67 68 52 51 51 70 61 64 51 62 74 77 69 87 96 65 76 76 61 62 62 64 65 66 70 73
56 58 63 62 62 61 51 41 40 44 49 48 48 59 59 60 50 50 48 50 54 62 65 59 66 73 71 50 51 81 90 69 65 58 60 81 66 63 72 72 72 69 69 75 75

GFSSW_925_rhum_123.txt.gz
RH
88 96 97 98 96 99 93 91 93 94 90 90 84 80 76 77 84 90 80 56 64 66 50 61 51 46 41 46 42 42 74 80 68 60 50 34 34 26 23 23 22 20 19 18 18
88 90 97 100 100 98 95 92 90 96 88 88 87 79 81 77 83 78 64 63 59 67 53 51 53 47 60 54 53 58 80 67 51 45 44 38 39 36 32 31 30 28 24 21 24
90 90 88 95 97 100 94 93 91 97 91 90 84 79 71 70 84 62 57 59 58 67 62 62 62 52 64 57 58 56 70 56 51 47 44 46 42 34 41 43 35 33 30 27 26
79 82 87 90 97 96 99 98 92 92 93 94 80 72 64 78 82 73 70 74 77 73 75 66 57 64 65 67 53 70 54 52 50 45 46 47 40 39 37 36 33 31 31 30 30
82 79 89 93 95 92 99 98 92 93 88 92 76 67 68 80 64 67 67 73 58 54 58 60 59 60 72 57 52 54 47 43 39 43 43 37 42 41 37 31 29 28 28 32 32
91 83 82 93 92 89 100 93 90 89 89 89 79 69 74 80 60 61 46 41 43 43 43 40 43 44 50 51 56 47 44 41 36 38 37 39 39 37 35 36 35 31 30 30 30
91 89 86 95 93 97 99 89 94 88 88 90 77 68 70 64 46 50 46 42 40 38 40 39 40 46 53 63 50 50 60 54 48 43 45 39 48 43 32 30 30 30 30 32 31
90 96 87 96 94 99 91 92 90 84 91 95 93 83 83 51 44 47 47 44 43 40 41 42 42 49 54 54 59 66 65 79 48 44 41 46 61 39 32 34 34 32 32 31 29
89 93 91 90 92 91 99 94 78 86 86 90 85 85 72 42 45 45 44 44 43 42 42 40 43 56 54 78 86 77 96 79 60 42 42 43 50 35 34 34 41 34 33 31 31
88 93 93 92 90 92 91 82 85 91 89 82 66 71 58 53 43 45 45 44 40 44 52 50 57 70 78 89 95 88 90 75 68 46 48 52 48 37 33 34 38 40 39 38 38
90 88 96 76 58 85 96 94 90 90 77 78 70 63 52 44 43 43 42 43 44 49 74 61 89 98 83 75 68 70 79 88 66 49 46 47 45 40 38 44 39 39 34 43 48
94 88 78 74 69 97 87 84 67 60 90 70 59 57 45 45 54 47 41 54 62 81 62 82 90 68 61 64 63 65 71 64 48 39 47 52 60 50 48 51 51 44 46 42 42
83 93 72 81 90 99 84 91 73 54 75 76 60 52 48 49 54 54 47 52 57 67 73 85 68 52 56 67 68 66 75 66 63 51 55 66 77 66 52 48 45 48 45 48 48
78 90 75 99 92 99 96 83 77 61 94 81 69 56 55 55 62 44 42 48 52 64 64 73 56 56 55 62 59 77 57 64 71 92 96 71 88 59 55 61 55 50 50 65 71
78 82 61 94 88 92 79 82 82 53 98 74 63 53 55 65 60 56 42 50 67 65 61 74 62 63 74 70 64 85 78 91 96 98 98 83 97 79 89 74 58 59 68 61 54
76 75 82 83 91 85 86 72 54 93 96 78 74 71 65 64 53 57 58 51 54 60 64 73 55 62 69 65 70 72 83 89 97 99 98 72 92 91 98 96 91 82 72 63 64
77 85 96 85 94 80 68 66 92 97 69 80 68 60 77 70 64 62 69 84 89 93 89 78 83 67 83 96 76 91 100 96 95 98 92 95 98 90 98 97 83 83 84 87 82
72 87 94 90 83 64 62 88 96 72 80 60 66 61 82 68 69 58 65 84 71 75 97 100 85 82 89 98 100 99 99 98 96 96 97 100 97 99 96 94 85 83 94 86 88
97 93 96 94 76 68 81 95 85 75 59 61 69 85 80 66 73 64 78 71 62 68 95 98 88 64 80 79 95 91 100 98 100 96 97 96 93 96 90 94 87 91 90 92 90
92 93 99 90 71 68 88 82 60 55 62 64 86 77 87 79 80 84 78 56 63 60 60 87 96 71 81 79 84 98 95 97 99 96 96 92 97 97 98 99 94 93 96 91 89
83 95 100 86 76 85 96 65 57 47 62 62 62 71 72 75 73 94 79 74 50 62 70 79 98 84 83 96 99 98 100 98 98 97 100 96 97 100 100 100 97 94 89 95 96
93 99 92 83 93 91 93 54 51 50 53 53 54 56 59 55 66 93 83 67 57 63 84 85 96 98 94 60 70 70 84 78 95 93 96 98 98 95 97 96 96 96 93 92 96
98 98 81 86 94 91 52 54 54 53 54 53 59 53 50 52 73 85 96 56 59 62 77 72 88 93 76 63 72 97 64 66 66 78 97 97 98 84 85 94 96 97 92 92 96
97 99 98 89 93 84 54 54 59 50 52 50 56 58 56 54 50 78 91 57 54 58 59 72 76 94 98 100 93 93 81 79 81 94 91 98 92 85 85 93 91 94 91 94 93
93 96 87 99 84 76 53 46 59 56 50 50 58 68 78 65 56 74 79 69 57 53 56 72 82 86 73 64 79 91 95 96 94 98 97 95 89 87 83 84 87 86 88 89 92
90 91 86 94 84 66 54 46 54 49 59 57 66 62 65 74 67 71 64 72 70 64 60 59 71 65 63 62 72 95 80 77 84 70 78 85 89 76 75 73 81 88 86 91 93
59 62 74 70 69 71 65 44 53 52 50 53 60 65 75 68 59 55 54 58 57 65 75 71 72 80 77 57 56 84 93 70 68 66 68 92 83 79 84 82 83 87 86 89 88

GFSSW_925_rhum_126.txt.gz
RH
76 89 84 97 99 100 99 93 91 94 95 95 86 85 80 84 79 83 90 52 59 63 62 62 50 47 43 48 43 46 79 91 73 63 57 38 42 31 28 27 30 22 24 24 25
78 87 92 89 94 98 100 95 91 94 95 95 87 88 84 82 72 84 36 74 67 69 64 51 54 50 62 56 53 60 85 73 56 50 52 51 50 45 37 39 37 34 30 28 28
85 80 80 88 88 95 98 100 95 92 94 83 87 89 80 69 82 72 54 72 60 70 51 48 62 54 64 59 61 60 78 59 53 50 50 54 51 40 40 42 38 40 36 31 31
91 89 83 84 94 88 98 97 97 80 96 85 81 75 72 71 55 68 66 64 61 66 72 69 63 63 66 68 56 70 58 56 53 52 55 56 48 48 42 40 33 34 33 34 30
89 92 90 83 91 94 91 96 97 86 94 92 78 73 69 82 74 69 73 78 77 71 74 69 66 67 73 63 54 57 50 46 43 45 45 43 47 48 44 37 34 34 32 34 32
88 89 90 87 94 94 77 92 98 91 86 93 84 71 70 83 61 67 65 55 49 46 47 42 45 47 51 53 56 51 54 52 46 48 46 46 44 42 37 33 31 31 34 35 35
88 89 88 88 95 88 94 96 94 84 78 96 88 66 74 68 59 56 44 41 41 41 42 44 43 46 53 60 54 55 63 58 49 48 50 45 51 47 38 35 34 32 29 29 29
88 88 93 88 88 92 98 99 99 93 89 95 92 76 82 55 53 52 46 45 42 40 42 42 43 52 54 54 64 67 68 78 47 44 45 53 63 43 36 36 36 34 33 30 28
90 90 92 88 89 84 91 96 87 85 95 88 85 80 84 46 48 48 47 44 44 41 42 41 46 57 57 81 86 77 96 83 67 47 49 51 63 42 37 40 38 34 37 36 32
92 92 96 82 87 82 99 86 90 90 89 79 70 78 64 58 43 46 43 46 48 50 51 50 64 73 83 91 93 85 94 79 76 53 52 61 60 49 43 41 38 32 30 30 32
93 96 89 89 78 79 97 100 92 96 85 80 73 64 55 47 44 46 45 45 45 52 77 66 84 97 82 79 74 76 83 89 68 55 62 63 57 45 39 42 41 36 33 32 34
91 85 82 76 71 81 90 86 80 69 94 73 69 60 50 44 54 47 42 55 61 80 66 79 92 70 70 72 77 83 91 86 63 46 50 53 56 47 46 47 48 48 45 40 34
74 84 73 84 77 94 88 88 61 56 82 80 66 56 50 47 58 59 47 51 63 76 79 85 62 59 68 78 86 82 87 80 69 54 64 70 80 72 56 55 50 49 46 45 40
76 90 81 96 86 94 97 83 61 59 93 88 76 62 53 55 64 45 44 50 55 71 67 77 63 67 73 81 74 90 61 65 70 96 97 70 91 61 54 77 65 69 62 54 50
73 80 78 83 99 92 98 86 59 65 96 82 66 55 57 66 60 55 43 50 66 67 60 72 69 64 72 72 66 81 69 83 82 98 98 86 97 80 86 86 83 81 78 74 54
72 76 90 85 82 90 90 85 73 92 96 99 75 79 71 64 57 58 57 52 55 63 62 75 57 63 71 62 63 68 83 89 93 98 98 80 91 84 92 96 92 89 73 75 77
81 76 86 93 95 90 87 72 93 96 82 87 84 65 64 77 69 70 75 85 82 83 88 79 81 72 73 91 77 95 99 98 91 98 91 91 98 85 95 95 95 95 81 77 88
95 92 95 89 85 76 62 89 91 74 81 60 64 64 82 68 69 64 71 88 73 72 100 97 83 83 85 96 98 98 99 97 100 97 93 95 94 90 91 92 91 85 79 80 92
80 87 95 83 70 62 78 94 86 74 58 64 67 88 66 68 73 68 74 80 67 75 97 97 90 61 81 79 93 96 100 94 99 96 98 93 82 84 74 88 91 94 88 90 88
78 88 99 82 70 64 86 78 66 61 65 64 77 74 91 83 82 84 92 57 62 60 69 90 96 70 78 78 86 98 91 97 99 97 94 88 96 97 96 97 95 95 95 88 85
83 95 90 79 76 82 95 70 58 51 58 62 70 84 75 78 77 94 78 68 54 68 69 87 98 77 81 93 100 98 99 98 99 98 97 96 96 99 100 99 99 95 95 90 92
89 98 76 83 87 93 90 58 49 52 53 55 57 58 70 70 76 93 78 69 56 64 82 83 93 99 95 69 66 76 98 87 98 92 93 98 98 93 96 97 99 96 94 91 95
96 98 74 83 92 93 54 53 57 61 58 60 64 57 50 57 85 77 94 60 57 63 71 71 91 95 74 64 71 91 85 73 76 84 93 98 96 86 95 95 96 97 92 93 94
93 95 90 92 94 88 58 56 59 49 53 54 58 60 53 59 69 79 84 63 58 58 61 72 92 97 97 98 88 88 87 78 86 96 94 98 98 96 95 96 96 96 94 90 94
90 94 82 87 83 76 54 52 58 56 53 52 64 69 74 70 65 74 73 68 59 56 62 68 95 86 99 82 82 86 88 80 89 92 95 95 94 98 96 97 96 97 94 90 94
89 93 91 92 86 65 61 49 54 58 59 59 72 69 70 76 67 71 68 73 72 66 70 68 69 68 76 76 79 91 85 72 74 75 78 79 92 79 79 83 90 95 93 92 94
70 69 73 80 72 67 63 47 55 53 54 67 63 71 77 69 62 58 61 62 60 67 76 76 75 82 74 61 57 81 93 82 76 74 76 93 85 81 88 89 92 94 93 96 95